[[{"header":{"parameterUnit":"m.s-1","parameterCategory":1,"la1":31.0,"la2":29.5877,"lo1":-88.7671,"lo2":-86.6584,"dy":0.0162,"dx":0.0185,"nx":115,"ny":88,"refTime":"2026-02-19T00:00:00:Z","depth":0,"parameterNumber":2,"parameterNumberName":"U-component_of_WINDS"},"data":[0.0,0.0,0.0,0.0,0.0,0.0,0.0,0.0,0.0,0.0,0.0,0.0,0.0,0.0,0.0,0.0,0.0,0.0,0.0,0.0,0.0,0.0,0.0,0.0,0.0,0.0,0.0,0.0,0.0,0.0,0.0,0.0,0.0,0.0,0.0,0.0,0.0,0.0,0.0,0.0,0.0,0.0,0.0,0.0,0.0,0.0,0.0,0.0,0.0,0.0,0.0,0.0,0.0,0.0,0.0,0.0,0.0,0.0,0.0,0.0,0.0,0.0,0.0,0.0,0.0,0.0,0.0,0.0,0.0,0.0,0.0,0.0,0.0,0.0,0.0,0.0,0.0,0.0,0.0,0.0,0.0,0.0,0.0,0.0,0.0,0.0,0.0,0.0,0.0,0.0,0.0,0.0,0.0,0.0,0.0,0.0,0.0,0.0,0.0,0.0,0.0,0.0,0.0,0.0,0.0,0.0,0.0,0.0,0.0,0.0,0.0,0.0,0.0,0.0,0.0,0.0,0.0,0.0,0.0,0.0,0.0,0.0,0.0,0.0,0.0,0.0,0.0,0.0,0.0,0.0,0.0,0.0,0.0,0.0,0.0,0.0,0.0,0.0,0.0,0.0,0.0,0.0,0.0,0.0,0.0,0.0,0.0,0.0,0.0,0.0,0.0,0.0,0.0,0.0,0.0,0.0,0.0,0.0,0.0,0.0,0.0,0.0,0.0,0.0,0.0,0.0,0.0,0.0,0.0,0.0,0.0,0.0,0.0,0.0,0.0,0.0,0.0,0.0,0.0,0.0,0.0,0.0,0.0,0.0,0.0,0.0,0.0,0.0,0.0,0.0,0.0,0.0,0.0,0.0,0.0,0.0,0.0,0.0,0.0,0.0,0.0,0.0,0.0,0.0,0.0,0.0,0.0,0.0,0.0,0.0,0.0,0.0,0.0,0.0,0.0,0.0,0.0,0.0,0.0,0.0,0.0,0.0,0.0,0.0,0.0,0.0,0.0,0.0,0.0,0.0,0.0,0.0,0.0,0.0,0.0,0.0,0.0,0.0,0.0,0.0,0.0,0.0,0.0,0.0,0.0,0.0,0.0,0.0,0.0,0.0,0.0,0.0,0.0,0.0,0.0,0.0,0.0,0.0,0.0,0.0,0.0,0.0,0.0,0.0,0.0,0.0,0.0,0.0,0.0,0.0,0.0,0.0,0.0,0.0,0.0,0.0,0.0,0.0,0.0,0.0,0.0,0.0,0.0,0.0,0.0,0.0,0.0,0.0,0.0,0.0,0.0,0.0,0.0,0.0,0.0,0.0,0.0,0.0,0.0,0.0,0.0,0.0,0.0,0.0,0.0,0.0,0.0,0.0,0.0,0.0,0.0,0.0,0.0,0.0,0.0,0.0,0.0,0.0,0.0,0.0,0.0,0.0,0.0,0.0,0.0,0.0,0.0,0.0,0.0,0.0,0.0,0.0,0.0,0.0,0.0,0.0,0.0,0.0,0.0,0.0,0.0,0.0,0.0,0.0,0.0,0.0,0.0,0.0,0.0,0.0,0.0,0.0,0.0,0.0,0.0,0.0,0.0,0.0,0.0,0.0,0.0,0.0,0.0,0.0,0.0,0.0,0.0,0.0,0.0,0.0,0.0,0.0,0.0,0.0,0.0,0.0,0.0,0.0,0.0,0.0,0.0,0.0,0.0,0.0,0.0,0.0,0.0,0.0,0.0,0.0,0.0,0.0,0.0,0.0,0.0,0.0,0.0,0.0,0.0,0.0,0.0,0.0,0.0,0.0,0.0,0.0,0.0,0.0,0.0,0.0,0.0,0.0,0.0,0.0,0.0,0.0,0.0,0.0,0.0,0.0,0.0,0.0,0.0,0.0,0.0,0.0,0.0,0.0,0.0,0.0,0.0,0.0,0.0,0.0,0.0,0.0,0.0,0.0,0.0,0.0,0.0,0.0,0.0,0.0,0.0,0.0,0.0,0.0,0.0,0.0,0.0,0.0,0.0,0.0,0.0,0.0,0.0,0.0,0.0,0.0,0.0,0.0,0.0,0.0,0.0,0.0,0.0,0.0,0.0,0.0,0.0,0.0,0.0,0.0,0.0,0.0,0.0,0.0,0.0,0.0,0.0,0.0,0.0,0.0,0.0,0.0,0.0,0.0,0.0,0.0,0.0,0.0,0.0,0.0,0.0,0.0,0.0,0.0,0.0,0.0,0.0,0.0,0.0,0.0,0.0,0.0,0.0,0.0,0.0,0.0,0.0,0.0,0.0,0.0,0.0,0.0,0.0,0.0,0.0,0.0,0.0,0.0,0.0,0.0,0.0,0.0,0.0,0.0,0.0,0.0,0.0,0.0,0.0,0.0,0.0,0.0,0.0,0.0,0.0,0.0,0.0,0.0,0.0,0.0,0.0,0.0,0.0,0.0,0.0,0.0,0.0,0.0,0.0,0.0,0.0,0.0,0.0,0.0,0.0,0.0,0.0,0.0,0.0,0.0,0.0,0.0,0.0,0.0,0.0,0.0,0.0,0.0,0.0,0.0,0.0,0.0,0.0,0.0,0.0,0.0,0.0,0.0,0.0,0.0,0.0,0.0,0.0,0.0,0.0,0.0,0.0,0.0,0.0,0.0,0.0,0.0,0.0,0.0,0.0,0.0,0.0,0.0,0.0,0.0,0.0,0.0,0.0,0.0,0.0,0.0,0.0,0.0,0.0,0.0,0.0,0.0,0.0,0.0,0.0,0.0,0.0,0.0,0.0,0.0,0.0,0.0,0.0,0.0,0.0,0.0,0.0,0.0,0.0,0.0,0.0,0.0,0.0,0.0,0.0,0.0,0.0,0.0,0.0,0.0,0.0,0.0,0.0,0.0,0.0,0.0,0.0,0.0,0.0,0.0,0.0,0.0,0.0,0.0,0.0,0.0,0.0,0.0,0.0,0.0,0.0,0.0,0.0,0.0,0.0,0.0,0.0,0.0,0.0,0.0,0.0,0.0,0.0,0.0,0.0,0.0,0.0,0.0,0.0,0.0,0.0,0.0,0.0,0.0,0.0,0.0,0.0,0.0,0.0,0.0,0.0,0.0,0.0,0.0,0.0,0.0,0.0,0.0,0.0,0.0,0.0,0.0,0.0,0.0,0.0,0.0,0.0,0.0,0.0,0.0,0.0,0.0,0.0,0.0,0.0,0.0,0.0,0.0,0.0,0.0,0.0,0.0,0.0,0.0,0.0,0.0,0.0,0.0,0.0,0.0,0.0,0.0,0.0,0.0,0.0,0.0,0.0,0.0,0.0,0.0,0.0,0.0,0.0,0.0,0.0,0.0,0.0,0.0,0.0,0.0,0.0,0.0,0.0,0.0,0.0,0.0,0.0,0.0,0.0,0.0,0.0,0.0,0.0,0.0,0.0,0.0,0.0,0.0,0.0,0.0,0.0,0.0,0.0,0.0,0.0,0.0,0.0,0.0,0.0,0.0,0.0,0.0,0.0,0.0,0.0,0.0,0.0,0.0,0.0,0.0,0.0,0.0,0.0,0.0,0.0,0.0,0.0,0.0,0.0,0.0,0.0,0.0,0.0,0.0,0.0,0.0,0.0,0.0,0.0,0.0,0.0,0.0,0.0,0.0,0.0,0.0,0.0,0.0,0.0,0.0,0.0,0.0,0.0,0.0,0.0,0.0,0.0,0.0,0.0,0.0,0.0,0.0,0.0,0.0,0.0,0.0,0.0,0.0,0.0,0.0,0.0,0.0,0.0,0.0,0.0,0.0,0.0,0.0,0.0,0.0,0.0,0.0,0.0,0.0,0.0,0.0,0.0,0.0,0.0,0.0,0.0,0.0,0.0,0.0,0.0,0.0,0.0,0.0,0.0,0.0,0.0,0.0,0.0,0.0,0.0,0.0,0.0,0.0,0.0,0.0,0.0,0.0,0.0,0.0,0.0,0.0,0.0,0.0,0.0,0.0,0.0,0.0,0.0,0.0,0.0,0.0,0.0,0.0,0.0,0.0,0.0,0.0,0.0,0.0,0.0,0.0,0.0,0.0,0.0,0.0,0.0,0.0,0.0,0.0,0.0,0.0,0.0,0.0,0.0,0.0,0.0,0.0,0.0,0.0,0.0,0.0,0.0,0.0,0.0,0.0,0.0,0.0,0.0,0.0,0.0,0.0,0.0,0.0,0.0,0.0,0.0,0.0,0.0,0.0,0.0,0.0,0.0,0.0,0.0,0.0,0.0,0.0,0.0,0.0,0.0,0.0,0.0,0.0,0.0,0.0,0.0,0.0,7.84,0.0,0.0,0.0,0.0,0.0,0.0,0.0,0.0,0.0,0.0,0.0,0.0,0.0,0.0,0.0,0.0,0.0,0.0,0.0,0.0,0.0,0.0,0.0,0.0,0.0,0.0,0.0,0.0,0.0,0.0,0.0,0.0,0.0,0.0,0.0,0.0,0.0,0.0,0.0,0.0,0.0,0.0,0.0,0.0,0.0,0.0,0.0,0.0,0.0,0.0,0.0,0.0,0.0,0.0,0.0,0.0,0.0,0.0,0.0,0.0,0.0,0.0,0.0,0.0,0.0,0.0,0.0,0.0,0.0,0.0,0.0,0.0,0.0,0.0,0.0,0.0,0.0,0.0,0.0,0.0,0.0,0.0,0.0,0.0,0.0,0.0,0.0,0.0,0.0,0.0,0.0,0.0,0.0,0.0,0.0,0.0,0.0,0.0,0.0,0.0,0.0,0.0,0.0,0.0,0.0,0.0,0.0,0.0,0.0,0.0,8.3868,8.2939,8.2978,8.1593,7.8592,0.0,0.0,0.0,0.0,0.0,0.0,0.0,0.0,0.0,0.0,0.0,0.0,0.0,0.0,0.0,0.0,0.0,0.0,0.0,0.0,0.0,0.0,0.0,0.0,0.0,0.0,0.0,0.0,0.0,0.0,0.0,0.0,0.0,0.0,0.0,0.0,0.0,0.0,0.0,0.0,0.0,0.0,0.0,0.0,0.0,0.0,0.0,0.0,0.0,0.0,0.0,0.0,0.0,0.0,0.0,0.0,0.0,0.0,0.0,0.0,0.0,0.0,0.0,0.0,0.0,0.0,0.0,0.0,0.0,0.0,0.0,0.0,0.0,0.0,0.0,0.0,0.0,0.0,0.0,0.0,0.0,0.0,0.0,0.0,0.0,0.0,0.0,0.0,0.0,0.0,0.0,0.0,0.0,0.0,0.0,0.0,0.0,0.0,0.0,0.0,0.0,0.0,0.0,0.0,0.0,0.0,0.0,0.0,0.0,0.0,0.0,0.0,8.3785,8.2477,7.8938,0.0,0.0,0.0,0.0,0.0,0.0,0.0,0.0,0.0,0.0,0.0,0.0,0.0,0.0,0.0,0.0,0.0,0.0,0.0,0.0,0.0,0.0,0.0,0.0,0.0,0.0,0.0,0.0,0.0,0.0,0.0,0.0,0.0,0.0,0.0,0.0,0.0,0.0,0.0,0.0,0.0,0.0,0.0,0.0,0.0,0.0,0.0,0.0,0.0,0.0,0.0,0.0,0.0,0.0,0.0,0.0,0.0,0.0,0.0,0.0,0.0,0.0,0.0,0.0,0.0,0.0,0.0,0.0,0.0,0.0,0.0,0.0,0.0,0.0,0.0,0.0,0.0,0.0,0.0,0.0,0.0,0.0,0.0,0.0,0.0,0.0,0.0,0.0,0.0,0.0,0.0,0.0,0.0,0.0,0.0,0.0,0.0,0.0,0.0,0.0,0.0,0.0,0.0,0.0,0.0,0.0,0.0,0.0,0.0,0.0,8.4356,8.5709,8.5786,0.0,8.0015,0.0,0.0,0.0,0.0,0.0,0.0,0.0,0.0,0.0,0.0,0.0,0.0,0.0,0.0,0.0,0.0,0.0,0.0,0.0,0.0,0.0,0.0,0.0,0.0,0.0,0.0,0.0,0.0,0.0,0.0,0.0,0.0,0.0,0.0,0.0,0.0,0.0,0.0,0.0,0.0,0.0,0.0,0.0,0.0,0.0,0.0,0.0,0.0,0.0,0.0,0.0,0.0,0.0,0.0,0.0,0.0,0.0,0.0,0.0,0.0,0.0,0.0,0.0,0.0,0.0,0.0,0.0,0.0,0.0,0.0,0.0,0.0,0.0,0.0,0.0,0.0,0.0,0.0,0.0,0.0,0.0,0.0,0.0,0.0,0.0,0.0,0.0,0.0,0.0,0.0,0.0,0.0,0.0,0.0,0.0,0.0,0.0,0.0,0.0,0.0,0.0,0.0,0.0,0.0,0.0,0.0,0.0,0.0,0.0,0.0,0.0,8.4632,8.317,8.1323,0.0,0.0,0.0,0.0,0.0,0.0,0.0,0.0,0.0,0.0,0.0,0.0,0.0,0.0,0.0,0.0,0.0,0.0,0.0,0.0,0.0,0.0,0.0,0.0,0.0,0.0,0.0,0.0,0.0,0.0,0.0,0.0,0.0,0.0,0.0,0.0,0.0,0.0,0.0,0.0,0.0,0.0,0.0,0.0,0.0,0.0,0.0,0.0,0.0,0.0,0.0,0.0,0.0,0.0,0.0,0.0,0.0,0.0,0.0,0.0,0.0,0.0,0.0,0.0,0.0,0.0,0.0,0.0,0.0,0.0,0.0,0.0,0.0,0.0,0.0,0.0,0.0,0.0,0.0,0.0,0.0,0.0,0.0,0.0,0.0,0.0,0.0,0.0,0.0,0.0,0.0,0.0,0.0,0.0,0.0,0.0,0.0,0.0,0.0,0.0,0.0,0.0,0.0,0.0,0.0,0.0,0.0,0.0,0.0,0.0,8.4767,0.0,8.4593,8.2631,8.0477,7.8246,0.0,0.0,0.0,0.0,0.0,0.0,0.0,0.0,0.0,0.0,0.0,0.0,0.0,0.0,0.0,0.0,0.0,0.0,0.0,0.0,0.0,0.0,0.0,0.0,0.0,0.0,0.0,0.0,0.0,0.0,0.0,0.0,0.0,0.0,0.0,0.0,0.0,0.0,0.0,0.0,0.0,0.0,0.0,0.0,0.0,0.0,0.0,0.0,0.0,0.0,0.0,0.0,0.0,0.0,0.0,0.0,0.0,0.0,0.0,0.0,0.0,0.0,0.0,0.0,0.0,0.0,0.0,0.0,0.0,0.0,0.0,0.0,0.0,0.0,0.0,0.0,0.0,0.0,0.0,0.0,0.0,0.0,0.0,0.0,0.0,0.0,0.0,0.0,0.0,0.0,0.0,0.0,0.0,0.0,0.0,0.0,0.0,0.0,0.0,0.0,0.0,0.0,0.0,0.0,0.0,0.0,0.0,0.0,0.0,8.5599,8.5676,8.7132,8.6286,8.3131,0.0,0.0,0.0,0.0,0.0,0.0,0.0,0.0,0.0,0.0,0.0,0.0,0.0,0.0,0.0,0.0,0.0,0.0,0.0,0.0,0.0,0.0,0.0,0.0,0.0,0.0,0.0,0.0,0.0,0.0,0.0,0.0,0.0,0.0,0.0,0.0,0.0,0.0,0.0,0.0,0.0,0.0,0.0,0.0,0.0,0.0,0.0,0.0,0.0,0.0,0.0,0.0,0.0,0.0,0.0,0.0,0.0,0.0,0.0,0.0,0.0,0.0,0.0,0.0,0.0,0.0,0.0,0.0,0.0,0.0,0.0,0.0,0.0,0.0,0.0,0.0,0.0,0.0,0.0,0.0,0.0,0.0,0.0,0.0,0.0,0.0,0.0,0.0,0.0,0.0,0.0,0.0,0.0,0.0,0.0,0.0,0.0,0.0,0.0,0.0,0.0,0.0,0.0,0.0,0.0,0.0,0.0,0.0,0.0,8.0939,8.14,8.4016,8.8517,8.2439,7.8823,0.0,0.0,0.0,0.0,0.0,0.0,0.0,0.0,0.0,0.0,0.0,0.0,0.0,0.0,0.0,0.0,0.0,0.0,0.0,0.0,0.0,0.0,0.0,0.0,0.0,0.0,0.0,0.0,0.0,0.0,0.0,0.0,0.0,0.0,0.0,0.0,0.0,0.0,0.0,0.0,0.0,0.0,0.0,0.0,0.0,0.0,0.0,0.0,0.0,0.0,0.0,0.0,0.0,0.0,0.0,0.0,0.0,0.0,0.0,0.0,0.0,0.0,0.0,0.0,0.0,0.0,0.0,0.0,0.0,0.0,0.0,0.0,0.0,0.0,0.0,0.0,0.0,0.0,0.0,0.0,0.0,0.0,0.0,0.0,0.0,0.0,0.0,0.0,0.0,0.0,0.0,0.0,0.0,0.0,0.0,0.0,0.0,0.0,0.0,0.0,0.0,0.0,0.0,0.0,0.0,0.0,0.0,0.0,0.0,8.02,0.0,8.4516,0.0,8.1093,7.713,0.0,0.0,0.0,0.0,0.0,0.0,0.0,0.0,0.0,0.0,0.0,0.0,0.0,0.0,0.0,0.0,0.0,0.0,0.0,0.0,0.0,0.0,0.0,0.0,0.0,0.0,0.0,0.0,0.0,0.0,0.0,0.0,0.0,0.0,0.0,0.0,0.0,0.0,0.0,0.0,0.0,0.0,0.0,0.0,0.0,0.0,0.0,0.0,0.0,0.0,0.0,0.0,0.0,0.0,0.0,0.0,0.0,0.0,0.0,0.0,0.0,0.0,0.0,0.0,0.0,0.0,0.0,0.0,0.0,0.0,0.0,0.0,0.0,0.0,0.0,0.0,0.0,0.0,0.0,0.0,0.0,0.0,0.0,0.0,0.0,0.0,0.0,0.0,0.0,0.0,0.0,0.0,0.0,0.0,0.0,0.0,0.0,0.0,0.0,0.0,0.0,0.0,0.0,0.0,0.0,0.0,0.0,0.0,0.0,8.5735,8.8166,8.7132,8.267,8.2862,7.8669,0.0,0.0,0.0,0.0,0.0,0.0,0.0,0.0,0.0,0.0,0.0,0.0,0.0,0.0,0.0,0.0,0.0,0.0,0.0,0.0,0.0,0.0,0.0,0.0,0.0,0.0,0.0,0.0,0.0,0.0,0.0,0.0,0.0,0.0,0.0,0.0,0.0,0.0,0.0,0.0,0.0,0.0,0.0,0.0,0.0,0.0,0.0,0.0,0.0,0.0,0.0,0.0,0.0,0.0,0.0,0.0,0.0,0.0,0.0,0.0,0.0,0.0,0.0,0.0,0.0,0.0,0.0,0.0,0.0,0.0,0.0,0.0,0.0,0.0,0.0,0.0,0.0,0.0,0.0,0.0,0.0,0.0,0.0,0.0,0.0,0.0,0.0,0.0,0.0,0.0,0.0,0.0,0.0,0.0,0.0,0.0,0.0,0.0,0.0,0.0,0.0,0.0,0.0,0.0,0.0,0.0,0.0,0.0,0.0,8.1776,8.3643,8.5593,8.7209,8.0439,7.7361,0.0,0.0,0.0,0.0,0.0,0.0,0.0,0.0,0.0,0.0,0.0,0.0,0.0,0.0,0.0,0.0,0.0,0.0,0.0,0.0,0.0,0.0,0.0,0.0,0.0,0.0,0.0,0.0,0.0,0.0,0.0,0.0,0.0,0.0,0.0,0.0,0.0,0.0,0.0,0.0,0.0,0.0,0.0,0.0,0.0,0.0,0.0,0.0,0.0,0.0,0.0,0.0,0.0,0.0,0.0,0.0,0.0,0.0,0.0,0.0,0.0,0.0,0.0,0.0,0.0,0.0,0.0,0.0,0.0,0.0,0.0,0.0,0.0,0.0,0.0,0.0,0.0,0.0,0.0,0.0,0.0,0.0,0.0,0.0,0.0,0.0,0.0,0.0,0.0,0.0,0.0,0.0,0.0,0.0,0.0,0.0,0.0,0.0,0.0,0.0,0.0,0.0,0.0,0.0,0.0,0.0,0.0,0.0,0.0,8.6087,8.8185,8.9671,9.0364,8.3978,8.0015,7.8784,0.0,0.0,0.0,0.0,0.0,0.0,0.0,0.0,0.0,0.0,0.0,0.0,0.0,0.0,0.0,0.0,0.0,0.0,0.0,0.0,0.0,0.0,0.0,0.0,0.0,0.0,0.0,0.0,0.0,0.0,0.0,0.0,0.0,0.0,0.0,0.0,0.0,0.0,0.0,0.0,0.0,0.0,0.0,0.0,0.0,0.0,0.0,0.0,0.0,0.0,0.0,0.0,0.0,0.0,0.0,0.0,0.0,0.0,0.0,0.0,0.0,0.0,0.0,0.0,0.0,0.0,0.0,0.0,0.0,0.0,0.0,0.0,0.0,0.0,0.0,0.0,0.0,0.0,0.0,0.0,0.0,0.0,0.0,0.0,0.0,0.0,0.0,0.0,0.0,0.0,0.0,0.0,0.0,0.0,0.0,0.0,0.0,0.0,0.0,0.0,0.0,0.0,0.0,0.0,0.0,0.0,0.0,0.0,9.6745,10.0509,9.9365,9.2864,9.2441,8.6094,0.0,0.0,0.0,0.0,0.0,0.0,0.0,0.0,0.0,0.0,0.0,0.0,0.0,0.0,0.0,0.0,0.0,0.0,0.0,0.0,0.0,0.0,0.0,0.0,0.0,0.0,0.0,0.0,0.0,0.0,0.0,0.0,0.0,0.0,0.0,0.0,0.0,0.0,0.0,0.0,0.0,0.0,0.0,0.0,0.0,0.0,0.0,0.0,0.0,0.0,0.0,0.0,0.0,0.0,0.0,0.0,0.0,0.0,0.0,0.0,0.0,0.0,0.0,0.0,0.0,0.0,0.0,0.0,0.0,0.0,0.0,0.0,0.0,0.0,0.0,0.0,0.0,0.0,0.0,0.0,0.0,0.0,0.0,0.0,0.0,0.0,0.0,0.0,0.0,0.0,0.0,0.0,0.0,0.0,0.0,0.0,0.0,0.0,0.0,0.0,0.0,0.0,0.0,0.0,0.0,0.0,0.0,0.0,0.0,10.2876,11.2214,11.4022,10.7175,9.7634,9.1018,0.0,0.0,0.0,0.0,0.0,0.0,0.0,0.0,0.0,0.0,0.0,0.0,0.0,0.0,0.0,0.0,0.0,0.0,0.0,0.0,0.0,0.0,0.0,0.0,0.0,0.0,0.0,0.0,0.0,0.0,0.0,0.0,0.0,0.0,0.0,0.0,0.0,0.0,0.0,0.0,0.0,0.0,0.0,0.0,0.0,0.0,0.0,0.0,0.0,0.0,0.0,0.0,0.0,0.0,0.0,0.0,0.0,0.0,0.0,0.0,0.0,0.0,0.0,0.0,0.0,0.0,0.0,0.0,0.0,0.0,0.0,0.0,0.0,0.0,0.0,0.0,0.0,0.0,0.0,0.0,0.0,0.0,0.0,0.0,0.0,0.0,0.0,0.0,0.0,0.0,0.0,0.0,0.0,0.0,0.0,0.0,0.0,0.0,0.0,0.0,0.0,0.0,0.0,0.0,0.0,0.0,0.0,0.0,10.3234,10.985,12.1206,12.5255,12.1331,10.8482,9.8327,0.0,0.0,0.0,0.0,0.0,0.0,0.0,0.0,0.0,0.0,0.0,0.0,0.0,0.0,0.0,0.0,0.0,0.0,0.0,0.0,0.0,0.0,0.0,0.0,0.0,0.0,0.0,0.0,0.0,0.0,0.0,0.0,0.0,0.0,0.0,0.0,0.0,0.0,0.0,0.0,0.0,0.0,0.0,0.0,0.0,0.0,0.0,0.0,0.0,0.0,0.0,0.0,0.0,0.0,0.0,0.0,0.0,0.0,0.0,0.0,0.0,0.0,0.0,0.0,0.0,0.0,0.0,0.0,0.0,0.0,0.0,0.0,0.0,0.0,0.0,0.0,0.0,0.0,0.0,0.0,0.0,0.0,0.0,0.0,0.0,0.0,0.0,0.0,0.0,0.0,0.0,0.0,0.0,0.0,0.0,0.0,0.0,0.0,0.0,0.0,0.0,0.0,0.0,0.0,0.0,0.0,0.0,0.0,10.9419,11.6964,12.7746,13.3295,13.2756,12.0523,10.6328,0.0,0.0,0.0,0.0,0.0,0.0,0.0,0.0,0.0,0.0,0.0,0.0,0.0,0.0,0.0,0.0,0.0,0.0,0.0,0.0,0.0,0.0,0.0,0.0,0.0,0.0,0.0,0.0,0.0,0.0,0.0,0.0,0.0,0.0,0.0,0.0,0.0,0.0,0.0,0.0,0.0,0.0,0.0,0.0,0.0,0.0,0.0,0.0,0.0,0.0,0.0,0.0,0.0,0.0,0.0,0.0,0.0,0.0,0.0,0.0,0.0,0.0,0.0,0.0,0.0,0.0,0.0,0.0,0.0,0.0,0.0,0.0,0.0,0.0,0.0,0.0,0.0,0.0,0.0,0.0,0.0,0.0,0.0,0.0,0.0,0.0,0.0,0.0,0.0,0.0,0.0,0.0,0.0,0.0,0.0,0.0,0.0,0.0,0.0,0.0,0.0,0.0,0.0,0.0,0.0,0.0,0.0,0.0,11.3535,12.0515,13.0627,13.5372,13.3987,11.9754,10.8136,0.0,0.0,0.0,0.0,0.0,0.0,0.0,0.0,0.0,0.0,0.0,0.0,0.0,0.0,0.0,0.0,0.0,0.0,0.0,0.0,0.0,0.0,0.0,0.0,0.0,0.0,0.0,0.0,0.0,0.0,0.0,0.0,0.0,0.0,0.0,0.0,0.0,0.0,0.0,0.0,0.0,0.0,0.0,0.0,0.0,0.0,0.0,0.0,8.1767,0.0,0.0,0.0,0.0,0.0,0.0,0.0,0.0,0.0,0.0,0.0,0.0,0.0,0.0,0.0,0.0,0.0,0.0,0.0,0.0,0.0,0.0,0.0,0.0,0.0,0.0,0.0,0.0,0.0,0.0,0.0,0.0,0.0,0.0,0.0,0.0,0.0,0.0,0.0,0.0,0.0,0.0,0.0,0.0,0.0,0.0,0.0,0.0,0.0,0.0,0.0,0.0,0.0,0.0,0.0,0.0,0.0,0.0,0.0,11.7346,12.564,13.3753,13.718,13.5141,12.3716,11.2945,0.0,0.0,0.0,0.0,0.0,0.0,0.0,0.0,0.0,0.0,0.0,0.0,0.0,0.0,0.0,0.0,0.0,0.0,0.0,0.0,0.0,0.0,0.0,0.0,0.0,0.0,0.0,0.0,0.0,0.0,0.0,0.0,0.0,0.0,0.0,0.0,0.0,0.0,0.0,0.0,0.0,0.0,0.0,0.0,0.0,0.0,0.0,0.0,0.0,0.0,0.0,0.0,0.0,0.0,0.0,0.0,0.0,0.0,0.0,0.0,0.0,0.0,0.0,0.0,0.0,0.0,0.0,0.0,0.0,0.0,0.0,0.0,0.0,0.0,0.0,0.0,0.0,0.0,0.0,0.0,0.0,0.0,0.0,0.0,0.0,0.0,0.0,0.0,0.0,0.0,0.0,0.0,0.0,0.0,0.0,0.0,0.0,0.0,0.0,0.0,0.0,0.0,0.0,0.0,0.0,0.0,0.0,10.9608,12.0506,13.1287,13.6804,13.8642,13.6719,12.8679,11.7984,0.0,0.0,0.0,0.0,0.0,0.0,0.0,0.0,0.0,0.0,0.0,0.0,0.0,0.0,0.0,0.0,0.0,0.0,0.0,0.0,0.0,0.0,0.0,0.0,0.0,0.0,0.0,0.0,0.0,0.0,0.0,0.0,0.0,0.0,0.0,0.0,0.0,0.0,0.0,7.6647,7.8978,0.0,0.0,0.0,0.0,0.0,0.0,0.0,0.0,8.1996,0.0,0.0,0.0,0.0,0.0,0.0,0.0,0.0,0.0,0.0,0.0,0.0,0.0,0.0,0.0,0.0,0.0,0.0,0.0,0.0,0.0,0.0,0.0,0.0,0.0,0.0,0.0,0.0,0.0,0.0,0.0,0.0,0.0,0.0,0.0,0.0,0.0,0.0,0.0,0.0,0.0,0.0,0.0,0.0,0.0,0.0,0.0,0.0,0.0,0.0,0.0,0.0,0.0,0.0,0.0,0.0,10.9688,11.28,12.1553,13.6404,13.9165,13.9258,13.6719,12.9256,11.9138,10.6521,0.0,0.0,0.0,0.0,0.0,0.0,0.0,0.0,0.0,0.0,0.0,0.0,0.0,0.0,0.0,0.0,0.0,0.0,0.0,0.0,0.0,0.0,0.0,0.0,0.0,0.0,0.0,0.0,0.0,0.0,0.0,0.0,0.0,0.0,0.0,0.0,0.0,0.0,0.0,8.7192,8.7957,0.0,0.0,0.0,0.0,0.0,0.0,0.0,0.0,8.448,0.0,0.0,0.0,0.0,0.0,0.0,0.0,0.0,0.0,0.0,0.0,0.0,0.0,0.0,0.0,0.0,0.0,0.0,0.0,0.0,0.0,0.0,0.0,0.0,0.0,0.0,0.0,0.0,0.0,0.0,0.0,0.0,0.0,0.0,0.0,0.0,0.0,0.0,0.0,0.0,0.0,0.0,0.0,0.0,0.0,0.0,0.0,0.0,0.0,0.0,0.0,0.0,0.0,0.0,0.0,10.9561,11.7815,12.7602,13.8973,14.0643,14.0065,13.7373,12.8332,11.8292,0.0,0.0,0.0,0.0,0.0,0.0,0.0,0.0,0.0,0.0,0.0,0.0,0.0,0.0,0.0,0.0,0.0,0.0,0.0,0.0,0.0,0.0,0.0,0.0,0.0,0.0,0.0,0.0,0.0,0.0,0.0,0.0,0.0,0.0,0.0,0.0,0.0,0.0,0.0,0.0,9.1013,9.2695,9.6477,0.0,0.0,0.0,0.0,0.0,0.0,8.6619,8.4785,0.0,0.0,0.0,0.0,0.0,0.0,0.0,0.0,0.0,0.0,0.0,0.0,0.0,0.0,0.0,0.0,0.0,0.0,0.0,0.0,0.0,0.0,0.0,0.0,0.0,0.0,0.0,0.0,0.0,0.0,0.0,0.0,0.0,0.0,0.0,0.0,0.0,0.0,0.0,0.0,0.0,0.0,0.0,0.0,0.0,0.0,0.0,0.0,0.0,0.0,0.0,0.0,0.0,0.0,0.0,10.7995,12.1442,13.2487,14.045,14.1681,14.0835,13.7988,12.7371,11.7138,0.0,0.0,0.0,0.0,0.0,0.0,0.0,0.0,0.0,0.0,0.0,0.0,0.0,0.0,0.0,0.0,0.0,0.0,0.0,0.0,0.0,0.0,0.0,0.0,0.0,0.0,0.0,0.0,0.0,0.0,0.0,0.0,0.0,0.0,0.0,0.0,0.0,0.0,0.0,0.0,0.0,9.6783,10.0069,9.6133,0.0,0.0,0.0,0.0,8.9409,8.9447,0.0,0.0,0.0,0.0,0.0,0.0,0.0,0.0,0.0,0.0,0.0,0.0,0.0,0.0,0.0,0.0,0.0,0.0,0.0,0.0,0.0,0.0,0.0,0.0,0.0,0.0,0.0,0.0,0.0,0.0,0.0,0.0,0.0,0.0,0.0,0.0,0.0,0.0,0.0,0.0,0.0,0.0,0.0,0.0,0.0,0.0,0.0,0.0,0.0,0.0,0.0,0.0,0.0,0.0,0.0,0.0,10.8569,12.0037,13.1025,14.1143,14.2528,14.1412,13.8065,12.7371,11.6869,0.0,0.0,0.0,0.0,0.0,0.0,0.0,0.0,0.0,0.0,0.0,0.0,0.0,0.0,0.0,0.0,0.0,0.0,0.0,0.0,0.0,0.0,0.0,0.0,0.0,0.0,0.0,0.0,0.0,0.0,0.0,0.0,0.0,0.0,0.0,0.0,0.0,0.0,0.0,0.0,0.0,10.0031,10.0527,9.8158,9.5637,0.0,0.0,9.6363,9.8655,10.3202,0.0,0.0,0.0,0.0,0.0,0.0,0.0,0.0,0.0,0.0,0.0,0.0,0.0,0.0,0.0,0.0,0.0,0.0,0.0,0.0,0.0,0.0,0.0,0.0,0.0,0.0,0.0,0.0,0.0,0.0,0.0,0.0,0.0,0.0,0.0,0.0,0.0,0.0,0.0,0.0,0.0,0.0,0.0,0.0,0.0,0.0,0.0,0.0,0.0,0.0,0.0,0.0,0.0,0.0,0.0,0.0,11.0379,12.5042,13.6065,14.2972,14.3181,14.172,13.8834,12.5293,11.4368,0.0,0.0,0.0,0.0,0.0,0.0,0.0,0.0,0.0,0.0,0.0,0.0,0.0,0.0,0.0,0.0,0.0,0.0,0.0,0.0,0.0,0.0,0.0,0.0,0.0,0.0,0.0,0.0,0.0,0.0,0.0,0.0,0.0,0.0,0.0,0.0,0.0,0.0,0.0,0.0,0.0,0.0,10.473,10.4004,0.0,0.0,0.0,10.0489,10.0604,0.0,0.0,0.0,0.0,0.0,0.0,0.0,0.0,0.0,0.0,0.0,0.0,0.0,0.0,0.0,0.0,0.0,0.0,0.0,0.0,0.0,0.0,0.0,0.0,0.0,0.0,0.0,0.0,0.0,0.0,0.0,0.0,0.0,0.0,0.0,0.0,0.0,0.0,0.0,0.0,0.0,0.0,0.0,0.0,0.0,0.0,0.0,0.0,0.0,0.0,0.0,0.0,0.0,0.0,0.0,0.0,0.0,11.1575,12.9238,14.0258,14.3934,14.3682,14.2027,13.8873,12.5447,0.0,0.0,0.0,0.0,0.0,0.0,0.0,0.0,0.0,0.0,0.0,0.0,0.0,0.0,0.0,0.0,0.0,0.0,0.0,0.0,0.0,0.0,0.0,0.0,0.0,0.0,0.0,6.1132,0.0,0.0,0.0,0.0,0.0,0.0,0.0,0.0,0.0,0.0,0.0,0.0,0.0,0.0,10.5227,10.7558,10.8972,10.985,0.0,0.0,10.5533,10.5112,10.943,10.8246,0.0,0.0,0.0,0.0,0.0,0.0,0.0,0.0,0.0,0.0,0.0,0.0,0.0,0.0,0.0,0.0,0.0,0.0,0.0,0.0,0.0,0.0,0.0,0.0,0.0,0.0,0.0,0.0,0.0,0.0,0.0,0.0,0.0,0.0,0.0,0.0,0.0,0.0,0.0,0.0,0.0,0.0,0.0,0.0,0.0,0.0,0.0,0.0,0.0,0.0,0.0,0.0,0.0,0.0,0.0,11.1806,12.9826,14.0504,14.3088,14.3895,14.2374,13.8219,13.0217,11.8985,0.0,0.0,0.0,0.0,0.0,0.0,0.0,0.0,0.0,0.0,0.0,0.0,0.0,0.0,0.0,0.0,0.0,0.0,0.0,0.0,0.0,0.0,0.0,0.0,0.0,0.0,0.0,0.0,0.0,0.0,0.0,0.0,0.0,0.0,0.0,0.0,0.0,0.0,0.0,0.0,0.0,10.5036,10.6755,11.1035,11.5161,0.0,0.0,11.3595,11.6575,12.3758,12.2039,10.0986,0.0,0.0,0.0,0.0,0.0,0.0,0.0,0.0,0.0,0.0,0.0,0.0,0.0,0.0,0.0,0.0,0.0,0.0,0.0,0.0,0.0,0.0,0.0,0.0,0.0,0.0,0.0,0.0,0.0,0.0,0.0,0.0,0.0,0.0,0.0,0.0,0.0,0.0,0.0,0.0,0.0,0.0,0.0,0.0,0.0,0.0,0.0,0.0,0.0,0.0,0.0,0.0,0.0,10.356,11.2269,12.9585,14.0311,14.372,14.372,14.1874,13.8181,13.0179,11.9215,0.0,0.0,0.0,0.0,0.0,0.0,0.0,0.0,0.0,0.0,0.0,0.0,0.0,0.0,0.0,0.0,0.0,0.0,0.0,0.0,0.0,0.0,0.0,0.0,0.0,0.0,0.0,0.0,7.5456,7.6625,7.4113,0.0,0.0,0.0,0.0,0.0,0.0,0.0,0.0,0.0,0.0,10.9048,11.5314,11.7874,0.0,0.0,11.9135,11.7339,11.8142,11.967,11.5582,10.0527,9.4758,0.0,0.0,0.0,0.0,0.0,0.0,0.0,0.0,0.0,0.0,0.0,0.0,0.0,0.0,0.0,0.0,0.0,0.0,0.0,0.0,0.0,0.0,0.0,0.0,0.0,0.0,0.0,0.0,0.0,0.0,0.0,0.0,0.0,0.0,0.0,0.0,0.0,0.0,0.0,0.0,0.0,0.0,0.0,0.0,0.0,0.0,0.0,0.0,0.0,0.0,0.0,0.0,10.3676,11.2652,12.9469,14.0042,14.3951,14.3412,14.1373,13.7719,13.1179,12.1293,0.0,0.0,0.0,0.0,0.0,0.0,0.0,0.0,0.0,0.0,0.0,0.0,0.0,0.0,0.0,0.0,0.0,0.0,0.0,0.0,0.0,0.0,0.0,0.0,0.0,0.0,0.0,0.0,7.9561,7.9505,7.5047,0.0,0.0,0.0,0.0,0.0,0.0,0.0,0.0,0.0,0.0,11.3174,11.9555,12.0931,12.1389,12.1733,11.8982,11.7034,11.7454,11.6231,11.1723,10.133,0.0,0.0,0.0,0.0,0.0,0.0,0.0,0.0,0.0,0.0,0.0,0.0,0.0,0.0,0.0,0.0,0.0,0.0,0.0,0.0,0.0,0.0,0.0,0.0,0.0,0.0,0.0,0.0,0.0,0.0,7.2469,0.0,0.0,0.0,0.0,0.0,0.0,0.0,0.0,0.0,0.0,0.0,0.0,0.0,0.0,0.0,0.0,0.0,0.0,0.0,0.0,0.0,0.0,0.0,11.2729,12.9431,13.9734,14.3005,14.3121,14.1066,13.6988,13.418,12.6409,11.2791,0.0,0.0,0.0,0.0,0.0,0.0,0.0,0.0,0.0,0.0,0.0,0.0,0.0,0.0,0.0,0.0,0.0,0.0,0.0,0.0,0.0,0.0,0.0,0.0,0.0,0.0,7.4014,7.5019,7.49,0.0,0.0,0.0,0.0,0.0,0.0,0.0,0.0,0.0,0.0,10.7825,11.6804,11.7148,11.8524,11.9403,11.8715,11.4359,11.2143,11.5352,11.6308,11.3786,0.0,0.0,0.0,0.0,0.0,0.0,0.0,0.0,0.0,0.0,0.0,0.0,0.0,0.0,0.0,0.0,0.0,0.0,0.0,0.0,0.0,0.0,0.0,0.0,0.0,0.0,0.0,8.5036,8.2333,0.0,0.0,0.0,0.0,0.0,0.0,0.0,0.0,0.0,0.0,0.0,9.5607,9.6243,0.0,0.0,0.0,0.0,0.0,0.0,0.0,0.0,0.0,0.0,0.0,0.0,10.4253,11.2999,12.8843,13.8873,14.2143,14.2297,14.0527,13.6911,13.4911,12.6678,11.1522,0.0,0.0,0.0,0.0,0.0,0.0,0.0,0.0,0.0,0.0,0.0,0.0,0.0,0.0,0.0,0.0,0.0,0.0,0.0,0.0,0.0,0.0,0.0,0.0,0.0,7.7438,0.0,0.0,0.0,0.0,0.0,0.0,0.0,0.0,0.0,0.0,0.0,9.2809,10.1215,10.7902,11.3404,11.7301,11.8791,12.0167,0.0,0.0,0.0,0.0,0.0,0.0,0.0,0.0,0.0,0.0,0.0,0.0,0.0,0.0,10.3317,8.937,8.6581,8.6543,8.7078,0.0,0.0,0.0,0.0,0.0,0.0,0.0,0.0,0.0,0.0,0.0,0.0,0.0,0.0,0.0,0.0,8.9117,0.0,0.0,0.0,0.0,0.0,0.0,0.0,0.0,9.8401,10.2861,10.5394,10.596,10.5029,0.0,9.9091,9.2025,0.0,0.0,0.0,0.0,0.0,0.0,0.0,0.0,10.4983,11.3416,12.8766,13.8296,14.1258,14.145,14.0104,13.7296,13.418,12.6601,11.4099,10.5905,9.7788,0.0,0.0,0.0,0.0,0.0,0.0,0.0,0.0,0.0,0.0,0.0,0.0,0.0,0.0,0.0,0.0,0.0,0.0,0.0,0.0,0.0,0.0,0.0,8.0254,0.0,0.0,0.0,0.0,0.0,0.0,0.0,0.0,0.0,8.6503,9.2656,9.9954,10.7749,11.1684,11.4474,11.6269,0.0,0.0,0.0,0.0,0.0,0.0,0.0,10.58,10.4425,10.3164,10.282,10.4425,10.9965,11.3633,11.1875,0.0,0.0,10.0336,9.7394,9.7318,9.7815,9.9266,10.0489,10.0795,10.3087,10.4883,0.0,0.0,0.0,0.0,0.0,0.0,0.0,0.0,10.0263,9.9234,0.0,9.682,0.0,0.0,0.0,0.0,0.0,0.0,0.0,0.0,11.3008,11.7828,11.4339,11.4693,11.4028,11.2324,11.0217,10.6237,10.0211,8.909,0.0,0.0,0.0,0.0,0.0,0.0,10.6518,11.4478,12.914,13.7988,14.045,14.0527,13.9719,13.795,13.2333,12.6524,12.0754,11.6292,10.9098,9.8365,9.1496,0.0,0.0,0.0,0.0,0.0,0.0,0.0,0.0,0.0,0.0,0.0,0.0,0.0,0.0,0.0,0.0,0.0,0.0,0.0,0.0,8.2529,0.0,0.0,0.0,0.0,0.0,0.0,0.0,0.0,0.0,0.0,9.4032,10.1292,10.8704,11.348,0.0,0.0,0.0,0.0,11.5964,10.9927,10.8016,10.794,10.8972,11.0806,11.2449,11.3327,0.0,0.0,11.7874,11.818,11.7989,11.4665,11.902,12.1084,11.6881,11.2525,10.9927,10.9889,11.0041,11.0309,11.1226,11.3977,11.6155,11.0635,0.0,0.0,0.0,0.0,10.241,10.6311,11.2565,11.29,11.086,10.7118,10.656,0.0,0.0,0.0,0.0,0.0,0.0,10.2362,10.9693,11.5187,11.9977,12.4218,12.4204,12.3799,12.2993,11.987,11.6842,11.3737,10.8127,9.7214,8.167,0.0,0.0,0.0,0.0,10.9944,11.9453,13.0306,13.7103,13.9604,13.9642,13.8873,13.7219,13.1987,12.8102,12.5755,12.1639,11.5445,10.6944,10.0634,0.0,0.0,0.0,0.0,0.0,0.0,0.0,0.0,0.0,0.0,0.0,0.0,0.0,0.0,0.0,0.0,0.0,0.0,0.0,7.8938,8.1798,8.2304,0.0,0.0,0.0,0.0,0.0,0.0,0.0,0.0,0.0,10.7711,10.7443,10.7672,0.0,0.0,11.1111,10.8246,11.2754,11.6804,11.7874,11.7836,0.0,0.0,11.8753,11.7377,11.9976,12.4331,12.7082,12.6127,12.8152,12.9604,12.8496,12.9834,13.0368,12.8496,12.437,12.1275,12.116,12.2039,12.2918,12.3338,12.5478,12.7121,12.3518,11.6764,10.9065,10.7933,11.126,11.2002,11.6101,12.2269,12.2308,12.0434,11.7263,11.6401,10.9795,9.9124,9.6643,0.0,0.0,0.0,10.9063,11.7859,11.9888,12.3788,12.8827,12.8945,12.8675,12.8132,12.5441,12.3436,12.2135,11.8097,10.9237,9.5845,0.0,0.0,9.4872,10.4792,11.406,12.2532,13.1114,13.6463,13.8219,13.8296,13.768,13.6257,13.2987,13.0794,12.991,12.6524,12.1716,11.5484,10.8888,10.0975,0.0,0.0,0.0,0.0,0.0,0.0,0.0,0.0,0.0,0.0,0.0,7.3206,0.0,0.0,0.0,0.0,7.7062,8.1177,8.3324,8.5335,0.0,0.0,0.0,0.0,0.0,0.0,0.0,9.756,10.4807,11.1174,11.5773,11.4359,11.3709,11.5887,11.562,11.4435,11.2449,0.0,12.0778,12.2306,12.2803,12.3835,12.6127,12.4446,12.4026,12.7694,13.0598,13.247,13.2623,13.4304,13.5412,13.5221,13.5145,13.4953,13.4419,13.1782,12.9413,12.8534,12.9642,13.0751,13.0827,13.2317,13.3425,13.3981,13.2643,11.8502,11.5301,11.9614,12.1254,12.4611,12.8945,12.8984,12.8008,12.6251,12.5323,11.977,11.0813,10.5095,0.0,0.0,11.2619,11.7313,12.387,12.6368,12.8398,12.9999,13.0272,13.0123,12.9566,12.8171,12.7219,12.6547,12.191,11.78,11.4401,10.9382,10.658,10.6363,11.2155,11.8292,12.437,13.1372,13.5526,13.6757,13.6719,13.6296,13.5411,13.4487,13.3564,13.2641,13.0294,12.714,12.3024,11.6061,10.8683,10.1135,0.0,0.0,0.0,0.0,0.0,0.0,0.0,0.0,0.0,0.0,0.0,0.0,0.0,0.0,0.0,8.5555,0.0,9.1748,9.1831,0.0,0.0,0.0,9.1644,9.6786,10.1455,10.5848,10.9744,0.0,0.0,11.9937,12.1542,12.414,12.8382,12.7006,12.4752,12.2421,12.479,12.6471,12.4561,12.4981,12.5898,12.7617,12.9069,13.1515,13.4992,13.6711,13.6788,13.6749,13.6749,13.6635,13.5985,13.5909,13.587,13.587,13.5565,13.5183,13.2699,13.3502,13.461,13.4533,13.5106,13.5641,13.6206,13.5308,13.1628,13.0467,13.1014,13.1443,13.2341,13.3434,13.3473,13.1755,12.8788,12.7266,12.3518,11.82,11.6061,11.6529,11.9058,12.1,12.381,12.7305,12.9296,13.074,13.1794,13.2497,13.2659,13.2197,13.1234,13.0693,13.0456,12.7985,12.4831,12.1123,11.8726,11.4853,10.9847,11.335,11.9177,12.6948,12.9424,13.2705,13.6617,13.6142,13.5411,13.4603,13.2526,13.0987,13.0102,12.8294,12.6217,12.387,11.9642,11.4418,10.8021,9.5935,0.0,0.0,0.0,0.0,0.0,0.0,0.0,0.0,0.0,7.9169,7.0014,0.0,8.0792,0.0,8.8517,9.4711,9.7673,9.7866,0.0,0.0,10.1362,10.232,10.8004,11.0724,11.2695,11.4311,11.8791,12.2688,12.5019,12.6739,12.9337,13.3349,12.8191,12.3682,12.3147,12.6433,12.9299,13.0025,13.2164,13.438,13.4992,13.6405,13.7399,13.8545,13.7819,13.7093,13.7093,13.6558,13.61,13.5947,13.5909,13.5909,13.5909,13.5909,13.5718,13.5145,13.5336,13.5603,13.5603,13.5756,13.5909,13.7806,13.7377,13.7338,13.7338,13.7221,13.644,13.6128,13.6089,13.5698,13.402,13.1355,12.8905,12.6251,12.3635,12.2776,12.3089,12.4416,12.5353,12.6993,12.9101,13.0467,13.156,13.2419,13.3122,13.3245,13.281,13.2191,13.1566,13.0938,13.0001,12.8144,12.5492,12.4586,12.1868,11.763,11.6781,11.9677,12.6101,12.859,13.1897,13.5988,13.5372,13.368,13.0987,12.9179,12.6755,12.3639,12.1562,12.0023,11.9023,11.5831,11.183,10.6982,9.7635,8.9678,0.0,0.0,0.0,0.0,0.0,0.0,0.0,0.0,0.0,0.0,0.0,8.5892,8.773,9.4944,10.0558,10.3251,10.4441,10.6633,11.0483,11.0627,11.2613,11.8144,11.9993,12.1654,12.36,12.6491,12.9009,13.0789,13.182,13.3196,13.5603,13.1859,12.9031,12.9528,13.1553,13.3387,13.4762,13.6482,13.7666,13.7819,13.8507,13.8927,13.8545,13.8048,13.7552,13.717,13.6749,13.6329,13.5985,13.5909,13.5909,13.5909,13.5909,13.5909,13.5909,13.5909,13.5909,13.5909,13.5909,13.5909,13.8782,13.8782,13.8782,13.9251,13.9797,13.8314,13.7611,13.7455,13.6674,13.5308,13.3317,13.0233,12.8359,12.75,12.668,12.6758,12.7539,12.7539,12.8476,13.0155,13.0896,13.1716,13.2575,13.3044,13.3005,13.2575,13.2263,13.1521,13.0311,13.0194,12.9395,12.7968,12.7484,12.6648,12.5253,12.0564,12.0153,12.4148,12.8391,13.1999,13.4988,13.3834,13.0833,12.614,12.4909,12.1754,11.6138,11.3714,11.2445,11.2137,10.952,10.672,10.3788,9.7976,9.2066,0.0,8.2247,0.0,0.0,0.0,0.0,0.0,0.0,0.0,0.0,9.0556,9.3139,9.7844,10.3318,10.7405,10.9444,11.1945,11.4714,11.7753,11.9622,12.2407,12.6671,12.8362,13.0299,13.3285,13.4198,13.4915,13.5374,13.5832,13.587,13.587,13.5565,13.545,13.6788,13.6673,13.6864,13.8201,13.8278,13.7857,13.7552,13.7857,13.8048,13.7513,13.759,13.7857,13.717,13.6979,13.6673,13.6062,13.5909,13.5909,13.5909,13.5909,13.5909,13.5909,13.5794,13.5679,13.5679,13.5679,13.5718,13.8782,13.8782,13.8782,13.8899,13.9016,13.8704,13.8158,13.7494,13.7338,13.5503,13.2614,13.1209,13.0116,12.9257,12.8398,12.8515,12.9296,12.9296,13.0272,13.1911,13.2068,13.2614,13.3434,13.359,13.3551,13.3434,13.3395,13.3239,13.2966,13.2263,13.0254,12.7091,12.607,12.4631,12.274,0.0,0.0,0.0,12.8684,13.1498,13.2637,12.9036,12.5293,12.1639,12.0023,0.0,11.2714,11.1983,11.106,10.9713,10.9666,0.0,0.0,0.0,0.0,0.0,0.0,0.0,0.0,0.0,0.0,0.0,9.9865,9.8096,9.5326,10.0519,10.5361,10.8408,11.212,11.5907,11.9677,12.2331,12.4601,12.6601,12.8871,13.0705,13.1548,13.2307,13.3057,13.3476,13.4236,13.4648,13.4915,13.545,13.5909,13.5909,13.5909,13.652,13.7896,13.6979,13.6788,13.801,13.7896,13.7628,13.8048,13.7666,13.759,13.7819,13.7017,13.6673,13.694,13.652,13.6176,13.5909,13.5909,13.5909,13.5909,13.5909,13.5909,13.5909,13.5374,13.4839,13.4839,13.4839,13.461,13.8782,0.0,13.8782,13.8782,0.0,13.8782,13.8314,13.7455,13.7026,13.5191,13.2419,13.1951,13.1287,13.0389,12.9999,13.0038,13.0467,13.0428,13.1131,13.238,13.238,13.2848,13.3707,13.3707,13.3707,13.3707,13.3707,13.3473,13.3044,13.2614,13.107,12.8454,12.7987,12.7306,12.6452,12.7153,12.7518,12.7372,12.958,13.198,13.4468,13.151,12.7563,12.3024,0.0,0.0,0.0,0.0,0.0,0.0,0.0,0.0,0.0,0.0,0.0,10.4403,10.202,10.152,10.3558,10.4905,10.7444,11.1637,11.356,11.1834,10.5524,11.0487,11.517,11.8106,11.993,12.2293,12.564,12.786,12.9386,13.0347,13.2125,13.3381,13.3746,13.4053,13.4357,13.4695,13.5054,13.5221,13.5221,13.5603,13.587,13.5909,13.5909,13.6329,13.7399,13.7055,13.6979,13.8201,13.8087,13.7705,13.7705,13.7437,13.7017,13.7055,13.6444,13.6138,13.6444,13.6176,13.5909,13.5909,13.5909,13.5909,13.5909,13.5909,13.5909,13.587,13.5527,13.5068,13.4724,13.4266,13.3998,13.8782,13.8782,13.8782,13.8782,13.8782,13.8782,13.8314,13.7416,0.0,0.0,0.0,13.2614,13.2107,13.156,13.1248,13.1209,13.1326,13.1326,13.1872,13.2848,13.2848,13.3317,13.4137,13.4137,13.4059,13.3941,13.3902,13.3473,13.2653,13.2614,13.1975,13.0789,13.0923,13.1114,13.1435,13.3356,13.3376,13.1359,13.0864,13.2503,13.6203,13.4012,13.0179,12.4832,12.2408,11.783,11.0944,10.9329,10.779,10.6097,10.618,10.6449,10.6912,10.8398,10.9458,10.9936,11.1368,11.3253,11.5638,11.7215,11.9292,12.21,12.5063,12.3772,11.6781,11.9691,12.3091,12.6041,12.6283,12.7255,12.964,13.1154,13.2009,13.2163,13.3363,13.4378,13.4931,13.4924,13.513,13.5756,13.5832,13.5909,13.587,13.587,13.5909,13.5909,13.5909,13.61,13.6711,13.6979,13.7246,13.7896,13.7934,13.7819,13.7322,13.7093,13.6788,13.6176,13.5947,13.587,13.5718,13.5794,13.5832,13.5603,13.5756,13.5909,13.5909,13.5909,13.5909,13.5909,13.5756,13.5488,13.4724,13.3922,13.3502,13.8782,13.8782,13.8782,13.8782,13.8782,13.8782,13.8314,13.7377,13.5854,13.5347,13.5542,13.3356,13.2731,13.3239,13.1755,13.1521,13.2185,13.2224,13.3083,0.0,13.4644,13.5074,13.5815,13.5854,13.5464,13.4839,13.48,13.4371,13.359,13.3512,13.3245,13.2819,13.2819,13.2837,13.2925,13.3694,13.4482,13.5287,13.2631,13.1831,13.282,12.8833,12.5216,12.2254,12.0562,11.7253,11.2599,11.2214,11.1214,10.9598,11.0217,11.1568,11.3728,11.474,11.627,11.8362,11.9446,12.0793,12.2562,12.3601,12.587,12.9679,13.1256,12.9921,12.5504,12.6804,12.8486,12.9667,12.9756,13.0487,13.2256,13.3243,13.4037,13.4621,13.5565,13.6104,13.5888,13.5827,13.5804,13.587,13.5909,13.5909,13.5909,13.5909,13.5909,13.5909,13.5794,13.5947,13.6176,13.6673,13.7055,13.7271,13.7246,13.7208,13.7017,13.7055,13.6711,13.6023,13.5909,13.5679,13.5106,13.5488,13.5641,13.4953,13.545,13.5832,13.5909,13.5909,13.5909,13.587,13.545,13.4877,13.4686,13.3998,13.3234,13.8782,13.8782,13.8782,13.8782,13.8782,13.8782,13.8548,13.8041,13.6401,13.5581,13.5386,13.3785,13.3317,13.3668,13.3356,13.3434,13.3824,13.4254,13.4878,13.562,13.5659,13.5815,13.6167,13.6206,13.6011,13.5659,13.5191,13.48,13.441,13.3941,13.3531,13.321,13.319,13.3287,13.3527,13.4202,13.4978,13.5844,13.4562,13.4343,13.518,13.241,13.0102,12.8525,12.6832,12.4601,12.1793,12.0754,11.9523,11.7792,11.8138,11.8876,12.0005,12.1284,12.2725,12.4273,12.5245,12.6447,12.8102,12.9487,13.1064,13.2949,13.3487,13.291,13.1037,13.1525,13.2141,13.2526,13.2564,13.2833,13.3641,13.4291,13.4873,13.5163,13.5797,13.6177,13.5995,13.5995,13.5933,13.5909,13.5909,13.5909,13.5909,13.5909,13.5909,13.587,13.5565,13.5374,13.5794,13.5794,13.5947,13.6329,13.6444,13.6444,13.6482,13.6444,13.6291,13.5947,13.5909,13.5718,13.5336,13.5718,13.5679,13.5412,13.5641,13.587,13.5909,13.5909,13.5909,13.587,13.5641,13.5336,13.5183,13.461,13.3616,13.8782,13.8782,13.8782,13.8782,13.8782,13.8782,13.8704,13.8353,13.6869,13.5776,13.4917,13.4098,13.3785,13.4059,13.4527,13.48,13.5035,13.5425,13.5815,13.6206,13.6206,13.6284,13.6518,13.6674,13.6674,13.644,13.5854,13.5386,13.4956,13.4332,13.3778,13.3344,13.3305,13.3449,13.3707,13.4566,13.5269,13.5793,13.6078,13.6703,13.7579,13.6515,13.5487,13.4564,13.3218,13.1756,13.0102,12.8794,12.7409,12.5947,12.5832,12.5919,12.6167,12.7371,12.8463,12.927,12.9936,13.091,13.2218,13.3718,13.4564,13.4564,13.4757,13.4872,13.4872,13.4872,13.468,13.4411,13.4218,13.4295,13.4564,13.4944,13.5222,13.5357,13.5696,13.5995,13.5909,13.5909,13.5909,13.5909,13.5909,13.5909,13.5909,13.5909,13.5909,13.5794,13.5145,13.4992,13.5603,13.5145,13.4992,13.5641,13.6023,13.6253,13.6113,13.6253,13.6138,13.5985,13.5909,13.5756,13.5641,13.5679,13.5756,13.5603,13.5756,13.587,13.5909,13.5909,13.5909,13.5909,13.5832,13.587,13.5794,13.5336,13.4457,13.8782,13.8782,13.8782,13.8782,13.8782,13.8782,13.8353,13.7611,13.6596,13.5737,13.4996,13.4098,13.4137,13.4722,13.4176,13.4332,13.4917,13.4254,13.4839,13.6167,13.6206,13.6635,13.7416,13.8158,13.8158,13.7455,13.7221,13.6323,13.5113,13.4878,13.4438,13.3736,13.3647,13.3658,13.3785,13.4566,13.5386,13.6128,13.6658,13.7032,13.7297,13.7251,13.6594,13.5411,13.5257,13.4372,13.2756,13.2487,13.1987,13.1102,13.091,13.1345,13.201,13.2307,13.2756,13.3526,13.3718,13.391,13.4103,13.4911,13.5449,13.5449,13.618,13.6565,13.6565,13.6565,13.5911,13.482,13.4411,13.4718,13.5295,13.5435,13.5543,13.5894,13.6066,13.6139,13.5895,13.5909,13.5909,13.5909,13.5909,13.5909,13.5909,13.5909,13.5909,13.5909,13.5145,13.4915,13.5641,13.5183,13.4915,13.5756,13.6444,13.6826,13.6826,13.694,13.6558,13.6023,13.5909,13.5679,13.5336,13.5488,13.5718,13.5412,13.5488,13.587,13.5909,13.5909,13.5909,13.5909,13.5909,13.5909,13.5909,13.5794,13.5259,13.847,13.808,13.8587,13.8782,13.8782,13.8782,13.8587,13.8158,13.6791,13.6011,13.5581,13.4293,13.3902,13.4215,13.4371,13.4683,13.5035,13.5659,13.6284,13.6986,13.7494,13.7923,13.8275,13.8626,13.8587,13.8158,13.7221,13.6362,13.5659,13.4722,13.4059,13.3746,13.3707,13.3707,13.3785,13.4566,13.5425,13.6206,13.694,13.7644,13.826,13.8176,13.7721,13.7117,13.7026,13.6757,13.6026,13.5526,13.5065,13.468,13.4218,13.4064,13.4423,13.4026,13.3949,13.4282,13.4795,13.5449,13.6488,13.6873,13.7219,13.7719,13.8065,13.8296,13.8272,13.7834,13.7257,13.668,13.6065,13.5911,13.6142,13.5636,13.5355,13.551,13.5412,13.5269,13.5145,13.5603,13.5909,13.5909,13.5909,13.5909,13.5909,13.5909,13.5909,13.5794,13.5145,13.4953,13.5679,13.5145,13.503,13.5718,13.6214,13.6329,13.6405,13.6405,13.6253,13.6023,13.5909,13.5679,13.5565,13.5565,13.5756,13.5374,13.5679,13.587,13.5909,13.5909,13.5909,13.5909,13.5947,13.6023,13.652,13.6214,13.5909,13.8431,13.8002,13.8548,13.8782,13.8782,13.8782,13.8665,13.8314,13.7104,13.6323,13.5737,13.4566,13.3902,13.3824,13.4371,13.4878,13.5425,13.6362,13.6947,13.7182,13.7806,13.8041,13.808,13.8353,13.8431,13.8236,13.7182,13.644,13.6089,13.48,13.4176,13.4332,13.4371,13.441,13.4449,13.5074,13.5737,13.6557,13.7182,13.7974,13.8689,13.8793,13.8551,13.817,13.8334,13.8334,13.8104,13.768,13.7488,13.745,13.6873,13.6526,13.6502,13.5949,13.568,13.5704,13.6219,13.7065,13.8373,13.8411,13.8681,13.9219,13.9296,13.9296,13.9195,13.8719,13.8334,13.8002,13.7296,13.6757,13.6666,13.5948,13.5434,13.5376,13.51,13.5016,13.503,13.5565,13.5909,13.5909,13.5909,13.5909,13.5909,13.5909,13.5909,13.5832,13.5183,13.4915,13.5565,13.5221,13.4915,13.5718,13.5909,13.5909,13.5909,13.5985,13.5909,13.5909,13.5909,13.5909,13.5909,13.5909,13.5909,13.5679,13.5832,13.5909,13.5909,13.5909,13.5909,13.5909,13.5947,13.6062,13.6444,13.6176,13.6214,13.8782,13.8743,13.8782,13.8782,13.8782,13.8782,13.8353,13.7728,13.7455,13.6596,13.5347,13.4996,13.4488,13.3785,13.3902,13.4644,13.5893,13.5464,13.5698,13.6362,13.6479,13.6362,13.6362,13.7143,13.7611,13.7806,13.7494,13.6947,13.6206,13.5347,13.5347,13.6011,13.5932,13.6011,13.5971,13.6089,13.6596,13.726,13.7494,13.7835,13.837,13.887,13.8803,13.826,13.8834,13.8834,13.8334,13.8796,13.9181,13.9181,13.9065,13.9027,13.908,13.895,13.8873,13.895,13.8988,13.9104,13.9258,13.9296,13.9335,13.9373,13.9527,13.9373,13.9527,13.9373,13.895,13.8195,13.7411,13.6858,13.658,13.6084,13.5951,13.5986,13.6003,13.588,13.5794,13.587,13.5909,13.5909,13.5909,13.5909,13.5909,13.5909,13.5909,13.5756,13.5183,13.4953,13.5565,13.5183,13.5145,13.5641,13.5909,13.5909,13.5909,13.5718,13.5756,13.5794,13.5718,13.5832,13.587,13.5909,13.587,13.5909,13.5909,13.5909,13.5909,13.5909,13.5909,13.5909,13.5909,13.6062,13.6214,13.6023,13.6023,13.8782,13.8782,13.8782,13.8782,13.8782,13.8782,13.8626,13.8275,13.7728,13.7182,13.6557,13.6011,13.5308,13.4566,13.4527,13.4839,13.5386,13.5113,13.5737,13.6908,13.7026,13.7338,13.7884,13.8197,13.8314,13.8275,13.7767,13.7026,13.6245,13.5893,13.5893,13.6128,13.6206,13.6206,13.6284,13.6752,13.7221,13.7533,13.8002,13.8587,13.9123,13.9856,13.9699,13.8532,13.8953,13.9181,13.8873,13.9681,14.0142,14.0142,14.0142,14.0142,14.0065,13.9588,13.955,13.9989,13.9604,13.9796,14.0719,14.045,14.0373,14.0912,14.0989,14.0912,14.0873,14.045,13.9796,13.8911,13.7903,13.7139,13.6315,13.5452,13.5165,13.5969,13.6057,13.5971,13.5985,13.6329,13.6482,13.6062,13.5909,13.5909,13.5909,13.5909,13.5909,13.587,13.5603,13.5603,13.5756,13.5565,13.5527,13.5794,13.5909,13.5909,13.5909,13.5336,13.5106,13.5259,13.5336,13.5297,13.5336,13.5259,13.5183,13.5832,13.5909,13.5832,13.5794,13.5718,13.5718,13.5794,13.5794,13.5909,13.5909,13.5909,13.5909,13.8782,13.8782,13.8782,13.8782,13.8782,13.8782,13.8782,13.8743,13.8197,13.7767,13.7377,13.6596,13.5776,13.5035,13.4722,13.4761,13.5035,13.5269,13.6011,13.7065,13.7377,13.7806,13.8275,13.8392,13.8353,13.8236,13.7494,13.6869,13.6674,13.6635,13.6791,13.7026,13.7026,13.7026,13.7182,13.7884,13.8236,13.8197,13.9056,13.9719,13.9903,14.0498,14.0453,13.9569,13.9798,13.9771,13.9388,14.0412,14.1181,14.1373,14.1412,14.1527,14.172,14.128,14.105,14.1296,14.0643,14.0604,14.1566,14.1104,14.095,14.1797,14.1912,14.1912,14.1874,14.1373,14.0527,13.9434,13.8364,13.7407,13.643,13.5145,13.4878,13.6237,13.6378,13.6405,13.6711,13.7208,13.7093,13.652,13.6329,13.6214,13.5947,13.5909,13.5909,13.5909,13.5909,13.5909,13.5909,13.5909,13.5909,13.5909,13.5909,13.5909,13.5756,13.5259,13.5183,13.5297,13.4495,13.4533,13.4915,13.4762,13.4877,13.5565,13.5832,13.5756,13.5641,13.5527,13.5527,13.5565,13.5756,13.5909,13.5909,13.5909,13.5832,13.8782,13.8782,13.8782,13.8782,13.8782,13.8782,13.8782,13.8782,13.8743,13.8275,13.7611,13.6674,13.5893,13.5035,13.4371,13.4254,13.5035,13.5737,13.6167,13.6401,13.7065,13.7455,13.7611,13.7767,13.7806,13.7728,13.6752,13.6791,13.7494,13.7533,13.7884,13.8587,13.8665,13.8587,13.8704,13.9407,13.9602,13.9329,14.0422,14.0929,14.0333,14.0884,14.1061,14.0916,14.1377,14.105,13.9646,14.1043,14.2274,14.2951,14.3028,14.3489,14.3951,14.4028,14.3874,14.2989,14.2258,14.1912,14.1835,14.1181,14.1104,14.172,14.1912,14.1912,14.1874,14.1797,14.1143,13.9681,13.8742,13.7858,13.692,13.5854,13.5701,13.6812,13.708,13.7437,13.801,13.8316,13.8087,13.7284,13.7017,13.6749,13.6176,13.5947,13.5947,13.6023,13.5947,13.5909,13.5909,13.5909,13.5909,13.5909,13.5909,13.5909,13.5565,13.5259,13.5412,13.5336,13.4151,13.3578,13.461,13.4877,13.4724,13.5259,13.5832,13.5756,13.5527,13.5412,13.5259,13.5336,13.5603,13.587,13.587,13.5832,13.5679,13.8782,13.8782,13.8782,13.8782,13.8782,13.8782,13.8782,13.8782,13.8782,13.8626,13.8275,13.7494,13.6635,13.5815,13.4956,13.4761,13.5074,13.5815,13.6206,13.6284,13.6557,13.7026,13.7572,13.8119,13.8392,13.8353,13.8119,13.8119,13.8353,13.8431,13.8587,13.886,13.9407,13.9329,13.8977,14.0188,14.0578,13.9992,14.1437,14.214,14.1983,14.265,14.2655,14.2018,14.3019,14.3127,14.1903,14.2616,14.3369,14.4006,14.3989,14.4143,14.4374,14.4395,14.4241,14.3951,14.3181,14.272,14.2643,14.1989,14.1604,14.1835,14.1912,14.1912,14.1912,14.1912,14.1373,14.0335,13.9857,13.9132,13.7658,13.7006,13.6905,13.7365,13.7754,13.8048,13.8469,13.8469,13.8278,13.801,13.7475,13.7246,13.7246,13.6788,13.6176,13.6482,13.6214,13.5909,13.5909,13.5909,13.5909,13.5909,13.5909,13.5909,13.5679,13.5374,13.5259,13.4953,13.3845,13.3196,13.4113,13.461,13.4533,13.4915,13.5488,13.5603,13.5374,13.5297,13.5145,13.5336,13.5718,13.5832,13.5794,13.5718,13.5565,13.8782,13.8782,13.8782,13.8782,13.8821,13.9134,13.9095,13.886,13.9173,13.9095,13.8704,13.8236,13.7689,13.7143,13.6635,13.6401,13.644,13.6674,13.6674,13.683,13.7455,13.7962,13.8509,13.9016,13.929,13.9368,13.9602,13.9602,13.929,13.9602,13.9602,13.9485,14.0149,14.0344,13.9914,14.1086,14.1437,14.0968,14.2257,14.3194,14.335,14.4013,14.4212,14.4004,14.4844,14.5058,14.4576,14.4793,14.5001,14.5105,14.5215,14.5336,14.5336,14.5318,14.5049,14.4412,14.3874,14.3335,14.2758,14.2412,14.2181,14.2027,14.2181,14.2181,14.1989,14.1912,14.1489,14.0758,14.0418,13.9749,13.8502,13.7923,13.7901,13.7961,13.8199,13.866,13.908,13.9309,13.8965,13.8583,13.8163,13.7934,13.7284,13.7131,13.6367,13.6596,13.6214,13.5909,13.5909,13.5909,13.5947,13.5947,13.5909,13.587,13.587,13.5565,13.5183,13.4457,13.3578,13.3311,13.3693,13.3807,13.3807,13.461,13.5259,13.4915,13.4686,13.4992,13.5068,13.545,13.5756,13.5832,13.5832,13.5641,13.545,13.8793,13.8782,13.8782,13.8782,13.8899,13.9563,13.9446,13.9016,13.968,13.9602,13.9016,13.8899,13.886,13.8821,13.8353,13.8236,13.8587,13.7689,13.7572,13.808,13.9016,13.9719,13.9602,13.968,13.968,13.9914,14.0656,14.0695,14.0032,14.0734,14.1007,14.0344,14.1007,14.1398,14.1398,14.2257,14.2335,14.1827,14.3155,14.4052,14.4092,14.4716,14.5419,14.6071,14.6227,14.6432,14.6482,14.6743,14.6743,14.6423,14.6416,14.6451,14.6682,14.6798,14.5759,14.4489,14.4336,14.3566,14.2604,14.2681,14.272,14.222,14.272,14.2797,14.2104,14.1989,14.1758,14.0912,14.0533,14.0037,13.9289,13.8864,13.872,13.8697,13.8749,13.9233,14.057,14.0761,14.0073,13.9118,13.908,13.8851,13.694,13.7055,13.6826,13.652,13.6329,13.6405,13.6329,13.6405,13.61,13.6138,13.6291,13.6138,13.6176,13.5832,13.5412,13.4648,13.3884,13.3769,13.3616,13.3616,13.396,13.4686,13.4877,13.4457,13.4495,13.4992,13.5183,13.5297,13.5565,13.5794,13.5756,13.5565,13.4992,13.8801,13.8782,13.8782,13.8782,13.8821,13.9056,13.9056,13.8938,13.9758,13.9992,13.9719,13.9758,13.9719,13.9602,13.8431,13.8158,13.8587,13.7962,13.8314,13.9368,13.9797,13.968,13.9251,13.9173,13.9212,13.9407,14.0305,14.0305,14.0188,14.1125,14.132,14.1086,14.1905,14.2022,14.171,14.292,14.3155,14.2725,14.4013,14.4872,14.495,14.5146,14.5302,14.5536,14.6278,14.6344,14.5979,14.6757,14.727,14.712,14.6391,14.6028,14.6105,14.5643,14.5182,14.472,14.3912,14.3682,14.3682,14.3412,14.3066,14.2912,14.3528,14.3412,14.2066,14.2451,14.2297,14.1643,14.0917,14.0248,13.9902,13.9685,13.973,14.01,13.9653,13.9691,14.057,14.0876,14.0647,14.0265,13.9768,13.908,13.843,13.7972,13.7781,13.7552,13.7475,13.7399,13.7055,13.6902,13.6596,13.694,13.7055,13.6711,13.6444,13.61,13.5603,13.4877,13.4457,13.438,13.4266,13.4151,13.4724,13.5488,13.503,13.461,13.5106,13.5679,13.5565,13.5297,13.545,13.5679,13.5565,13.5336,13.4457,13.9675,13.9368,13.9719,13.9875,13.9914,13.9914,13.968,13.9563,14.0266,14.0188,13.9836,14.0383,14.0422,14.0032,13.9446,13.9407,13.9758,13.8977,13.9173,13.9797,13.968,13.9485,13.9407,13.9641,13.9914,14.0071,14.1125,14.1515,14.1476,14.2062,14.2257,14.2179,14.2803,14.292,14.2686,14.335,14.3779,14.3467,14.4287,14.5107,14.6161,14.6278,14.6863,14.7215,14.7917,14.7722,14.7113,14.7535,14.7678,14.7252,14.7007,14.6913,14.6721,14.6315,14.6046,14.5951,14.5182,14.499,14.5259,14.4951,14.4566,14.4259,14.4451,14.372,14.272,14.2604,14.2297,14.1874,14.1246,14.0843,14.0648,14.0466,14.0508,14.0711,14.0456,14.0379,14.0876,14.057,14.0188,13.9844,13.9424,13.8736,13.8278,13.7934,13.7705,13.7437,13.7399,13.7322,13.7131,13.717,13.717,13.7361,13.7322,13.6902,13.6673,13.6405,13.6176,13.545,13.4877,13.4839,13.4686,13.4533,13.4762,13.5145,13.4953,13.4992,13.5336,13.5603,13.5527,13.5374,13.5488,13.5145,13.4877,13.4839,13.396,14.0964,14.0305,14.1086,14.1398,14.132,14.1476,14.1086,14.0617,14.1203,14.0773,13.9992,14.0812,14.0929,14.0266,14.0539,14.1164,14.1242,14.0032,13.9797,13.968,13.9329,13.9212,13.9992,14.05,14.089,14.132,14.3037,14.3077,14.2764,14.3389,14.3506,14.3155,14.3623,14.3896,14.3857,14.417,14.4287,14.4443,14.4989,14.6122,14.7449,14.78,14.8308,14.9245,14.9518,14.9362,14.8908,14.8801,14.8277,14.6835,14.7975,14.8064,14.7952,14.7931,14.7777,14.7413,14.6644,14.6374,14.6644,14.6336,14.6259,14.5567,14.499,14.422,14.3451,14.2874,14.2489,14.2181,14.1592,14.1147,14.1179,14.1031,14.1017,14.1067,14.099,14.0838,14.0647,14.015,13.9462,13.866,13.8583,13.7743,13.694,13.6673,13.7055,13.7246,13.7437,13.801,13.7934,13.7934,13.7666,13.7322,13.7208,13.6902,13.6826,13.6749,13.652,13.61,13.5412,13.5106,13.4877,13.4724,13.4571,13.4648,13.4953,13.4992,13.4953,13.5145,13.5183,13.4839,13.4533,13.4036,13.3654,13.3845,13.3425,14.1277,14.1125,14.132,14.1398,14.1515,14.2101,14.2257,14.214,14.2296,14.2022,14.1788,14.1554,14.1242,14.0968,14.0578,14.0734,14.1086,13.9992,13.9095,13.9056,13.8938,13.929,13.9992,14.05,14.0851,14.1554,14.2452,14.2881,14.2959,14.3584,14.3935,14.3857,14.4013,14.4013,14.4287,14.538,14.5965,14.62,14.7137,14.7956,14.8503,14.8815,14.9049,14.9596,14.9557,14.9362,14.9362,14.9728,14.9075,14.7822,14.7632,14.7958,14.7525,14.7318,14.7164,14.6759,14.6336,14.6028,14.6028,14.6144,14.5951,14.5913,14.5951,14.5759,14.4297,14.3874,14.3412,14.2742,14.14,14.0895,14.1184,14.1017,14.122,14.1564,14.1258,14.0608,14.0112,14.0265,14.0035,13.9462,13.9221,13.8915,13.7934,13.7705,13.7628,13.7208,13.7705,13.8698,13.8774,13.8622,13.8316,13.7819,13.7475,13.7322,13.7437,13.7322,13.6979,13.6673,13.6023,13.5488,13.5259,13.5145,13.5106,13.5145,13.5259,13.5145,13.4724,13.4533,13.4571,13.4036,13.354,13.3234,13.3043,13.3081,13.289,14.237,14.2022,14.1983,14.2257,14.2452,14.1827,14.1944,14.2608,14.2686,14.2218,14.171,14.171,14.132,14.0188,13.9758,13.9953,14.0578,14.0344,13.9797,13.968,13.9836,14.05,14.1164,14.132,14.1632,14.214,14.292,14.3272,14.3545,14.4092,14.4599,14.4638,14.4911,14.5536,14.5731,14.6668,14.7019,14.7176,14.7956,14.8815,14.9557,14.9713,14.9986,15.0103,14.9947,14.9557,14.9206,14.9479,14.9281,14.8816,14.8881,14.8684,14.7883,14.7641,14.7433,14.749,14.6605,14.6836,14.7144,14.6759,14.649,14.6798,14.6644,14.5874,14.4951,14.4374,14.3588,14.2955,14.2091,14.1508,14.1973,14.164,14.1869,14.1869,14.1411,14.0417,13.95,13.9768,13.9959,13.9271,13.8927,13.8469,13.8125,13.8048,13.7743,13.7093,13.7743,13.866,13.8851,13.8736,13.8889,13.8507,13.8048,13.7896,13.8087,13.7934,13.7513,13.7131,13.6596,13.61,13.5756,13.5718,13.5718,13.545,13.5068,13.4686,13.4304,13.4151,13.3731,13.3119,13.2699,13.2508,13.2279,13.2011,13.1782,14.3503,14.2725,14.2686,14.3077,14.3233,14.1476,14.1476,14.2569,14.2686,14.1905,14.0773,14.1944,14.1125,13.9485,13.9173,13.9485,14.0149,14.089,14.0773,14.0422,14.0851,14.1593,14.2257,14.2452,14.2764,14.3116,14.3818,14.4209,14.4599,14.5028,14.5419,14.5536,14.6043,14.6434,14.7293,14.7917,14.7995,14.8073,14.8659,14.9362,15.0377,15.065,15.104,15.1821,15.1821,15.1314,15.0923,15.0872,15.0481,15.0188,15.0974,15.0429,14.9231,14.9013,14.8836,14.9452,14.8067,14.7759,14.7952,14.7567,14.7105,14.7913,14.6836,14.6028,14.5567,14.472,14.3972,14.3417,14.3031,14.275,14.3273,14.2519,14.2175,14.2022,14.1411,14.0226,13.9195,13.9297,13.9488,13.8698,13.8851,13.8736,13.7972,13.7513,13.7284,13.7208,13.7896,13.8507,13.8736,13.8965,13.9156,13.8851,13.8316,13.7743,13.7819,13.8278,13.7896,13.7208,13.6788,13.6329,13.5794,13.5183,13.4915,13.4915,13.4571,13.4189,13.3693,13.3234,13.2737,13.2126,13.1859,13.1744,13.1362,13.0865,13.0865,14.3503,14.2686,14.2686,14.2413,14.1944,14.2062,14.2257,14.2647,14.2647,14.214,14.127,14.1476,14.1086,14.0071,13.9875,13.9992,14.0422,14.1164,14.1476,14.1242,14.1554,14.2101,14.2725,14.3037,14.3545,14.4521,14.5067,14.5419,14.5809,14.6239,14.6278,14.6317,14.6551,14.6863,14.7449,14.8034,14.8893,14.9088,14.9869,15.0806,15.1079,15.1509,15.1977,15.3266,15.3578,15.3812,15.4163,15.4671,15.4268,15.1875,15.2629,15.1688,15.0503,15.1018,15.0951,14.9721,14.9221,14.8759,14.799,14.7375,14.7028,14.7028,14.6875,14.6721,14.6451,14.5797,14.4953,14.4587,14.4,14.3543,14.3359,14.2825,14.2328,14.2022,14.1411,14.0494,13.9768,13.9909,13.9947,13.8851,13.9004,13.9092,13.843,13.7781,13.7628,13.7552,13.7819,13.8622,13.9195,13.9424,13.9615,13.9118,13.843,13.7819,13.7361,13.7972,13.8048,13.7093,13.652,13.6023,13.5336,13.4304,13.3922,13.4342,13.4189,13.3693,13.3119,13.2546,13.1973,13.1515,13.1247,13.1018,13.0903,13.0789,13.0789,14.3073,14.2619,14.1749,14.1398,14.132,14.0851,14.1203,14.1944,14.1983,14.1515,14.1203,14.1554,14.132,14.05,14.0617,14.0773,14.1086,14.2218,14.2452,14.2257,14.253,14.292,14.3428,14.374,14.4716,14.5692,14.6278,14.6395,14.6551,14.698,14.7137,14.7293,14.7566,14.8034,14.8542,14.9362,14.9713,14.9986,15.0572,15.104,15.1197,15.1743,15.2758,15.307,15.4085,15.432,15.3851,15.4866,15.4671,15.3539,15.4046,15.3599,15.3066,15.2926,15.278,15.0394,14.9914,14.9606,14.849,14.8259,14.8336,14.8221,14.7875,14.7567,14.7221,14.6472,14.5703,14.5226,14.4807,14.4343,14.4659,14.3512,14.2939,14.2595,14.1678,14.057,14.0073,14.052,13.9959,13.9309,13.973,13.9768,13.9156,13.8583,13.8201,13.801,13.7934,13.8545,13.9386,13.9462,13.9462,13.8927,13.8163,13.7705,13.7284,13.7666,13.7857,13.6979,13.6405,13.5909,13.545,13.4686,13.4304,13.4342,13.396,13.3502,13.3043,13.2661,13.182,13.1094,13.1094,13.1094,13.0903,13.0789,13.0865,14.2605,14.2296,14.0734,14.0422,14.0578,13.9446,13.9602,14.0734,14.1086,14.0773,14.0422,14.1749,14.1905,14.1125,14.1281,14.1671,14.1788,14.3155,14.3194,14.3194,14.3506,14.3935,14.4209,14.4833,14.5575,14.6317,14.7176,14.7527,14.7449,14.7761,14.7995,14.8191,14.8815,14.9401,14.9869,14.9752,15.0143,15.0143,15.0143,15.0182,15.0767,15.1977,15.2797,15.2368,15.3656,15.4007,15.3695,15.4788,15.51,15.4905,15.5283,15.5656,15.5236,15.5582,15.4195,15.1256,15.0818,15.0375,14.9683,14.9375,14.9221,14.9183,14.8798,14.8452,14.7779,14.6837,14.5755,14.5441,14.5155,14.4964,14.5079,14.42,14.3398,14.2786,14.1755,14.0685,14.0379,14.0417,14.057,14.0341,14.0685,14.0303,13.9615,13.8813,13.8278,13.801,13.7934,13.8048,13.8736,13.8774,13.866,13.8316,13.7819,13.7475,13.7284,13.7399,13.7322,13.6673,13.6367,13.6062,13.5794,13.5488,13.5106,13.4686,13.4228,13.3769,13.3272,13.289,13.2432,13.1935,13.1515,13.1324,13.1362,13.1247,13.1209,14.2253,14.1476,14.05,13.9719,13.9173,13.8899,13.886,13.9212,13.9992,14.0227,14.011,14.1827,14.2491,14.2413,14.2413,14.253,14.2686,14.2881,14.3389,14.3662,14.3896,14.3974,14.4092,14.4833,14.5653,14.6512,14.7371,14.8191,14.8425,14.8737,14.8893,14.8932,14.8932,14.9206,14.9401,14.944,14.9245,14.9284,14.9362,14.9752,15.0572,15.2094,15.3109,15.3812,15.4632,15.5257,15.5374,15.6233,15.6545,15.553,15.6857,15.6749,15.5596,15.6152,15.5473,15.3753,15.2382,15.1183,15.0029,14.9798,14.9798,14.9837,14.9452,14.8952,14.8087,14.7104,14.6184,14.6254,14.5843,14.5384,14.4926,14.3971,14.3168,14.2404,14.1564,14.099,14.0723,14.057,14.0685,14.0952,14.1143,14.0647,13.9959,13.9118,13.8354,13.8125,13.7972,13.8048,13.8239,13.8392,13.7857,13.7475,13.7246,13.6902,13.6826,13.7017,13.6864,13.6291,13.6214,13.6138,13.5947,13.5718,13.5565,13.5106,13.4648,13.4304,13.396,13.3578,13.3196,13.2814,13.2394,13.2164,13.205,13.1859,13.1706,14.2177,14.132,14.0461,13.9602,13.8821,13.8782,13.8782,13.886,13.9212,13.9368,13.9719,14.1203,14.2452,14.3233,14.3428,14.3428,14.3428,14.3389,14.3584,14.3935,14.4013,14.4013,14.417,14.4833,14.5653,14.659,14.7371,14.8269,14.8854,14.9128,14.9128,14.9128,14.9128,14.9128,14.9128,14.9128,14.944,14.9869,15.0299,15.0494,15.0884,15.2016,15.3188,15.3578,15.4827,15.5374,15.5686,15.6662,15.674,15.5998,15.7169,15.7456,15.6694,15.6951,15.6897,15.443,15.4449,15.3347,15.1395,15.0952,15.0837,15.0683,15.0375,14.9606,14.8356,14.7121,14.6428,14.6407,14.5614,14.5079,14.4544,14.3474,14.2786,14.206,14.1334,14.1105,14.0914,14.0914,14.0952,14.1296,14.1525,14.1067,14.0532,13.9768,13.9233,13.9118,13.8469,13.7896,13.8239,13.8622,13.7743,13.6558,13.6405,13.6291,13.6253,13.6291,13.6405,13.6062,13.6062,13.5985,13.5909,13.5756,13.5756,13.5718,13.545,13.5068,13.4686,13.4342,13.396,13.3616,13.3272,13.3081,13.289,13.2737,13.2508,14.252,14.1632,14.0539,13.9719,13.9095,13.8899,13.8782,13.8782,13.8821,13.9056,13.9875,14.1359,14.2881,14.3701,14.3935,14.3896,14.3935,14.3974,14.3974,14.4013,14.4209,14.4326,14.4755,14.5302,14.6278,14.6824,14.7839,14.8503,14.8893,14.9128,14.9128,14.9128,14.9128,14.9128,14.9167,14.944,14.9908,15.0728,15.1509,15.1626,15.1587,15.2563,15.3188,15.3734,15.4359,15.4866,15.4554,15.5608,15.5998,15.5998,15.713,15.7704,15.7339,15.7599,15.7382,15.5718,15.5628,15.4611,15.3023,15.2317,15.2241,15.176,15.0952,14.9721,14.8759,14.7313,14.6428,14.6407,14.5728,14.5041,14.4238,14.3168,14.2481,14.1907,14.1258,14.1029,14.0914,14.0914,14.0952,14.1105,14.1411,14.1793,14.122,14.0532,14.015,14.0073,13.9271,13.8048,13.801,13.8392,13.7513,13.6253,13.6176,13.61,13.5985,13.5947,13.5909,13.5909,13.5909,13.61,13.6214,13.6253,13.6329,13.6253,13.6138,13.5832,13.5412,13.5068,13.4762,13.461,13.4419,13.3998,13.3769,13.3578,13.3234,14.3381,14.2452,14.0812,14.011,13.9914,13.9134,13.8821,13.8821,13.8821,13.9758,14.1242,14.2842,14.3584,14.3974,14.3974,14.3974,14.3974,14.3974,14.3974,14.4248,14.4677,14.4911,14.538,14.6278,14.7371,14.7683,14.8269,14.8698,14.9088,14.9128,14.9128,14.9128,14.9128,14.9128,14.9401,14.9908,15.0494,15.1392,15.229,15.2797,15.2836,15.3461,15.3968,15.4046,15.4203,15.4281,15.4242,15.51,15.5686,15.553,15.7013,15.8028,15.7833,15.7833,15.7379,15.6936,15.6021,15.5055,15.3877,15.3199,15.2742,15.1837,15.076,14.9837,14.9375,14.7505,14.6619,14.6445,14.5958,14.4964,14.4124,14.3245,14.2557,14.1793,14.1296,14.1182,14.1029,14.0914,14.0952,14.0952,14.1296,14.1831,14.2022,14.1334,14.0532,14.0379,13.9348,13.8125,13.7437,13.7475,13.6979,13.6253,13.6214,13.61,13.5947,13.5947,13.6138,13.6023,13.5909,13.6367,13.6788,13.6826,13.6749,13.6788,13.6635,13.6405,13.6138,13.5679,13.545,13.5679,13.5527,13.4953,13.4533,13.4266,13.3884,14.3818,14.3389,14.2179,14.1086,14.0071,13.9758,13.929,13.8938,13.9407,14.0578,14.2218,14.292,14.3506,14.3857,14.3974,14.3974,14.3974,14.3974,14.3974,14.4248,14.4716,14.5146,14.5692,14.6395,14.7215,14.78,14.8269,14.8698,14.9049,14.9088,14.9128,14.9128,14.9128,14.9128,14.9479,15.0338,15.104,15.147,15.2641,15.3539,15.3188,15.3734,15.4203,15.4203,15.4203,15.4203,15.4242,15.4476,15.4983,15.5686,15.674,15.7482,15.8028,15.7911,15.7808,15.7577,15.658,15.5705,15.4613,15.3809,15.2876,15.2029,15.0991,15.0221,15.0067,14.8311,14.7386,14.7038,14.6378,14.5308,14.3818,14.3398,14.2939,14.1946,14.1449,14.1334,14.1143,14.1029,14.1067,14.1182,14.164,14.2213,14.2251,14.2213,14.1373,14.057,13.9386,13.8354,13.7666,13.7284,13.7055,13.6864,13.6864,13.6558,13.6367,13.6405,13.6444,13.6214,13.6023,13.6635,13.717,13.7055,13.7017,13.7093,13.7131,13.6902,13.6596,13.6176,13.6062,13.61,13.5985,13.5718,13.5336,13.4953,13.461,14.3974,14.3896,14.335,14.2257,14.0929,14.0578,14.0149,13.9758,14.0227,14.1281,14.2725,14.292,14.3389,14.3896,14.3974,14.3974,14.3974,14.3974,14.3974,14.4404,14.5028,14.5458,14.5965,14.6746,14.7878,14.8113,14.823,14.862,14.9088,14.9128,14.9128,14.9128,14.9128,14.9128,14.9518,15.0689,15.147,15.1821,15.2836,15.3968,15.35,15.389,15.4203,15.4203,15.4203,15.4203,15.432,15.4593,15.4983,15.5725,15.6584,15.7482,15.7872,15.8106,15.8106,15.7848,15.7274,15.6487,15.5571,15.4133,15.3242,15.2876,15.1337,15.0837,15.024,14.8887,14.7577,14.7124,14.6493,14.569,14.4238,14.4276,14.3742,14.2863,14.1869,14.1602,14.1258,14.1105,14.1258,14.1411,14.1755,14.1831,14.1984,14.1869,14.1373,14.057,13.9691,13.8813,13.8239,13.801,13.8087,13.7934,13.7819,13.7399,13.694,13.7208,13.7322,13.6864,13.6788,13.7131,13.7475,13.7475,13.7552,13.7666,13.7628,13.7399,13.7055,13.6673,13.6482,13.6367,13.6176,13.5947,13.5794,13.5412,13.5374,14.3974,14.3974,14.3935,14.3428,14.2491,14.171,14.132,14.1086,14.132,14.1905,14.2881,14.3545,14.3857,14.3974,14.3974,14.3974,14.3974,14.3974,14.3974,14.4326,14.5536,14.6239,14.6941,14.7722,14.8581,14.8971,14.9088,14.9128,14.9128,14.9323,14.9245,14.9128,14.9128,14.9206,14.9284,15.0845,15.2055,15.2914,15.3734,15.3929,15.4085,15.4124,15.4203,15.4203,15.4203,15.4203,15.432,15.4671,15.5178,15.5881,15.6935,15.7794,15.8223,15.8145,15.8419,15.9018,15.7676,15.6983,15.6759,15.4598,15.3762,15.3568,15.1875,15.1221,15.0509,14.9079,14.7692,14.7468,14.7027,14.6607,14.6072,14.5728,14.4888,14.378,14.2786,14.2175,14.1907,14.1373,14.1564,14.1334,14.1067,14.1029,14.1296,14.1373,14.1067,14.0494,13.9844,13.9348,13.9004,13.866,13.8774,13.8851,13.8698,13.8316,13.7972,13.8201,13.8163,13.7666,13.7513,13.7819,13.8278,13.8622,13.8583,13.843,13.8316,13.8239,13.7743,13.717,13.7208,13.717,13.6405,13.61,13.5985,13.5985,13.5985,14.3989,14.3974,14.3974,14.3818,14.3428,14.2647,14.1983,14.1554,14.2022,14.2764,14.3467,14.3935,14.3974,14.3974,14.3974,14.3974,14.3974,14.3974,14.3974,14.4248,14.5731,14.6317,14.7019,14.8113,14.9088,14.9284,14.9518,14.9479,14.9128,14.9479,14.944,14.9284,14.9245,14.944,15.0064,15.1197,15.2133,15.2875,15.3305,15.3617,15.4124,15.4163,15.4163,15.4163,15.4124,15.4163,15.4242,15.471,15.5374,15.6154,15.7287,15.7872,15.8497,15.8575,15.8575,15.8979,15.8051,15.7363,15.6868,15.5406,15.3704,15.3068,15.2491,15.1799,15.1471,14.9693,14.8612,14.8042,14.7792,14.7066,14.5576,14.6913,14.6493,14.4811,14.3856,14.3436,14.3016,14.2251,14.1869,14.1296,14.0914,14.099,14.1182,14.164,14.1449,14.1143,14.0647,14.0761,14.0608,13.9691,13.9348,13.9577,13.9539,13.9195,13.9004,13.9118,13.8851,13.8278,13.8201,13.843,13.8965,13.9462,13.9386,13.908,13.9118,13.908,13.866,13.8316,13.8278,13.8048,13.7475,13.6711,13.6367,13.652,13.6749,14.3972,14.3974,14.3974,14.3974,14.3896,14.3389,14.2803,14.2452,14.292,14.3506,14.3896,14.3974,14.3974,14.3974,14.3974,14.3974,14.3974,14.3974,14.4326,14.4521,14.5809,14.659,14.7371,14.8308,14.8971,14.9284,14.9518,14.9557,14.9128,14.9635,14.9557,14.9284,14.944,15.0103,15.0806,15.1548,15.2133,15.2875,15.3344,15.3578,15.3734,15.3734,15.3734,15.3734,15.3773,15.3851,15.4281,15.4866,15.5569,15.6584,15.7443,15.8106,15.8887,15.9043,15.8848,15.8925,15.863,15.774,15.6811,15.662,15.4719,15.2337,15.2414,15.226,15.1547,14.9693,14.8727,14.8338,14.8433,14.7601,14.6607,14.8136,14.7753,14.6072,14.5499,14.5117,14.3971,14.3207,14.2519,14.1869,14.1334,14.1334,14.1296,14.1716,14.2022,14.1793,14.1525,14.1678,14.1755,14.0761,13.9921,14.0112,14.0265,14.0035,13.9882,13.9959,13.9577,13.8927,13.9042,13.9271,13.9386,13.9806,13.9768,13.9691,13.9539,13.9462,13.9615,13.95,13.9386,13.9195,13.8927,13.8048,13.6979,13.7208,13.7743,14.3972,14.3985,14.3974,14.3974,14.3974,14.3896,14.3896,14.3935,14.3935,14.3974,14.3974,14.3974,14.3974,14.3974,14.3974,14.3974,14.3974,14.3974,14.4443,14.5146,14.6043,14.6824,14.7722,14.8581,14.901,14.9128,14.9323,14.9557,14.9167,14.9557,14.9479,14.9479,15.0103,15.0884,15.1509,15.1938,15.2446,15.3148,15.3461,15.3617,15.3578,15.3383,15.3461,15.35,15.35,15.3773,15.4398,15.5374,15.6233,15.7208,15.8184,15.8926,15.9356,15.9395,15.9395,15.9277,15.8962,15.8006,15.7136,15.7098,15.573,15.3146,15.1491,15.1491,15.0912,14.9501,14.842,14.8185,14.8204,14.8212,14.8212,14.867,14.9053,14.8136,14.7524,14.6493,14.5117,14.4238,14.3589,14.2977,14.2404,14.2137,14.1946,14.2175,14.229,14.2099,14.1755,14.1334,14.1334,14.1182,14.0532,14.057,14.0723,14.0799,14.0723,14.0532,14.0341,13.9691,14.0035,14.0265,14.0303,14.0188,14.0226,14.0112,13.9806,13.9806,14.0035,14.0226,14.0341,14.015,13.9844,13.9042,13.7934,13.866,13.908,14.3972,14.3974,14.3974,14.3974,14.3974,14.3974,14.3974,14.3974,14.3974,14.3974,14.3974,14.3974,14.3974,14.3974,14.3974,14.3974,14.4013,14.4092,14.456,14.5302,14.6278,14.7019,14.7839,14.8659,14.901,14.9323,14.9518,14.9557,14.9362,14.9557,14.9947,15.0182,15.0689,15.1587,15.2212,15.2602,15.3109,15.35,15.3656,15.3578,15.3656,15.3656,15.3656,15.3539,15.3578,15.3851,15.4476,15.5374,15.6193,15.7052,15.7911,15.8653,15.9395,15.9395,15.9395,15.9343,15.9001,15.8438,15.7729,15.7043,15.5886,15.403,15.2145,15.0952,15.0394,14.9271,14.796,14.8032,14.786,14.7822,14.8136,14.867,14.9053,14.8823,14.8327,14.7677,14.6378,14.5423,14.4735,14.3589,14.3016,14.2557,14.2404,14.2366,14.2442,14.229,14.1984,14.1449,14.1067,14.0952,14.0876,14.0876,14.0876,14.0876,14.0876,14.0761,14.0723,14.0647,14.0799,14.0838,14.0685,14.0608,14.0647,14.0608,14.0417,14.0417,14.057,14.0761,14.0952,14.0799,14.0494,13.973,13.9233,13.9768,14.0303,14.3989,14.3974,14.3974,14.3974,14.3974,14.3974,14.3974,14.3974,14.3974,14.3974,14.3974,14.3974,14.3974,14.3974,14.4013,14.417,14.4521,14.4638,14.5146,14.6395,14.6707,14.7566,14.8347,14.8776,14.9049,14.9323,14.9479,14.9479,14.9323,14.9557,14.9908,15.0377,15.104,15.1938,15.2602,15.2953,15.3383,15.3695,15.3812,15.3656,15.3656,15.3734,15.3578,15.3383,15.35,15.3851,15.4359,15.5218,15.6389,15.7287,15.8145,15.8809,15.9395,15.9395,15.9082,15.8914,15.8193,15.7747,15.7026,15.5672,15.5132,15.4172,15.253,15.1221,14.974,14.8546,14.8101,14.7994,14.7583,14.7401,14.8013,14.8479,14.8785,14.9014,14.89,14.8785,14.7792,14.676,14.5537,14.42,14.3436,14.2939,14.271,14.2672,14.2481,14.229,14.1984,14.1564,14.1182,14.0914,14.0876,14.0876,14.0876,14.0876,14.0876,14.0876,14.0838,14.0799,14.0838,14.0876,14.0914,14.099,14.1029,14.1067,14.1029,14.1143,14.1296,14.1373,14.1449,14.1296,14.122,14.0876,14.0417,14.0379,14.0876,14.3935,14.3974,14.3974,14.3974,14.3974,14.3974,14.3974,14.3974,14.3974,14.3974,14.3974,14.3974,14.3974,14.3974,14.4013,14.4443,14.4794,14.5067,14.5887,14.7722,14.7566,14.8073,14.8698,14.9128,14.9128,14.9128,14.9167,14.9284,14.9206,14.9479,14.9986,15.0377,15.0884,15.1743,15.2836,15.3227,15.3617,15.4007,15.4007,15.3812,15.3227,15.2953,15.2602,15.2133,15.2641,15.3422,15.4437,15.5686,15.7208,15.8028,15.8809,15.9317,15.9356,15.8731,15.8341,15.7911,15.7066,15.6563,15.5859,15.4642,15.3846,15.3096,15.2213,15.1144,14.9817,14.8585,14.8279,14.7819,14.7371,14.7201,14.7592,14.8365,14.89,14.9358,14.9587,14.9129,14.8212,14.7066,14.5767,14.4659,14.42,14.3665,14.3092,14.3054,14.2939,14.2481,14.206,14.1678,14.1449,14.1143,14.099,14.099,14.0914,14.0914,14.0876,14.0876,14.0876,14.0876,14.099,14.1143,14.1373,14.1411,14.1411,14.1564,14.1716,14.1907,14.206,14.2022,14.1831,14.1525,14.1564,14.1907,14.1716,14.1143,14.1525,14.3389,14.3974,14.3974,14.3974,14.3974,14.3974,14.4013,14.3974,14.3974,14.4013,14.3974,14.3974,14.3974,14.3974,14.4013,14.4443,14.5146,14.5497,14.6356,14.741,14.7917,14.8386,14.8971,14.9128,14.9128,14.9128,14.9128,14.9128,14.9206,14.9635,15.0143,15.0572,15.1275,15.2446,15.307,15.35,15.3968,15.4203,15.4163,15.3734,15.2992,15.2836,15.2641,15.2212,15.2485,15.3383,15.4476,15.5803,15.7052,15.8067,15.8926,15.9317,15.9395,15.7521,15.6857,15.6701,15.5647,15.5133,15.4668,15.3787,15.3109,15.3158,15.2628,15.1336,15.0181,14.9199,14.8349,14.7704,14.7206,14.7076,14.7325,14.8174,14.9053,14.9626,15.0122,14.932,14.8518,14.7142,14.5843,14.5308,14.485,14.4276,14.3627,14.3359,14.3283,14.2939,14.2404,14.2022,14.1907,14.164,14.1296,14.122,14.099,14.0952,14.099,14.1067,14.1182,14.1296,14.1449,14.164,14.1831,14.2099,14.2328,14.2328,14.2442,14.2633,14.2672,14.2404,14.2213,14.1869,14.1793,14.206,14.1716,14.1143,14.1946,14.3545,14.3974,14.3974,14.3974,14.4052,14.4365,14.4326,14.4092,14.4365,14.4326,14.4013,14.3974,14.3974,14.3974,14.4013,14.4716,14.5536,14.577,14.698,14.7956,14.8347,14.8659,14.8971,14.9128,14.9128,14.9128,14.9128,14.9167,14.9284,14.9518,14.9947,15.0845,15.2094,15.2758,15.3266,15.3968,15.4163,15.4203,15.4163,15.3578,15.2836,15.2914,15.2446,15.2055,15.2251,15.3266,15.432,15.5647,15.7052,15.7794,15.8419,15.8145,15.7638,15.6193,15.5178,15.4671,15.3995,15.3344,15.3327,15.2847,15.2432,15.2679,15.2497,15.1008,15.0663,14.9681,14.8567,14.7889,14.6937,14.6632,14.7344,14.8127,14.89,14.9587,14.9664,14.9282,14.7906,14.6378,14.5499,14.5002,14.4506,14.3933,14.3436,14.3398,14.3245,14.2672,14.2251,14.1984,14.1907,14.2099,14.1755,14.164,14.1564,14.1487,14.1602,14.164,14.164,14.1755,14.1984,14.229,14.2595,14.3016,14.3283,14.3321,14.3359,14.3436,14.3359,14.3245,14.2633,14.2213,14.2137,14.2175,14.1716,14.1487,14.2213,14.374,14.3974,14.3974,14.4052,14.4248,14.4872,14.4794,14.4365,14.4872,14.4716,14.4052,14.3974,14.3974,14.3974,14.4209,14.5224,14.6004,14.6473,14.7683,14.8425,14.8893,14.8971,14.901,14.9128,14.9128,14.9128,14.9128,14.9284,14.9479,14.9518,14.9947,15.1236,15.1821,15.2212,15.3344,15.3968,15.3929,15.3968,15.3812,15.3305,15.3148,15.3148,15.2212,15.1782,15.1938,15.3227,15.4124,15.5178,15.6779,15.7248,15.7365,15.6896,15.5959,15.471,15.3734,15.2914,15.2055,15.2043,15.2159,15.0851,15.1419,15.1888,15.1477,15.1018,15.0584,14.9779,14.8721,14.7798,14.683,14.6644,14.7256,14.8004,14.8815,14.9358,14.9282,14.9091,14.7486,14.5958,14.5423,14.4888,14.4238,14.3665,14.3245,14.3207,14.3054,14.2481,14.2137,14.1831,14.1716,14.2099,14.2175,14.2366,14.2519,14.2481,14.2404,14.2328,14.2328,14.2519,14.2786,14.3054,14.3398,14.3971,14.4315,14.4315,14.4353,14.4429,14.4429,14.4353,14.3627,14.2786,14.2633,14.2672,14.2557,14.2404,14.2633,14.2725,14.3974,14.3974,14.4365,14.4911,14.5146,14.5107,14.4989,14.5067,14.4755,14.4209,14.4013,14.3974,14.4052,14.4755,14.5497,14.6043,14.6824,14.741,14.8034,14.8854,14.9049,14.9128,14.9128,14.9128,14.9128,14.9206,14.9479,14.9518,14.9284,14.9596,15.0689,15.0728,15.0962,15.1275,15.2133,15.3266,15.3422,15.3734,15.3461,15.2992,15.2719,15.1977,15.1587,15.1392,15.2758,15.3773,15.4281,15.5569,15.6154,15.5842,15.5374,15.4398,15.307,15.1899,15.1548,15.0611,15.0884,15.0729,15.0089,15.0819,15.182,15.1285,15.0139,14.9615,14.9067,14.8144,14.751,14.6797,14.6515,14.7015,14.7851,14.8556,14.8938,14.9091,14.8556,14.7486,14.6607,14.5919,14.5155,14.4315,14.3436,14.2442,14.2633,14.3054,14.2672,14.2748,14.2481,14.2404,14.2519,14.2633,14.3016,14.3398,14.3436,14.3359,14.3207,14.3207,14.3398,14.3627,14.3933,14.4391,14.5117,14.5346,14.5079,14.5232,14.5423,14.5423,14.5155,14.4659,14.3894,14.3436,14.3245,14.3207,14.3207,14.3398]},{"header":{"parameterUnit":"m.s-1","parameterCategory":1,"la1":31.0,"la2":29.5877,"lo1":-88.7671,"lo2":-86.6584,"dy":0.0162,"dx":0.0185,"nx":115,"ny":88,"refTime":"2026-02-19T00:00:00:Z","depth":0,"parameterNumber":3,"parameterNumberName":"V-component_of_WINDS"},"data":[0.0,0.0,0.0,0.0,0.0,0.0,0.0,0.0,0.0,0.0,0.0,0.0,0.0,0.0,0.0,0.0,0.0,0.0,0.0,0.0,0.0,0.0,0.0,0.0,0.0,0.0,0.0,0.0,0.0,0.0,0.0,0.0,0.0,0.0,0.0,0.0,0.0,0.0,0.0,0.0,0.0,0.0,0.0,0.0,0.0,0.0,0.0,0.0,0.0,0.0,0.0,0.0,0.0,0.0,0.0,0.0,0.0,0.0,0.0,0.0,0.0,0.0,0.0,0.0,0.0,0.0,0.0,0.0,0.0,0.0,0.0,0.0,0.0,0.0,0.0,0.0,0.0,0.0,0.0,0.0,0.0,0.0,0.0,0.0,0.0,0.0,0.0,0.0,0.0,0.0,0.0,0.0,0.0,0.0,0.0,0.0,0.0,0.0,0.0,0.0,0.0,0.0,0.0,0.0,0.0,0.0,0.0,0.0,0.0,0.0,0.0,0.0,0.0,0.0,0.0,0.0,0.0,0.0,0.0,0.0,0.0,0.0,0.0,0.0,0.0,0.0,0.0,0.0,0.0,0.0,0.0,0.0,0.0,0.0,0.0,0.0,0.0,0.0,0.0,0.0,0.0,0.0,0.0,0.0,0.0,0.0,0.0,0.0,0.0,0.0,0.0,0.0,0.0,0.0,0.0,0.0,0.0,0.0,0.0,0.0,0.0,0.0,0.0,0.0,0.0,0.0,0.0,0.0,0.0,0.0,0.0,0.0,0.0,0.0,0.0,0.0,0.0,0.0,0.0,0.0,0.0,0.0,0.0,0.0,0.0,0.0,0.0,0.0,0.0,0.0,0.0,0.0,0.0,0.0,0.0,0.0,0.0,0.0,0.0,0.0,0.0,0.0,0.0,0.0,0.0,0.0,0.0,0.0,0.0,0.0,0.0,0.0,0.0,0.0,0.0,0.0,0.0,0.0,0.0,0.0,0.0,0.0,0.0,0.0,0.0,0.0,0.0,0.0,0.0,0.0,0.0,0.0,0.0,0.0,0.0,0.0,0.0,0.0,0.0,0.0,0.0,0.0,0.0,0.0,0.0,0.0,0.0,0.0,0.0,0.0,0.0,0.0,0.0,0.0,0.0,0.0,0.0,0.0,0.0,0.0,0.0,0.0,0.0,0.0,0.0,0.0,0.0,0.0,0.0,0.0,0.0,0.0,0.0,0.0,0.0,0.0,0.0,0.0,0.0,0.0,0.0,0.0,0.0,0.0,0.0,0.0,0.0,0.0,0.0,0.0,0.0,0.0,0.0,0.0,0.0,0.0,0.0,0.0,0.0,0.0,0.0,0.0,0.0,0.0,0.0,0.0,0.0,0.0,0.0,0.0,0.0,0.0,0.0,0.0,0.0,0.0,0.0,0.0,0.0,0.0,0.0,0.0,0.0,0.0,0.0,0.0,0.0,0.0,0.0,0.0,0.0,0.0,0.0,0.0,0.0,0.0,0.0,0.0,0.0,0.0,0.0,0.0,0.0,0.0,0.0,0.0,0.0,0.0,0.0,0.0,0.0,0.0,0.0,0.0,0.0,0.0,0.0,0.0,0.0,0.0,0.0,0.0,0.0,0.0,0.0,0.0,0.0,0.0,0.0,0.0,0.0,0.0,0.0,0.0,0.0,0.0,0.0,0.0,0.0,0.0,0.0,0.0,0.0,0.0,0.0,0.0,0.0,0.0,0.0,0.0,0.0,0.0,0.0,0.0,0.0,0.0,0.0,0.0,0.0,0.0,0.0,0.0,0.0,0.0,0.0,0.0,0.0,0.0,0.0,0.0,0.0,0.0,0.0,0.0,0.0,0.0,0.0,0.0,0.0,0.0,0.0,0.0,0.0,0.0,0.0,0.0,0.0,0.0,0.0,0.0,0.0,0.0,0.0,0.0,0.0,0.0,0.0,0.0,0.0,0.0,0.0,0.0,0.0,0.0,0.0,0.0,0.0,0.0,0.0,0.0,0.0,0.0,0.0,0.0,0.0,0.0,0.0,0.0,0.0,0.0,0.0,0.0,0.0,0.0,0.0,0.0,0.0,0.0,0.0,0.0,0.0,0.0,0.0,0.0,0.0,0.0,0.0,0.0,0.0,0.0,0.0,0.0,0.0,0.0,0.0,0.0,0.0,0.0,0.0,0.0,0.0,0.0,0.0,0.0,0.0,0.0,0.0,0.0,0.0,0.0,0.0,0.0,0.0,0.0,0.0,0.0,0.0,0.0,0.0,0.0,0.0,0.0,0.0,0.0,0.0,0.0,0.0,0.0,0.0,0.0,0.0,0.0,0.0,0.0,0.0,0.0,0.0,0.0,0.0,0.0,0.0,0.0,0.0,0.0,0.0,0.0,0.0,0.0,0.0,0.0,0.0,0.0,0.0,0.0,0.0,0.0,0.0,0.0,0.0,0.0,0.0,0.0,0.0,0.0,0.0,0.0,0.0,0.0,0.0,0.0,0.0,0.0,0.0,0.0,0.0,0.0,0.0,0.0,0.0,0.0,0.0,0.0,0.0,0.0,0.0,0.0,0.0,0.0,0.0,0.0,0.0,0.0,0.0,0.0,0.0,0.0,0.0,0.0,0.0,0.0,0.0,0.0,0.0,0.0,0.0,0.0,0.0,0.0,0.0,0.0,0.0,0.0,0.0,0.0,0.0,0.0,0.0,0.0,0.0,0.0,0.0,0.0,0.0,0.0,0.0,0.0,0.0,0.0,0.0,0.0,0.0,0.0,0.0,0.0,0.0,0.0,0.0,0.0,0.0,0.0,0.0,0.0,0.0,0.0,0.0,0.0,0.0,0.0,0.0,0.0,0.0,0.0,0.0,0.0,0.0,0.0,0.0,0.0,0.0,0.0,0.0,0.0,0.0,0.0,0.0,0.0,0.0,0.0,0.0,0.0,0.0,0.0,0.0,0.0,0.0,0.0,0.0,0.0,0.0,0.0,0.0,0.0,0.0,0.0,0.0,0.0,0.0,0.0,0.0,0.0,0.0,0.0,0.0,0.0,0.0,0.0,0.0,0.0,0.0,0.0,0.0,0.0,0.0,0.0,0.0,0.0,0.0,0.0,0.0,0.0,0.0,0.0,0.0,0.0,0.0,0.0,0.0,0.0,0.0,0.0,0.0,0.0,0.0,0.0,0.0,0.0,0.0,0.0,0.0,0.0,0.0,0.0,0.0,0.0,0.0,0.0,0.0,0.0,0.0,0.0,0.0,0.0,0.0,0.0,0.0,0.0,0.0,0.0,0.0,0.0,0.0,0.0,0.0,0.0,0.0,0.0,0.0,0.0,0.0,0.0,0.0,0.0,0.0,0.0,0.0,0.0,0.0,0.0,0.0,0.0,0.0,0.0,0.0,0.0,0.0,0.0,0.0,0.0,0.0,0.0,0.0,0.0,0.0,0.0,0.0,0.0,0.0,0.0,0.0,0.0,0.0,0.0,0.0,0.0,0.0,0.0,0.0,0.0,0.0,0.0,0.0,0.0,0.0,0.0,0.0,0.0,0.0,0.0,0.0,0.0,0.0,0.0,0.0,0.0,0.0,0.0,0.0,0.0,0.0,0.0,0.0,0.0,0.0,0.0,0.0,0.0,0.0,0.0,0.0,0.0,0.0,0.0,0.0,0.0,0.0,0.0,0.0,0.0,0.0,0.0,0.0,0.0,0.0,0.0,0.0,0.0,0.0,0.0,0.0,0.0,0.0,0.0,0.0,0.0,0.0,0.0,0.0,0.0,0.0,0.0,0.0,0.0,0.0,0.0,0.0,0.0,0.0,0.0,0.0,0.0,0.0,0.0,0.0,0.0,0.0,0.0,0.0,0.0,0.0,0.0,0.0,0.0,0.0,0.0,0.0,0.0,0.0,0.0,0.0,0.0,0.0,0.0,0.0,0.0,0.0,0.0,0.0,0.0,0.0,0.0,0.0,0.0,0.0,0.0,0.0,0.0,0.0,0.0,0.0,0.0,0.0,0.0,0.0,0.0,0.0,0.0,0.0,0.0,0.0,0.0,0.0,0.0,0.0,0.0,0.0,0.0,0.0,0.0,0.0,0.0,0.0,0.0,0.0,0.0,0.0,0.0,0.0,0.0,0.0,0.0,0.0,0.0,0.0,0.0,0.0,0.0,0.0,0.0,0.0,0.0,0.0,0.0,0.0,0.0,0.0,0.0,0.0,0.0,0.0,0.0,0.0,0.0,0.0,0.0,0.0,0.0,0.0,0.0,0.0,0.0,0.0,0.0,0.0,0.0,0.0,0.0,-1.3824,0.0,0.0,0.0,0.0,0.0,0.0,0.0,0.0,0.0,0.0,0.0,0.0,0.0,0.0,0.0,0.0,0.0,0.0,0.0,0.0,0.0,0.0,0.0,0.0,0.0,0.0,0.0,0.0,0.0,0.0,0.0,0.0,0.0,0.0,0.0,0.0,0.0,0.0,0.0,0.0,0.0,0.0,0.0,0.0,0.0,0.0,0.0,0.0,0.0,0.0,0.0,0.0,0.0,0.0,0.0,0.0,0.0,0.0,0.0,0.0,0.0,0.0,0.0,0.0,0.0,0.0,0.0,0.0,0.0,0.0,0.0,0.0,0.0,0.0,0.0,0.0,0.0,0.0,0.0,0.0,0.0,0.0,0.0,0.0,0.0,0.0,0.0,0.0,0.0,0.0,0.0,0.0,0.0,0.0,0.0,0.0,0.0,0.0,0.0,0.0,0.0,0.0,0.0,0.0,0.0,0.0,0.0,0.0,0.0,0.0,-1.4977,-1.4624,-1.4631,-1.4387,-1.3858,0.0,0.0,0.0,0.0,0.0,0.0,0.0,0.0,0.0,0.0,0.0,0.0,0.0,0.0,0.0,0.0,0.0,0.0,0.0,0.0,0.0,0.0,0.0,0.0,0.0,0.0,0.0,0.0,0.0,0.0,0.0,0.0,0.0,0.0,0.0,0.0,0.0,0.0,0.0,0.0,0.0,0.0,0.0,0.0,0.0,0.0,0.0,0.0,0.0,0.0,0.0,0.0,0.0,0.0,0.0,0.0,0.0,0.0,0.0,0.0,0.0,0.0,0.0,0.0,0.0,0.0,0.0,0.0,0.0,0.0,0.0,0.0,0.0,0.0,0.0,0.0,0.0,0.0,0.0,0.0,0.0,0.0,0.0,0.0,0.0,0.0,0.0,0.0,0.0,0.0,0.0,0.0,0.0,0.0,0.0,0.0,0.0,0.0,0.0,0.0,0.0,0.0,0.0,0.0,0.0,0.0,0.0,0.0,0.0,0.0,0.0,0.0,-1.4774,-1.4543,-1.3919,0.0,0.0,0.0,0.0,0.0,0.0,0.0,0.0,0.0,0.0,0.0,0.0,0.0,0.0,0.0,0.0,0.0,0.0,0.0,0.0,0.0,0.0,0.0,0.0,0.0,0.0,0.0,0.0,0.0,0.0,0.0,0.0,0.0,0.0,0.0,0.0,0.0,0.0,0.0,0.0,0.0,0.0,0.0,0.0,0.0,0.0,0.0,0.0,0.0,0.0,0.0,0.0,0.0,0.0,0.0,0.0,0.0,0.0,0.0,0.0,0.0,0.0,0.0,0.0,0.0,0.0,0.0,0.0,0.0,0.0,0.0,0.0,0.0,0.0,0.0,0.0,0.0,0.0,0.0,0.0,0.0,0.0,0.0,0.0,0.0,0.0,0.0,0.0,0.0,0.0,0.0,0.0,0.0,0.0,0.0,0.0,0.0,0.0,0.0,0.0,0.0,0.0,0.0,0.0,0.0,0.0,0.0,0.0,0.0,0.0,-1.4685,-1.5113,-1.5126,0.0,-1.4109,0.0,0.0,0.0,0.0,0.0,0.0,0.0,0.0,0.0,0.0,0.0,0.0,0.0,0.0,0.0,0.0,0.0,0.0,0.0,0.0,0.0,0.0,0.0,0.0,0.0,0.0,0.0,0.0,0.0,0.0,0.0,0.0,0.0,0.0,0.0,0.0,0.0,0.0,0.0,0.0,0.0,0.0,0.0,0.0,0.0,0.0,0.0,0.0,0.0,0.0,0.0,0.0,0.0,0.0,0.0,0.0,0.0,0.0,0.0,0.0,0.0,0.0,0.0,0.0,0.0,0.0,0.0,0.0,0.0,0.0,0.0,0.0,0.0,0.0,0.0,0.0,0.0,0.0,0.0,0.0,0.0,0.0,0.0,0.0,0.0,0.0,0.0,0.0,0.0,0.0,0.0,0.0,0.0,0.0,0.0,0.0,0.0,0.0,0.0,0.0,0.0,0.0,0.0,0.0,0.0,0.0,0.0,0.0,0.0,0.0,0.0,-1.4923,-1.4665,-1.434,0.0,0.0,0.0,0.0,0.0,0.0,0.0,0.0,0.0,0.0,0.0,0.0,0.0,0.0,0.0,0.0,0.0,0.0,0.0,0.0,0.0,0.0,0.0,0.0,0.0,0.0,0.0,0.0,0.0,0.0,0.0,0.0,0.0,0.0,0.0,0.0,0.0,0.0,0.0,0.0,0.0,0.0,0.0,0.0,0.0,0.0,0.0,0.0,0.0,0.0,0.0,0.0,0.0,0.0,0.0,0.0,0.0,0.0,0.0,0.0,0.0,0.0,0.0,0.0,0.0,0.0,0.0,0.0,0.0,0.0,0.0,0.0,0.0,0.0,0.0,0.0,0.0,0.0,0.0,0.0,0.0,0.0,0.0,0.0,0.0,0.0,0.0,0.0,0.0,0.0,0.0,0.0,0.0,0.0,0.0,0.0,0.0,0.0,0.0,0.0,0.0,0.0,0.0,0.0,0.0,0.0,0.0,0.0,0.0,0.0,-1.5711,0.0,-1.4916,-1.457,-1.419,-1.3797,0.0,0.0,0.0,0.0,0.0,0.0,0.0,0.0,0.0,0.0,0.0,0.0,0.0,0.0,0.0,0.0,0.0,0.0,0.0,0.0,0.0,0.0,0.0,0.0,0.0,0.0,0.0,0.0,0.0,0.0,0.0,0.0,0.0,0.0,0.0,0.0,0.0,0.0,0.0,0.0,0.0,0.0,0.0,0.0,0.0,0.0,0.0,0.0,0.0,0.0,0.0,0.0,0.0,0.0,0.0,0.0,0.0,0.0,0.0,0.0,0.0,0.0,0.0,0.0,0.0,0.0,0.0,0.0,0.0,0.0,0.0,0.0,0.0,0.0,0.0,0.0,0.0,0.0,0.0,0.0,0.0,0.0,0.0,0.0,0.0,0.0,0.0,0.0,0.0,0.0,0.0,0.0,0.0,0.0,0.0,0.0,0.0,0.0,0.0,0.0,0.0,0.0,0.0,0.0,0.0,0.0,0.0,0.0,0.0,-1.5286,-1.53,-1.5364,-1.5215,-1.4658,0.0,0.0,0.0,0.0,0.0,0.0,0.0,0.0,0.0,0.0,0.0,0.0,0.0,0.0,0.0,0.0,0.0,0.0,0.0,0.0,0.0,0.0,0.0,0.0,0.0,0.0,0.0,0.0,0.0,0.0,0.0,0.0,0.0,0.0,0.0,0.0,0.0,0.0,0.0,0.0,0.0,0.0,0.0,0.0,0.0,0.0,0.0,0.0,0.0,0.0,0.0,0.0,0.0,0.0,0.0,0.0,0.0,0.0,0.0,0.0,0.0,0.0,0.0,0.0,0.0,0.0,0.0,0.0,0.0,0.0,0.0,0.0,0.0,0.0,0.0,0.0,0.0,0.0,0.0,0.0,0.0,0.0,0.0,0.0,0.0,0.0,0.0,0.0,0.0,0.0,0.0,0.0,0.0,0.0,0.0,0.0,0.0,0.0,0.0,0.0,0.0,0.0,0.0,0.0,0.0,0.0,0.0,0.0,0.0,-1.4272,-1.4353,-1.4814,-1.5608,-1.4536,-1.3899,0.0,0.0,0.0,0.0,0.0,0.0,0.0,0.0,0.0,0.0,0.0,0.0,0.0,0.0,0.0,0.0,0.0,0.0,0.0,0.0,0.0,0.0,0.0,0.0,0.0,0.0,0.0,0.0,0.0,0.0,0.0,0.0,0.0,0.0,0.0,0.0,0.0,0.0,0.0,0.0,0.0,0.0,0.0,0.0,0.0,0.0,0.0,0.0,0.0,0.0,0.0,0.0,0.0,0.0,0.0,0.0,0.0,0.0,0.0,0.0,0.0,0.0,0.0,0.0,0.0,0.0,0.0,0.0,0.0,0.0,0.0,0.0,0.0,0.0,0.0,0.0,0.0,0.0,0.0,0.0,0.0,0.0,0.0,0.0,0.0,0.0,0.0,0.0,0.0,0.0,0.0,0.0,0.0,0.0,0.0,0.0,0.0,0.0,0.0,0.0,0.0,0.0,0.0,0.0,0.0,0.0,0.0,0.0,0.0,-1.3961,0.0,-1.4903,0.0,-1.4299,-1.36,0.0,0.0,0.0,0.0,0.0,0.0,0.0,0.0,0.0,0.0,0.0,0.0,0.0,0.0,0.0,0.0,0.0,0.0,0.0,0.0,0.0,0.0,0.0,0.0,0.0,0.0,0.0,0.0,0.0,0.0,0.0,0.0,0.0,0.0,0.0,0.0,0.0,0.0,0.0,0.0,0.0,0.0,0.0,0.0,0.0,0.0,0.0,0.0,0.0,0.0,0.0,0.0,0.0,0.0,0.0,0.0,0.0,0.0,0.0,0.0,0.0,0.0,0.0,0.0,0.0,0.0,0.0,0.0,0.0,0.0,0.0,0.0,0.0,0.0,0.0,0.0,0.0,0.0,0.0,0.0,0.0,0.0,0.0,0.0,0.0,0.0,0.0,0.0,0.0,0.0,0.0,0.0,0.0,0.0,0.0,0.0,0.0,0.0,0.0,0.0,0.0,0.0,0.0,0.0,0.0,0.0,0.0,0.0,0.0,-1.4732,-1.5348,-1.5364,-1.4577,-1.4611,-1.3871,0.0,0.0,0.0,0.0,0.0,0.0,0.0,0.0,0.0,0.0,0.0,0.0,0.0,0.0,0.0,0.0,0.0,0.0,0.0,0.0,0.0,0.0,0.0,0.0,0.0,0.0,0.0,0.0,0.0,0.0,0.0,0.0,0.0,0.0,0.0,0.0,0.0,0.0,0.0,0.0,0.0,0.0,0.0,0.0,0.0,0.0,0.0,0.0,0.0,0.0,0.0,0.0,0.0,0.0,0.0,0.0,0.0,0.0,0.0,0.0,0.0,0.0,0.0,0.0,0.0,0.0,0.0,0.0,0.0,0.0,0.0,0.0,0.0,0.0,0.0,0.0,0.0,0.0,0.0,0.0,0.0,0.0,0.0,0.0,0.0,0.0,0.0,0.0,0.0,0.0,0.0,0.0,0.0,0.0,0.0,0.0,0.0,0.0,0.0,0.0,0.0,0.0,0.0,0.0,0.0,0.0,0.0,0.0,0.0,-1.5341,-1.5125,-1.5092,-1.5377,-1.4183,-1.3641,0.0,0.0,0.0,0.0,0.0,0.0,0.0,0.0,0.0,0.0,0.0,0.0,0.0,0.0,0.0,0.0,0.0,0.0,0.0,0.0,0.0,0.0,0.0,0.0,0.0,0.0,0.0,0.0,0.0,0.0,0.0,0.0,0.0,0.0,0.0,0.0,0.0,0.0,0.0,0.0,0.0,0.0,0.0,0.0,0.0,0.0,0.0,0.0,0.0,0.0,0.0,0.0,0.0,0.0,0.0,0.0,0.0,0.0,0.0,0.0,0.0,0.0,0.0,0.0,0.0,0.0,0.0,0.0,0.0,0.0,0.0,0.0,0.0,0.0,0.0,0.0,0.0,0.0,0.0,0.0,0.0,0.0,0.0,0.0,0.0,0.0,0.0,0.0,0.0,0.0,0.0,0.0,0.0,0.0,0.0,0.0,0.0,0.0,0.0,0.0,0.0,0.0,0.0,0.0,0.0,0.0,0.0,0.0,0.0,-1.7319,-1.6344,-1.5811,-1.5934,-1.4808,-1.4109,-1.3892,0.0,0.0,0.0,0.0,0.0,0.0,0.0,0.0,0.0,0.0,0.0,0.0,0.0,0.0,0.0,0.0,0.0,0.0,0.0,0.0,0.0,0.0,0.0,0.0,0.0,0.0,0.0,0.0,0.0,0.0,0.0,0.0,0.0,0.0,0.0,0.0,0.0,0.0,0.0,0.0,0.0,0.0,0.0,0.0,0.0,0.0,0.0,0.0,0.0,0.0,0.0,0.0,0.0,0.0,0.0,0.0,0.0,0.0,0.0,0.0,0.0,0.0,0.0,0.0,0.0,0.0,0.0,0.0,0.0,0.0,0.0,0.0,0.0,0.0,0.0,0.0,0.0,0.0,0.0,0.0,0.0,0.0,0.0,0.0,0.0,0.0,0.0,0.0,0.0,0.0,0.0,0.0,0.0,0.0,0.0,0.0,0.0,0.0,0.0,0.0,0.0,0.0,0.0,0.0,0.0,0.0,0.0,0.0,-2.0564,-1.9082,-1.7521,-1.6374,-1.63,-1.5181,0.0,0.0,0.0,0.0,0.0,0.0,0.0,0.0,0.0,0.0,0.0,0.0,0.0,0.0,0.0,0.0,0.0,0.0,0.0,0.0,0.0,0.0,0.0,0.0,0.0,0.0,0.0,0.0,0.0,0.0,0.0,0.0,0.0,0.0,0.0,0.0,0.0,0.0,0.0,0.0,0.0,0.0,0.0,0.0,0.0,0.0,0.0,0.0,0.0,0.0,0.0,0.0,0.0,0.0,0.0,0.0,0.0,0.0,0.0,0.0,0.0,0.0,0.0,0.0,0.0,0.0,0.0,0.0,0.0,0.0,0.0,0.0,0.0,0.0,0.0,0.0,0.0,0.0,0.0,0.0,0.0,0.0,0.0,0.0,0.0,0.0,0.0,0.0,0.0,0.0,0.0,0.0,0.0,0.0,0.0,0.0,0.0,0.0,0.0,0.0,0.0,0.0,0.0,0.0,0.0,0.0,0.0,0.0,0.0,-2.2337,-2.1304,-2.0105,-1.8898,-1.7216,-1.6049,0.0,0.0,0.0,0.0,0.0,0.0,0.0,0.0,0.0,0.0,0.0,0.0,0.0,0.0,0.0,0.0,0.0,0.0,0.0,0.0,0.0,0.0,0.0,0.0,0.0,0.0,0.0,0.0,0.0,0.0,0.0,0.0,0.0,0.0,0.0,0.0,0.0,0.0,0.0,0.0,0.0,0.0,0.0,0.0,0.0,0.0,0.0,0.0,0.0,0.0,0.0,0.0,0.0,0.0,0.0,0.0,0.0,0.0,0.0,0.0,0.0,0.0,0.0,0.0,0.0,0.0,0.0,0.0,0.0,0.0,0.0,0.0,0.0,0.0,0.0,0.0,0.0,0.0,0.0,0.0,0.0,0.0,0.0,0.0,0.0,0.0,0.0,0.0,0.0,0.0,0.0,0.0,0.0,0.0,0.0,0.0,0.0,0.0,0.0,0.0,0.0,0.0,0.0,0.0,0.0,0.0,0.0,0.0,-1.96,-2.3349,-2.2738,-2.2086,-2.1394,-1.9128,-1.7338,0.0,0.0,0.0,0.0,0.0,0.0,0.0,0.0,0.0,0.0,0.0,0.0,0.0,0.0,0.0,0.0,0.0,0.0,0.0,0.0,0.0,0.0,0.0,0.0,0.0,0.0,0.0,0.0,0.0,0.0,0.0,0.0,0.0,0.0,0.0,0.0,0.0,0.0,0.0,0.0,0.0,0.0,0.0,0.0,0.0,0.0,0.0,0.0,0.0,0.0,0.0,0.0,0.0,0.0,0.0,0.0,0.0,0.0,0.0,0.0,0.0,0.0,0.0,0.0,0.0,0.0,0.0,0.0,0.0,0.0,0.0,0.0,0.0,0.0,0.0,0.0,0.0,0.0,0.0,0.0,0.0,0.0,0.0,0.0,0.0,0.0,0.0,0.0,0.0,0.0,0.0,0.0,0.0,0.0,0.0,0.0,0.0,0.0,0.0,0.0,0.0,0.0,0.0,0.0,0.0,0.0,0.0,0.0,-2.0527,-2.4063,-2.3676,-2.3503,-2.3409,-2.1252,-1.8749,0.0,0.0,0.0,0.0,0.0,0.0,0.0,0.0,0.0,0.0,0.0,0.0,0.0,0.0,0.0,0.0,0.0,0.0,0.0,0.0,0.0,0.0,0.0,0.0,0.0,0.0,0.0,0.0,0.0,0.0,0.0,0.0,0.0,0.0,0.0,0.0,0.0,0.0,0.0,0.0,0.0,0.0,0.0,0.0,0.0,0.0,0.0,0.0,0.0,0.0,0.0,0.0,0.0,0.0,0.0,0.0,0.0,0.0,0.0,0.0,0.0,0.0,0.0,0.0,0.0,0.0,0.0,0.0,0.0,0.0,0.0,0.0,0.0,0.0,0.0,0.0,0.0,0.0,0.0,0.0,0.0,0.0,0.0,0.0,0.0,0.0,0.0,0.0,0.0,0.0,0.0,0.0,0.0,0.0,0.0,0.0,0.0,0.0,0.0,0.0,0.0,0.0,0.0,0.0,0.0,0.0,0.0,0.0,-2.1042,-2.4245,-2.421,-2.387,-2.3626,-2.1116,-1.9067,0.0,0.0,0.0,0.0,0.0,0.0,0.0,0.0,0.0,0.0,0.0,0.0,0.0,0.0,0.0,0.0,0.0,0.0,0.0,0.0,0.0,0.0,0.0,0.0,0.0,0.0,0.0,0.0,0.0,0.0,0.0,0.0,0.0,0.0,0.0,0.0,0.0,0.0,0.0,0.0,0.0,0.0,0.0,0.0,0.0,0.0,0.0,0.0,-1.7753,0.0,0.0,0.0,0.0,0.0,0.0,0.0,0.0,0.0,0.0,0.0,0.0,0.0,0.0,0.0,0.0,0.0,0.0,0.0,0.0,0.0,0.0,0.0,0.0,0.0,0.0,0.0,0.0,0.0,0.0,0.0,0.0,0.0,0.0,0.0,0.0,0.0,0.0,0.0,0.0,0.0,0.0,0.0,0.0,0.0,0.0,0.0,0.0,0.0,0.0,0.0,0.0,0.0,0.0,0.0,0.0,0.0,0.0,0.0,-2.1484,-2.4707,-2.4488,-2.4189,-2.3829,-2.1815,-1.9915,0.0,0.0,0.0,0.0,0.0,0.0,0.0,0.0,0.0,0.0,0.0,0.0,0.0,0.0,0.0,0.0,0.0,0.0,0.0,0.0,0.0,0.0,0.0,0.0,0.0,0.0,0.0,0.0,0.0,0.0,0.0,0.0,0.0,0.0,0.0,0.0,0.0,0.0,0.0,0.0,0.0,0.0,0.0,0.0,0.0,0.0,0.0,0.0,0.0,0.0,0.0,0.0,0.0,0.0,0.0,0.0,0.0,0.0,0.0,0.0,0.0,0.0,0.0,0.0,0.0,0.0,0.0,0.0,0.0,0.0,0.0,0.0,0.0,0.0,0.0,0.0,0.0,0.0,0.0,0.0,0.0,0.0,0.0,0.0,0.0,0.0,0.0,0.0,0.0,0.0,0.0,0.0,0.0,0.0,0.0,0.0,0.0,0.0,0.0,0.0,0.0,0.0,0.0,0.0,0.0,0.0,0.0,-1.8342,-2.1791,-2.4926,-2.4738,-2.4446,-2.4107,-2.269,-2.0804,0.0,0.0,0.0,0.0,0.0,0.0,0.0,0.0,0.0,0.0,0.0,0.0,0.0,0.0,0.0,0.0,0.0,0.0,0.0,0.0,0.0,0.0,0.0,0.0,0.0,0.0,0.0,0.0,0.0,0.0,0.0,0.0,0.0,0.0,0.0,0.0,0.0,0.0,0.0,-1.6292,-1.6787,0.0,0.0,0.0,0.0,0.0,0.0,0.0,0.0,-1.7616,0.0,0.0,0.0,0.0,0.0,0.0,0.0,0.0,0.0,0.0,0.0,0.0,0.0,0.0,0.0,0.0,0.0,0.0,0.0,0.0,0.0,0.0,0.0,0.0,0.0,0.0,0.0,0.0,0.0,0.0,0.0,0.0,0.0,0.0,0.0,0.0,0.0,0.0,0.0,0.0,0.0,0.0,0.0,0.0,0.0,0.0,0.0,0.0,0.0,0.0,0.0,0.0,0.0,0.0,0.0,0.0,-1.7618,-1.9383,-2.1707,-2.4973,-2.4852,-2.4555,-2.4107,-2.2791,-2.1007,-1.8782,0.0,0.0,0.0,0.0,0.0,0.0,0.0,0.0,0.0,0.0,0.0,0.0,0.0,0.0,0.0,0.0,0.0,0.0,0.0,0.0,0.0,0.0,0.0,0.0,0.0,0.0,0.0,0.0,0.0,0.0,0.0,0.0,0.0,0.0,0.0,0.0,0.0,0.0,0.0,-1.8533,-1.8696,0.0,0.0,0.0,0.0,0.0,0.0,0.0,0.0,-1.7957,0.0,0.0,0.0,0.0,0.0,0.0,0.0,0.0,0.0,0.0,0.0,0.0,0.0,0.0,0.0,0.0,0.0,0.0,0.0,0.0,0.0,0.0,0.0,0.0,0.0,0.0,0.0,0.0,0.0,0.0,0.0,0.0,0.0,0.0,0.0,0.0,0.0,0.0,0.0,0.0,0.0,0.0,0.0,0.0,0.0,0.0,0.0,0.0,0.0,0.0,0.0,0.0,0.0,0.0,0.0,-1.613,-1.9715,-2.25,-2.4817,-2.4799,-2.4697,-2.4223,-2.2628,-2.0858,0.0,0.0,0.0,0.0,0.0,0.0,0.0,0.0,0.0,0.0,0.0,0.0,0.0,0.0,0.0,0.0,0.0,0.0,0.0,0.0,0.0,0.0,0.0,0.0,0.0,0.0,0.0,0.0,0.0,0.0,0.0,0.0,0.0,0.0,0.0,0.0,0.0,0.0,0.0,0.0,-1.9345,-1.9703,-2.0507,0.0,0.0,0.0,0.0,0.0,0.0,-1.8412,-1.8022,0.0,0.0,0.0,0.0,0.0,0.0,0.0,0.0,0.0,0.0,0.0,0.0,0.0,0.0,0.0,0.0,0.0,0.0,0.0,0.0,0.0,0.0,0.0,0.0,0.0,0.0,0.0,0.0,0.0,0.0,0.0,0.0,0.0,0.0,0.0,0.0,0.0,0.0,0.0,0.0,0.0,0.0,0.0,0.0,0.0,0.0,0.0,0.0,0.0,0.0,0.0,0.0,0.0,0.0,0.0,-1.4938,-2.005,-2.3361,-2.4765,-2.4982,-2.4833,-2.4331,-2.2459,-2.0655,0.0,0.0,0.0,0.0,0.0,0.0,0.0,0.0,0.0,0.0,0.0,0.0,0.0,0.0,0.0,0.0,0.0,0.0,0.0,0.0,0.0,0.0,0.0,0.0,0.0,0.0,0.0,0.0,0.0,0.0,0.0,0.0,0.0,0.0,0.0,0.0,0.0,0.0,0.0,0.0,0.0,-2.0572,-2.127,-2.0434,0.0,0.0,0.0,0.0,-1.9004,-1.9013,0.0,0.0,0.0,0.0,0.0,0.0,0.0,0.0,0.0,0.0,0.0,0.0,0.0,0.0,0.0,0.0,0.0,0.0,0.0,0.0,0.0,0.0,0.0,0.0,0.0,0.0,0.0,0.0,0.0,0.0,0.0,0.0,0.0,0.0,0.0,0.0,0.0,0.0,0.0,0.0,0.0,0.0,0.0,0.0,0.0,0.0,0.0,0.0,0.0,0.0,0.0,0.0,0.0,0.0,0.0,0.0,-1.7925,-2.0626,-2.3103,-2.4887,-2.5131,-2.4935,-2.4345,-2.2459,-2.0607,0.0,0.0,0.0,0.0,0.0,0.0,0.0,0.0,0.0,0.0,0.0,0.0,0.0,0.0,0.0,0.0,0.0,0.0,0.0,0.0,0.0,0.0,0.0,0.0,0.0,0.0,0.0,0.0,0.0,0.0,0.0,0.0,0.0,0.0,0.0,0.0,0.0,0.0,0.0,0.0,0.0,-2.1262,-2.1368,-2.0864,-2.0328,0.0,0.0,-2.0483,-2.097,-2.1936,0.0,0.0,0.0,0.0,0.0,0.0,0.0,0.0,0.0,0.0,0.0,0.0,0.0,0.0,0.0,0.0,0.0,0.0,0.0,0.0,0.0,0.0,0.0,0.0,0.0,0.0,0.0,0.0,0.0,0.0,0.0,0.0,0.0,0.0,0.0,0.0,0.0,0.0,0.0,0.0,0.0,0.0,0.0,0.0,0.0,0.0,0.0,0.0,0.0,0.0,0.0,0.0,0.0,0.0,0.0,0.0,-1.8471,-2.1486,-2.3992,-2.5532,-2.5247,-2.4989,-2.448,-2.2093,-2.0166,0.0,0.0,0.0,0.0,0.0,0.0,0.0,0.0,0.0,0.0,0.0,0.0,0.0,0.0,0.0,0.0,0.0,0.0,0.0,0.0,0.0,0.0,0.0,0.0,0.0,0.0,0.0,0.0,0.0,0.0,0.0,0.0,0.0,0.0,0.0,0.0,0.0,0.0,0.0,0.0,0.0,0.0,-2.2261,-2.2107,0.0,0.0,0.0,-2.136,-2.1384,0.0,0.0,0.0,0.0,0.0,0.0,0.0,0.0,0.0,0.0,0.0,0.0,0.0,0.0,0.0,0.0,0.0,0.0,0.0,0.0,0.0,0.0,0.0,0.0,0.0,0.0,0.0,0.0,0.0,0.0,0.0,0.0,0.0,0.0,0.0,0.0,0.0,0.0,0.0,0.0,0.0,0.0,0.0,0.0,0.0,0.0,0.0,0.0,0.0,0.0,0.0,0.0,0.0,0.0,0.0,0.0,0.0,-1.8421,-2.2207,-2.4731,-2.5703,-2.5335,-2.5043,-2.4487,-2.212,0.0,0.0,0.0,0.0,0.0,0.0,0.0,0.0,0.0,0.0,0.0,0.0,0.0,0.0,0.0,0.0,0.0,0.0,0.0,0.0,0.0,0.0,0.0,0.0,0.0,0.0,0.0,-1.1192,0.0,0.0,0.0,0.0,0.0,0.0,0.0,0.0,0.0,0.0,0.0,0.0,0.0,0.0,-2.2367,-2.2862,-2.3163,-2.3349,0.0,0.0,-2.2432,-2.2342,-2.326,-2.3008,0.0,0.0,0.0,0.0,0.0,0.0,0.0,0.0,0.0,0.0,0.0,0.0,0.0,0.0,0.0,0.0,0.0,0.0,0.0,0.0,0.0,0.0,0.0,0.0,0.0,0.0,0.0,0.0,0.0,0.0,0.0,0.0,0.0,0.0,0.0,0.0,0.0,0.0,0.0,0.0,0.0,0.0,0.0,0.0,0.0,0.0,0.0,0.0,0.0,0.0,0.0,0.0,0.0,0.0,0.0,-1.8459,-2.2017,-2.4459,-2.5552,-2.5696,-2.5104,-2.4372,-2.2961,-2.098,0.0,0.0,0.0,0.0,0.0,0.0,0.0,0.0,0.0,0.0,0.0,0.0,0.0,0.0,0.0,0.0,0.0,0.0,0.0,0.0,0.0,0.0,0.0,0.0,0.0,0.0,0.0,0.0,0.0,0.0,0.0,0.0,0.0,0.0,0.0,0.0,0.0,0.0,0.0,0.0,0.0,-2.2326,-2.2692,-2.3601,-2.4478,0.0,0.0,-2.4145,-2.4779,-2.6306,-2.594,-2.1465,0.0,0.0,0.0,0.0,0.0,0.0,0.0,0.0,0.0,0.0,0.0,0.0,0.0,0.0,0.0,0.0,0.0,0.0,0.0,0.0,0.0,0.0,0.0,0.0,0.0,0.0,0.0,0.0,0.0,0.0,0.0,0.0,0.0,0.0,0.0,0.0,0.0,0.0,0.0,0.0,0.0,0.0,0.0,0.0,0.0,0.0,0.0,0.0,0.0,0.0,0.0,0.0,0.0,-1.7795,-1.8536,-2.2267,-2.4425,-2.5342,-2.5342,-2.5016,-2.4365,-2.2954,-2.1021,0.0,0.0,0.0,0.0,0.0,0.0,0.0,0.0,0.0,0.0,0.0,0.0,0.0,0.0,0.0,0.0,0.0,0.0,0.0,0.0,0.0,0.0,0.0,0.0,0.0,0.0,0.0,0.0,-1.3645,-1.4202,-1.4238,0.0,0.0,0.0,0.0,0.0,0.0,0.0,0.0,0.0,0.0,-2.3179,-2.4511,-2.5055,0.0,0.0,-2.5323,-2.4941,-2.5112,-2.5437,-2.4568,-2.1368,-2.0141,0.0,0.0,0.0,0.0,0.0,0.0,0.0,0.0,0.0,0.0,0.0,0.0,0.0,0.0,0.0,0.0,0.0,0.0,0.0,0.0,0.0,0.0,0.0,0.0,0.0,0.0,0.0,0.0,0.0,0.0,0.0,0.0,0.0,0.0,0.0,0.0,0.0,0.0,0.0,0.0,0.0,0.0,0.0,0.0,0.0,0.0,0.0,0.0,0.0,0.0,0.0,0.0,-1.7815,-1.8851,-2.2247,-2.4378,-2.5382,-2.5287,-2.4928,-2.4284,-2.313,-2.1387,0.0,0.0,0.0,0.0,0.0,0.0,0.0,0.0,0.0,0.0,0.0,0.0,0.0,0.0,0.0,0.0,0.0,0.0,0.0,0.0,0.0,0.0,0.0,0.0,0.0,0.0,0.0,0.0,-1.4208,-1.4735,-1.4758,0.0,0.0,0.0,0.0,0.0,0.0,0.0,0.0,0.0,0.0,-2.4056,-2.5412,-2.5705,-2.5802,-2.5875,-2.529,-2.4876,-2.4966,-2.4706,-2.3747,-2.1538,0.0,0.0,0.0,0.0,0.0,0.0,0.0,0.0,0.0,0.0,0.0,0.0,0.0,0.0,0.0,0.0,0.0,0.0,0.0,0.0,0.0,0.0,0.0,0.0,0.0,0.0,0.0,0.0,0.0,0.0,-1.2127,0.0,0.0,0.0,0.0,0.0,0.0,0.0,0.0,0.0,0.0,0.0,0.0,0.0,0.0,0.0,0.0,0.0,0.0,0.0,0.0,0.0,0.0,0.0,-1.8864,-2.224,-2.4325,-2.4894,-2.4914,-2.4874,-2.4155,-2.366,-2.2289,-1.9888,0.0,0.0,0.0,0.0,0.0,0.0,0.0,0.0,0.0,0.0,0.0,0.0,0.0,0.0,0.0,0.0,0.0,0.0,0.0,0.0,0.0,0.0,0.0,0.0,0.0,0.0,-1.3051,-1.4073,-1.4898,0.0,0.0,0.0,0.0,0.0,0.0,0.0,0.0,0.0,0.0,-2.2919,-2.4828,-2.4901,-2.5193,-2.538,-2.5234,-2.4308,-2.3837,-2.4519,-2.4722,-2.4186,0.0,0.0,0.0,0.0,0.0,0.0,0.0,0.0,0.0,0.0,0.0,0.0,0.0,0.0,0.0,0.0,0.0,0.0,0.0,0.0,0.0,0.0,0.0,0.0,0.0,0.0,0.0,-0.9689,-0.9927,0.0,0.0,0.0,0.0,0.0,0.0,0.0,0.0,0.0,0.0,0.0,-1.1104,-1.4598,0.0,0.0,0.0,0.0,0.0,0.0,0.0,0.0,0.0,0.0,0.0,0.0,-1.7914,-1.891,-2.2429,-2.4487,-2.5064,-2.5091,-2.4779,-2.4141,-2.3788,-2.2337,-1.9664,0.0,0.0,0.0,0.0,0.0,0.0,0.0,0.0,0.0,0.0,0.0,0.0,0.0,0.0,0.0,0.0,0.0,0.0,0.0,0.0,0.0,0.0,0.0,0.0,0.0,-1.3654,0.0,0.0,0.0,0.0,0.0,0.0,0.0,0.0,0.0,0.0,0.0,-1.9727,-2.1514,-2.2935,-2.4105,-2.4933,-2.525,-2.5542,0.0,0.0,0.0,0.0,0.0,0.0,0.0,0.0,0.0,0.0,0.0,0.0,0.0,0.0,-2.1961,-1.8996,-1.8403,-1.8395,-1.8509,0.0,0.0,0.0,0.0,0.0,0.0,0.0,0.0,0.0,0.0,0.0,0.0,0.0,0.0,0.0,0.0,-0.8189,0.0,0.0,0.0,0.0,0.0,0.0,0.0,0.0,-1.1429,-1.1265,-0.9916,-1.395,-1.4995,0.0,-1.6582,-1.6848,0.0,0.0,0.0,0.0,0.0,0.0,0.0,0.0,-1.8275,-1.9488,-2.2415,-2.4385,-2.4908,-2.4942,-2.4704,-2.4209,-2.366,-2.2323,-2.0119,-1.8674,-1.7243,0.0,0.0,0.0,0.0,0.0,0.0,0.0,0.0,0.0,0.0,0.0,0.0,0.0,0.0,0.0,0.0,0.0,0.0,0.0,0.0,0.0,0.0,0.0,-1.4331,0.0,0.0,0.0,0.0,0.0,0.0,0.0,0.0,0.0,-1.8584,-1.9695,-2.1246,-2.2903,-2.3739,-2.4332,-2.4714,0.0,0.0,0.0,0.0,0.0,0.0,0.0,-2.2489,-2.2196,-2.1928,-2.1855,-2.2196,-2.3374,-2.4153,-2.378,0.0,0.0,-2.1327,-2.0702,-2.0686,-2.0791,-2.11,-2.136,-2.1425,-2.1912,-2.2294,0.0,0.0,0.0,0.0,0.0,0.0,0.0,0.0,-0.7011,-0.7157,0.0,-0.5074,0.0,0.0,0.0,0.0,0.0,0.0,0.0,0.0,-1.113,-1.1605,-1.0758,-1.1549,-1.2992,-1.5287,-1.9186,-1.969,-1.7445,-1.5509,0.0,0.0,0.0,0.0,0.0,0.0,-1.9022,-2.0443,-2.2771,-2.4331,-2.4765,-2.4779,-2.4636,-2.4324,-2.3334,-2.231,-2.1292,-2.0505,-1.9237,-1.7344,-1.5106,0.0,0.0,0.0,0.0,0.0,0.0,0.0,0.0,0.0,0.0,0.0,0.0,0.0,0.0,0.0,0.0,0.0,0.0,0.0,0.0,-1.4924,0.0,0.0,0.0,0.0,0.0,0.0,0.0,0.0,0.0,0.0,-1.9987,-2.153,-2.3106,-2.4121,0.0,0.0,0.0,0.0,-2.4649,-2.3366,-2.296,-2.2943,-2.3163,-2.3552,-2.3902,-2.4088,0.0,0.0,-2.5055,-2.512,-2.5079,-2.4373,-2.5299,-2.5737,-2.4844,-2.3918,-2.3366,-2.3358,-2.339,-2.3447,-2.3642,-2.4227,-2.4689,-0.3863,0.0,0.0,0.0,0.0,-0.5143,-0.5339,-0.5407,-0.4929,-0.5083,-0.5614,-0.5818,0.0,0.0,0.0,0.0,0.0,0.0,-0.9181,-0.767,-0.8055,-0.7864,-0.6238,-0.6509,-0.92,-1.4013,-1.9254,-2.0077,-1.6998,-1.5678,-1.4963,-1.4401,0.0,0.0,0.0,0.0,-1.9386,-2.0794,-2.2683,-2.4175,-2.4616,-2.4623,-2.4487,-2.4195,-2.3273,-2.2588,-2.2174,-2.1448,-2.0356,-1.8857,-1.7971,0.0,0.0,0.0,0.0,0.0,0.0,0.0,0.0,0.0,0.0,0.0,0.0,0.0,0.0,0.0,0.0,0.0,0.0,0.0,-1.3919,-1.4792,-1.5068,0.0,0.0,0.0,0.0,0.0,0.0,0.0,0.0,0.0,-2.2895,-2.2838,-2.2886,0.0,0.0,-2.3617,-2.3008,-2.3967,-2.4828,-2.5055,-2.5047,0.0,0.0,-2.5242,-2.4949,-2.5502,-2.6427,-2.7012,-2.6809,-2.724,-2.7548,-2.7313,-2.7597,-2.7711,-2.7313,-2.6436,-2.5778,-2.5753,-2.594,-2.6127,-2.6216,-2.6671,-2.702,-0.4313,-0.4078,-0.4047,-0.4005,-0.3885,-0.3911,-0.4054,-0.427,-0.4271,-0.4206,-0.4351,-0.5337,-0.5274,-0.4328,-0.9093,0.0,0.0,0.0,-0.7148,-0.5919,-0.6021,-0.5405,-0.4499,-0.4503,-0.7025,-1.1774,-1.6515,-1.7622,-1.5267,-1.4501,-1.3897,-1.3257,0.0,0.0,-1.5026,-1.8007,-2.0112,-2.133,-2.2824,-2.3755,-2.4372,-2.4385,-2.4277,-2.4026,-2.3449,-2.3063,-2.2907,-2.231,-2.1462,-2.0363,-2.0181,-1.8715,0.0,0.0,0.0,0.0,0.0,0.0,0.0,0.0,0.0,0.0,0.0,-1.2908,0.0,0.0,0.0,0.0,-1.3762,-1.4496,-1.4692,-1.5431,0.0,0.0,0.0,0.0,0.0,0.0,0.0,-2.0293,-2.2277,-2.3884,-2.4608,-2.4308,-2.417,-2.4633,-2.4576,-2.4324,-2.3902,0.0,-2.5672,-2.5997,-2.6103,-2.6322,-2.6809,-2.6452,-2.6362,-2.7142,-2.7759,-2.8157,-2.819,-2.8547,-2.8783,-2.8742,-2.8726,-2.8685,-2.8572,-2.8011,-2.7508,-2.7321,-2.7556,-2.7792,-2.7808,-2.8125,-2.836,-0.4679,-0.4922,-0.4656,-0.453,-0.4177,-0.4234,-0.4352,-0.4503,-0.4504,-0.447,-0.4409,-0.4103,-0.4182,-0.4354,-0.7349,0.0,0.0,-0.5902,-0.5891,-0.4326,-0.4413,-0.4484,-0.454,-0.4549,-0.625,-0.906,-1.1777,-1.3091,-1.2743,-1.2007,-1.1084,-1.0512,-1.2704,-1.4032,-1.4475,-1.8266,-2.0858,-2.193,-2.3164,-2.3897,-2.4114,-2.4107,-2.4033,-2.3877,-2.3714,-2.3551,-2.3388,-2.2974,-2.2418,-2.1692,-2.1773,-2.0634,-1.7833,0.0,0.0,0.0,0.0,0.0,0.0,0.0,0.0,0.0,0.0,0.0,0.0,0.0,0.0,0.0,-1.5086,0.0,-1.6178,-1.6606,0.0,0.0,0.0,-1.7399,-1.8375,-1.9951,-2.1295,-2.2328,0.0,0.0,-2.5493,-2.5835,-2.6387,-2.7288,-2.6996,-2.6517,-2.6021,-2.6525,-2.6882,-2.6476,-2.6566,-2.676,-2.7126,-2.7435,-2.7954,-2.8693,-2.9059,-2.9075,-2.9067,-2.9067,-2.9043,-2.8905,-2.8888,-2.888,-2.888,-2.8815,-2.8734,-2.8206,-2.8377,-2.8612,-2.8596,-2.8718,-2.8831,-0.4756,-0.4725,-0.4884,-0.4556,-0.4575,-0.459,-0.4621,-0.466,-0.4661,-0.4601,-0.4497,-0.4444,-0.4313,-0.4386,-0.5067,-0.5088,-0.4418,-0.4754,-0.4865,-0.4446,-0.4515,-0.4566,-0.4602,-0.4627,-0.6372,-0.8954,-0.7452,-0.7994,-1.0267,-0.9792,-0.8455,-0.6348,-1.0387,-1.334,-1.4949,-1.846,-2.1014,-2.2384,-2.3404,-2.3698,-2.3782,-2.4005,-2.3877,-2.3734,-2.3368,-2.3097,-2.294,-2.2622,-2.2255,-2.1842,-2.2174,-2.1206,-1.9047,-1.6269,0.0,0.0,0.0,0.0,0.0,0.0,0.0,0.0,0.0,-1.396,-1.2345,0.0,-1.5704,0.0,-1.5608,-1.67,-1.7222,-1.7697,0.0,0.0,-1.8558,-1.8964,-2.0017,-2.0772,-2.1906,-2.2997,-2.525,-2.6638,-2.6574,-2.6939,-2.7491,-2.8344,-2.7248,-2.6289,-2.6176,-2.6874,-2.7483,-2.7638,-2.8092,-2.8563,-2.8693,-2.8994,-2.9205,-2.9449,-2.9294,-2.914,-2.914,-2.9026,-2.8929,-2.8896,-2.8888,-2.8888,-2.8888,-2.8888,-2.8848,-2.8726,-2.8766,-2.8823,-2.8823,-2.8856,-2.8888,-0.4812,-0.4797,-0.4796,-0.4796,-0.4792,-0.4765,-0.4754,-0.4752,-0.4739,-0.468,-0.4874,-0.4501,-0.4409,-0.4317,-0.4287,-0.4298,-0.4345,-0.4377,-0.4435,-0.4508,-0.4556,-0.4594,-0.4624,-0.4649,-0.5526,-0.7251,-0.5483,-0.5457,-0.7149,-0.7098,-0.6716,-0.6577,-1.0626,-1.3885,-1.627,-1.9019,-2.1102,-2.2235,-2.2963,-2.3554,-2.3978,-2.387,-2.3571,-2.3097,-2.2778,-2.235,-2.1801,-2.1435,-2.1163,-2.0987,-2.1729,-2.1232,-1.8864,-1.7655,-1.6216,0.0,0.0,0.0,0.0,0.0,0.0,0.0,0.0,0.0,0.0,0.0,-1.6696,-1.6656,-1.7169,-1.7731,-1.8206,-1.8651,-1.9042,-1.9481,-2.0005,-2.0872,-2.1897,-2.3053,-2.3923,-2.5147,-2.6598,-2.7716,-2.78,-2.8019,-2.8312,-2.8823,-2.8027,-2.7426,-2.7532,-2.7962,-2.8352,-2.8645,-2.901,-2.9262,-2.9294,-2.9441,-2.953,-2.9449,-2.9343,-2.9238,-2.9156,-2.9067,-2.8978,-2.8905,-2.8888,-2.8888,-2.8888,-2.8888,-2.8888,-2.8888,-2.8888,-2.8888,-2.8888,-2.8888,-2.8888,-0.4846,-0.4846,-0.4846,-0.4863,-0.4882,-0.483,-0.4805,-0.48,-0.4773,-0.4725,-0.4656,-0.4548,-0.4482,-0.4452,-0.4424,-0.4426,-0.4454,-0.4454,-0.4486,-0.4545,-0.4571,-0.46,-0.463,-0.4646,-0.4645,-0.463,-0.4619,-0.4593,-0.4551,-0.4546,-0.5932,-0.8948,-1.1995,-1.471,-1.7603,-1.9365,-2.0646,-2.1612,-2.2062,-2.2978,-2.3802,-2.3598,-2.3069,-2.2242,-2.2025,-2.1469,-2.0478,-2.0051,-1.9827,-1.9773,-2.1041,-2.0503,-1.8534,-1.8601,-1.7687,0.0,-1.4502,0.0,0.0,0.0,0.0,0.0,0.0,0.0,0.0,-1.5967,-1.7052,-1.9684,-1.9149,-1.8938,-1.9298,-1.9739,-2.0227,-2.0763,-2.1631,-2.2687,-2.3477,-2.5242,-2.651,-2.7117,-2.7913,-2.8677,-2.8775,-2.8872,-2.888,-2.888,-2.8815,-2.8791,-2.9075,-2.9051,-2.9091,-2.9376,-2.9392,-2.9302,-2.9238,-2.9302,-2.9343,-2.9229,-2.9246,-2.9302,-2.9156,-2.9116,-2.9051,-2.8921,-2.8888,-2.8888,-2.8888,-2.8888,-2.8888,-2.8888,-2.8864,-2.884,-2.884,-2.884,-2.8848,-0.4846,-0.4846,-0.4846,-0.485,-0.4855,-0.4844,-0.4825,-0.4801,-0.4796,-0.4732,-0.4631,-0.4582,-0.4544,-0.4514,-0.4484,-0.4488,-0.4515,-0.4515,-0.4549,-0.4606,-0.4612,-0.4631,-0.466,-0.4665,-0.4664,-0.466,-0.4658,-0.4653,-0.4643,-0.4619,-0.5972,-0.9166,-1.1584,-1.4475,-1.7523,0.0,0.0,0.0,-1.9519,-2.0239,-2.2493,-2.2462,-2.2093,-2.1448,-2.1163,0.0,-1.9875,-1.9746,-1.9583,-1.9345,-1.9831,0.0,0.0,0.0,0.0,0.0,0.0,0.0,0.0,0.0,0.0,0.0,-1.7609,-1.7297,-1.6809,-1.7724,-1.9052,-2.0827,-2.0527,-2.0438,-2.1102,-2.157,-2.1971,-2.2323,-2.2723,-2.3341,-2.4381,-2.5418,-2.6467,-2.7156,-2.7921,-2.862,-2.8677,-2.8791,-2.8888,-2.8888,-2.8888,-2.9018,-2.9311,-2.9116,-2.9075,-2.9335,-2.9311,-2.9254,-2.9343,-2.9262,-2.9246,-2.9294,-2.9124,-2.9051,-2.9108,-2.9018,-2.8945,-2.8888,-2.8888,-2.8888,-2.8888,-2.8888,-2.8888,-2.8888,-2.8775,-2.8661,-2.8661,-2.8661,-2.8612,-0.4846,0.0,-0.4846,-0.4846,0.0,-0.4846,-0.483,-0.48,-0.4785,-0.4721,-0.4624,-0.4608,-0.4585,-0.4553,-0.454,-0.4541,-0.4556,-0.4555,-0.4579,-0.4623,-0.4623,-0.4639,-0.4669,-0.4669,-0.4669,-0.4669,-0.4669,-0.4661,-0.4646,-0.4631,-0.6869,-1.1238,-1.1197,-1.338,-1.7772,-1.4768,-1.3966,-1.6204,-1.9077,-2.1199,-2.2201,-2.2598,-2.2493,-2.1692,0.0,0.0,0.0,0.0,0.0,0.0,0.0,0.0,0.0,0.0,0.0,-1.8644,-1.7989,-1.7901,-1.826,-1.8498,-1.8945,-1.9685,-2.0024,-1.9468,-1.7895,-1.9233,-2.0567,-2.189,-2.1687,-2.1564,-2.2154,-2.2833,-2.3397,-2.3571,-2.4488,-2.5625,-2.5998,-2.6665,-2.7335,-2.8017,-2.8399,-2.8742,-2.8742,-2.8823,-2.888,-2.8888,-2.8888,-2.8978,-2.9205,-2.9132,-2.9116,-2.9376,-2.9351,-2.927,-2.927,-2.9213,-2.9124,-2.9132,-2.9002,-2.8937,-2.9002,-2.8945,-2.8888,-2.8888,-2.8888,-2.8888,-2.8888,-2.8888,-2.8888,-2.888,-2.8807,-2.871,-2.8637,-2.8539,-2.8482,-0.4846,-0.4846,-0.4846,-0.4846,-0.4846,-0.4846,-0.483,-0.4799,0.0,0.0,0.0,-0.4631,-0.4613,-0.4594,-0.4583,-0.4582,-0.4586,-0.4586,-0.4605,-0.4639,-0.4639,-0.4656,-0.4684,-0.4684,-0.4681,-0.4677,-0.4676,-0.4661,-0.4632,-0.4631,-0.7494,-1.2306,-1.0304,-1.1759,-1.6138,-1.2547,-1.0497,-1.1204,-1.781,-2.1876,-2.2487,-2.3028,-2.2954,-2.2011,-2.1584,-2.0777,-1.9563,-1.9278,-1.9006,-1.8708,-1.753,-1.7336,-1.7891,-1.9602,-2.0534,-1.988,-1.9637,-1.9969,-2.039,-2.0668,-2.1034,-2.153,-2.2052,-2.1268,-1.9019,-2.0567,-2.1981,-2.2792,-2.2551,-2.2439,-2.2859,-2.3716,-2.4466,-2.4495,-2.5923,-2.7034,-2.7452,-2.8064,-2.8415,-2.8856,-2.8872,-2.8888,-2.888,-2.888,-2.8888,-2.8888,-2.8888,-2.8929,-2.9059,-2.9116,-2.9173,-2.9311,-2.9319,-2.9294,-2.9189,-2.914,-2.9075,-2.8945,-2.8896,-2.888,-2.8848,-2.8864,-2.8872,-2.8823,-2.8856,-2.8888,-2.8888,-2.8888,-2.8888,-2.8888,-2.8856,-2.8799,-2.8637,-2.8466,-2.8377,-0.4846,-0.4846,-0.4846,-0.4846,-0.4846,-0.4846,-0.483,-0.4797,-0.4744,-0.4726,-0.4733,-0.4657,-0.4635,-0.4653,-0.4601,-0.4593,-0.4616,-0.4617,-0.4647,0.0,-0.4702,-0.4717,-0.4743,-0.4744,-0.4731,-0.4709,-0.4707,-0.4692,-0.4665,-0.4662,-0.64,-0.9579,-0.9579,-0.9871,-1.0753,-1.2285,-1.0879,-0.6203,-1.1895,-1.7649,-2.3719,-2.2717,-2.2079,-2.1557,-2.1258,-2.0675,-1.9854,-1.9786,-1.961,-1.9325,-1.9186,-1.9171,-1.9287,-2.0748,-2.1287,-2.1137,-2.1062,-2.1299,-2.1611,-2.1794,-2.2194,-2.2866,-2.3144,-2.2616,-2.1566,-2.2074,-2.2656,-2.3156,-2.2879,-2.3008,-2.332,-2.3794,-2.4238,-2.4951,-2.5431,-2.6148,-2.7647,-2.7943,-2.8247,-2.888,-2.8888,-2.8888,-2.8888,-2.8888,-2.8888,-2.8888,-2.8864,-2.8896,-2.8945,-2.9051,-2.9132,-2.8865,-2.9173,-2.9164,-2.9124,-2.9132,-2.9059,-2.8913,-2.8888,-2.884,-2.8718,-2.8799,-2.8831,-2.8685,-2.8791,-2.8872,-2.8888,-2.8888,-2.8888,-2.888,-2.8791,-2.8669,-2.8628,-2.8482,-2.832,-0.4846,-0.4846,-0.4846,-0.4846,-0.4846,-0.4846,-0.4838,-0.482,-0.4763,-0.4735,-0.4728,-0.4672,-0.4656,-0.4668,-0.4657,-0.466,-0.4673,-0.4688,-0.471,-0.4736,-0.4737,-0.4743,-0.4755,-0.4756,-0.475,-0.4737,-0.4721,-0.4707,-0.4694,-0.4677,-0.6122,-0.9023,-0.9314,-0.8444,-0.6998,-0.8208,-0.7665,-0.5041,-1.2661,-1.8881,-2.3836,-2.3347,-2.294,-2.2662,-2.2364,-2.1971,-2.1475,-2.1292,-2.1075,-2.077,-2.0831,-2.0694,-2.0351,-2.1659,-2.2469,-2.2472,-2.2366,-2.2296,-2.2588,-2.2832,-2.311,-2.3442,-2.3537,-2.3436,-2.2811,-2.3191,-2.33,-2.3368,-2.3375,-2.3422,-2.3565,-2.4586,-2.5302,-2.5662,-2.6704,-2.7396,-2.8287,-2.8287,-2.8584,-2.8888,-2.8888,-2.8888,-2.8888,-2.8888,-2.8888,-2.888,-2.8815,-2.8775,-2.8864,-2.8864,-2.8896,-2.8978,-2.9002,-2.9002,-2.901,-2.9002,-2.897,-2.8896,-2.8888,-2.8848,-2.8766,-2.8848,-2.884,-2.8783,-2.8831,-2.888,-2.8888,-2.8888,-2.8888,-2.888,-2.8831,-2.8766,-2.8734,-2.8612,-2.8401,-0.4846,-0.4846,-0.4846,-0.4846,-0.4846,-0.4846,-0.4844,-0.4831,-0.478,-0.4741,-0.4711,-0.4683,-0.4672,-0.4681,-0.4698,-0.4707,-0.4716,-0.4729,-0.4743,-0.4756,-0.4756,-0.4759,-0.4767,-0.4773,-0.4773,-0.4765,-0.4744,-0.4728,-0.4713,-0.4691,-0.5841,-0.8156,-0.8153,-0.6994,-0.4669,-0.4699,-0.4724,-0.5335,-1.2803,-1.9212,-2.395,-2.3457,-2.2977,-2.3727,-2.349,-2.3232,-2.294,-2.271,-2.2466,-2.2208,-2.2188,-2.192,-2.1396,-2.2459,-2.323,-2.3376,-2.3204,-2.3083,-2.3314,-2.3578,-2.3727,-2.3727,-2.3761,-2.3782,-2.3782,-2.3782,-2.3748,-2.37,-2.3666,-2.368,-2.3727,-2.4706,-2.5978,-2.6311,-2.7608,-2.8287,-2.8888,-2.8888,-2.8888,-2.8888,-2.8888,-2.8888,-2.8888,-2.8888,-2.8888,-2.8864,-2.8726,-2.8693,-2.8823,-2.8726,-2.8693,-2.8831,-2.8913,-2.8961,-2.9242,-2.8961,-2.8937,-2.8905,-2.8888,-2.8856,-2.8831,-2.884,-2.8856,-2.8823,-2.8856,-2.888,-2.8888,-2.8888,-2.8888,-2.8888,-2.8872,-2.888,-2.8864,-2.8766,-2.858,-0.4846,-0.4846,-0.4846,-0.4846,-0.4846,-0.4846,-0.4831,-0.4805,-0.477,-0.474,-0.4714,-0.4683,-0.4684,-0.4705,-0.4686,-0.4691,-0.4711,-0.4688,-0.4709,-0.4755,-0.4756,-0.4771,-0.4799,-0.4825,-0.4825,-0.48,-0.4792,-0.476,-0.4718,-0.471,-0.4988,-0.4962,-0.5251,-0.4959,-0.4672,-0.4699,-0.4728,-0.4754,-0.8358,-1.5007,-2.3284,-2.1125,-2.1024,-2.3877,-2.3849,-2.3693,-2.3409,-2.3361,-2.3273,-2.3117,-2.3083,-2.2864,-2.2684,-2.3032,-2.3409,-2.3544,-2.3578,-2.3612,-2.3646,-2.3788,-2.3883,-2.3883,-2.4012,-2.408,-2.408,-2.408,-2.3965,-2.4076,-2.37,-2.3754,-2.3856,-2.4186,-2.5121,-2.6415,-2.6757,-2.7389,-2.8576,-2.8888,-2.8888,-2.8888,-2.8888,-2.8888,-2.8888,-2.8888,-2.8888,-2.8888,-2.8726,-2.8677,-2.8831,-2.8734,-2.8677,-2.8856,-2.9002,-2.9083,-2.9083,-2.9108,-2.9026,-2.8913,-2.8888,-2.884,-2.8766,-2.8799,-2.8848,-2.8783,-2.8799,-2.888,-2.8888,-2.8888,-2.8888,-2.8888,-2.8888,-2.8888,-2.8888,-2.8864,-2.875,-0.4835,-0.4822,-0.484,-0.4846,-0.4846,-0.4846,-0.484,-0.4825,-0.4777,-0.475,-0.4735,-0.469,-0.4676,-0.4687,-0.4692,-0.4703,-0.4716,-0.4737,-0.4759,-0.4784,-0.4801,-0.4816,-0.4829,-0.4841,-0.484,-0.4825,-0.4792,-0.4762,-0.4737,-0.4705,-0.4681,-0.4671,-0.4669,-0.4669,-0.4672,-0.4699,-0.4729,-0.4756,-0.5979,-1.0531,-1.7589,-1.9112,-2.089,-2.3869,-2.4161,-2.4114,-2.3985,-2.3897,-2.3816,-2.3748,-2.3666,-2.3639,-2.34,-2.3632,-2.3619,-2.398,-2.3768,-2.3883,-2.4066,-2.4134,-2.4195,-2.4284,-2.4345,-2.4385,-2.407,-2.4304,-2.4202,-2.41,-2.3992,-2.3965,-2.4005,-2.4833,-2.5698,-2.6341,-2.7242,-2.8136,-2.8726,-2.8823,-2.8888,-2.8888,-2.8888,-2.8888,-2.8888,-2.8888,-2.8888,-2.8864,-2.8726,-2.8685,-2.884,-2.8726,-2.8701,-2.8848,-2.8953,-2.8978,-2.8994,-2.8994,-2.8961,-2.8913,-2.8888,-2.884,-2.8815,-2.8815,-2.8856,-2.8775,-2.884,-2.888,-2.8888,-2.8888,-2.8888,-2.8888,-2.8896,-2.8913,-2.9018,-2.8953,-2.8888,-0.4834,-0.4819,-0.4838,-0.4846,-0.4846,-0.4846,-0.4842,-0.483,-0.4788,-0.476,-0.474,-0.4699,-0.4676,-0.4673,-0.4692,-0.471,-0.4729,-0.4762,-0.4782,-0.479,-0.4812,-0.482,-0.4822,-0.4831,-0.4834,-0.4827,-0.479,-0.4765,-0.4752,-0.4707,-0.4686,-0.4691,-0.4692,-0.4694,-0.4695,-0.4717,-0.474,-0.4769,-0.479,-0.7231,-1.2134,-1.612,-2.0089,-2.3742,-2.4392,-2.4392,-2.4351,-2.4277,-2.4243,-2.4236,-2.4134,-2.4073,-2.3762,-2.3972,-2.3924,-2.4234,-2.4019,-2.4168,-2.4399,-2.4406,-2.4453,-2.4548,-2.4562,-2.4562,-2.4231,-2.446,-2.4392,-2.4023,-2.4209,-2.4114,-2.4405,-2.5503,-2.6326,-2.6621,-2.7794,-2.8391,-2.8701,-2.8815,-2.8888,-2.8888,-2.8888,-2.8888,-2.8888,-2.8888,-2.8888,-2.8872,-2.8734,-2.8677,-2.8815,-2.8742,-2.8677,-2.8848,-2.8888,-2.8888,-2.8888,-2.8905,-2.8888,-2.8888,-2.8888,-2.8888,-2.8888,-2.8888,-2.8888,-2.884,-2.8872,-2.8888,-2.8888,-2.8888,-2.8888,-2.8888,-2.8896,-2.8921,-2.9002,-2.8945,-2.8953,-0.4846,-0.4845,-0.4846,-0.4846,-0.4846,-0.4846,-0.4831,-0.481,-0.48,-0.477,-0.4726,-0.4714,-0.4696,-0.4672,-0.4676,-0.4702,-0.4746,-0.4731,-0.4739,-0.4762,-0.4766,-0.4762,-0.4762,-0.4789,-0.4805,-0.4812,-0.4801,-0.4782,-0.4756,-0.4726,-0.4726,-0.475,-0.4747,-0.475,-0.4748,-0.4752,-0.477,-0.4793,-0.4801,-0.5114,-0.6344,-1.1844,-1.7966,-2.3447,-2.448,-2.448,-2.4392,-2.4473,-2.4541,-2.4541,-2.4521,-2.4514,-2.4211,-2.4501,-2.4487,-2.4501,-2.4507,-2.4528,-2.4555,-2.4562,-2.4568,-2.4575,-2.4602,-2.4575,-2.4602,-2.4575,-2.4501,-2.4057,-2.4229,-2.444,-2.5314,-2.5836,-2.6734,-2.7358,-2.767,-2.8263,-2.8864,-2.888,-2.8888,-2.8888,-2.8888,-2.8888,-2.8888,-2.8888,-2.8888,-2.8856,-2.8734,-2.8685,-2.8815,-2.8734,-2.8726,-2.8831,-2.8888,-2.8888,-2.8888,-2.8848,-2.8856,-2.8864,-2.8848,-2.8872,-2.888,-2.8888,-2.888,-2.8888,-2.8888,-2.8888,-2.8888,-2.8888,-2.8888,-2.8888,-2.8888,-2.8921,-2.8953,-2.8913,-2.8913,-0.4846,-0.4846,-0.4846,-0.4846,-0.4846,-0.4846,-0.4841,-0.4829,-0.481,-0.479,-0.4769,-0.475,-0.4725,-0.4699,-0.4698,-0.4709,-0.4728,-0.4718,-0.474,-0.4781,-0.4785,-0.4796,-0.4815,-0.4826,-0.483,-0.4829,-0.4811,-0.4785,-0.4758,-0.4746,-0.4746,-0.4754,-0.4756,-0.4756,-0.4759,-0.4775,-0.4792,-0.4803,-0.4819,-0.484,-0.5162,-0.9167,-1.4683,-2.1013,-2.3565,-2.4541,-2.4487,-2.4629,-2.4711,-2.4711,-2.4711,-2.4711,-2.4697,-2.4927,-2.492,-2.4684,-2.4616,-2.465,-2.4813,-2.4765,-2.4752,-2.4847,-2.486,-2.4847,-2.484,-2.4765,-2.465,-2.4494,-2.5248,-2.5727,-2.588,-2.6023,-2.6273,-2.7046,-2.799,-2.8592,-2.8905,-2.8978,-2.901,-2.8921,-2.8888,-2.8888,-2.8888,-2.8888,-2.8888,-2.888,-2.8823,-2.8823,-2.8856,-2.8815,-2.8807,-2.8864,-2.8888,-2.8888,-2.8888,-2.8766,-2.8718,-2.875,-2.8766,-2.8758,-2.8766,-2.875,-2.8734,-2.8872,-2.8888,-2.8872,-2.8864,-2.8848,-2.8848,-2.8864,-2.8864,-2.8888,-2.8888,-2.8888,-2.8888,-0.4846,-0.4846,-0.4846,-0.4846,-0.4846,-0.4846,-0.4846,-0.4845,-0.4826,-0.4811,-0.4797,-0.477,-0.4741,-0.4716,-0.4705,-0.4706,-0.4716,-0.4724,-0.475,-0.4786,-0.4797,-0.4812,-0.4829,-0.4833,-0.4831,-0.4827,-0.4801,-0.478,-0.4773,-0.4771,-0.4777,-0.4785,-0.4785,-0.4785,-0.479,-0.4815,-0.4827,-0.4826,-0.4856,-0.4879,-0.5191,-0.8286,-1.1671,-1.621,-1.9647,-2.245,-2.4264,-2.4758,-2.4894,-2.4928,-2.4935,-2.4955,-2.4989,-2.5229,-2.5188,-2.4914,-2.4799,-2.4792,-2.4962,-2.488,-2.4853,-2.5003,-2.5023,-2.5023,-2.5016,-2.4928,-2.4779,-2.49,-2.5332,-2.5777,-2.5902,-2.5964,-2.6523,-2.7099,-2.8367,-2.8994,-2.9059,-2.9164,-2.914,-2.9018,-2.8978,-2.8953,-2.8896,-2.8888,-2.8888,-2.8888,-2.8888,-2.8888,-2.8888,-2.8888,-2.8888,-2.8888,-2.8888,-2.8888,-2.8856,-2.875,-2.8734,-2.8758,-2.8588,-2.8596,-2.8677,-2.8645,-2.8669,-2.8815,-2.8872,-2.8856,-2.8831,-2.8807,-2.8807,-2.8815,-2.8856,-2.8888,-2.8888,-2.8888,-2.8872,-0.4846,-0.4846,-0.4846,-0.4846,-0.4846,-0.4846,-0.4846,-0.4846,-0.4845,-0.4829,-0.4805,-0.4773,-0.4746,-0.4716,-0.4692,-0.4688,-0.4716,-0.474,-0.4755,-0.4763,-0.4786,-0.48,-0.4805,-0.4811,-0.4812,-0.481,-0.4775,-0.4777,-0.4801,-0.4803,-0.4815,-0.484,-0.4842,-0.484,-0.4844,-0.4868,-0.4875,-0.4865,-0.4904,-0.4921,-0.5207,-0.7692,-0.9864,-1.0781,-1.3613,-1.7944,-2.3682,-2.4552,-2.4767,-2.5206,-2.522,-2.5301,-2.5382,-2.5396,-2.5369,-2.5213,-2.5084,-2.5023,-2.5009,-2.4894,-2.488,-2.4989,-2.5023,-2.5023,-2.5016,-2.5003,-2.4887,-2.4629,-2.4776,-2.4618,-2.4759,-2.5793,-2.6993,-2.8769,-2.8825,-2.9213,-2.9335,-2.94,-2.9351,-2.9181,-2.9124,-2.9067,-2.8945,-2.8896,-2.8896,-2.8913,-2.8896,-2.8888,-2.8888,-2.8888,-2.8888,-2.8888,-2.8888,-2.8888,-2.8815,-2.875,-2.8783,-2.8766,-2.8515,-2.8393,-2.8612,-2.8669,-2.8637,-2.875,-2.8872,-2.8856,-2.8807,-2.8783,-2.875,-2.8766,-2.8823,-2.888,-2.888,-2.8872,-2.884,-0.4846,-0.4846,-0.4846,-0.4846,-0.4846,-0.4846,-0.4846,-0.4846,-0.4846,-0.4841,-0.4829,-0.4801,-0.4771,-0.4743,-0.4713,-0.4706,-0.4717,-0.4743,-0.4756,-0.4759,-0.4769,-0.4785,-0.4804,-0.4823,-0.4833,-0.4831,-0.4823,-0.4823,-0.4831,-0.4834,-0.484,-0.4849,-0.4868,-0.4865,-0.4853,-0.4895,-0.4909,-0.4889,-0.4939,-0.4964,-0.4958,-0.5916,-0.7476,-0.962,-1.0942,-1.3782,-1.7738,-2.0361,-2.2707,-2.5068,-2.5389,-2.5416,-2.5457,-2.5786,-2.5758,-2.5382,-2.5247,-2.5165,-2.5152,-2.5036,-2.4969,-2.5009,-2.5023,-2.5023,-2.5023,-2.5023,-2.4928,-2.4745,-2.4975,-2.5473,-2.6135,-2.6631,-2.7543,-2.7635,-2.8653,-2.9343,-2.9432,-2.9432,-2.9392,-2.9335,-2.9221,-2.9173,-2.9173,-2.9075,-2.8945,-2.901,-2.8953,-2.8888,-2.8888,-2.8888,-2.8888,-2.8888,-2.8888,-2.8888,-2.884,-2.8775,-2.875,-2.8685,-2.845,-2.8312,-2.8507,-2.8612,-2.8596,-2.8677,-2.8799,-2.8823,-2.8775,-2.8758,-2.8726,-2.8766,-2.8848,-2.8872,-2.8864,-2.8848,-2.8815,-0.4846,-0.4846,-0.4846,-0.4846,-0.4848,-0.4859,-0.4857,-0.4849,-0.486,-0.4857,-0.4844,-0.4827,-0.4808,-0.4789,-0.4771,-0.4763,-0.4765,-0.4773,-0.4773,-0.4778,-0.48,-0.4818,-0.4837,-0.4855,-0.4864,-0.4867,-0.4875,-0.4875,-0.4864,-0.4875,-0.4875,-0.4871,-0.4894,-0.4901,-0.4886,-0.4927,-0.4939,-0.4923,-0.4968,-0.5,-0.5006,-0.5029,-0.5981,-0.7862,-0.8225,-0.9825,-1.2967,-1.5538,-1.8768,-2.2982,-2.4953,-2.5627,-2.5627,-2.595,-2.5902,-2.5464,-2.5369,-2.5274,-2.5172,-2.5111,-2.507,-2.5043,-2.507,-2.507,-2.5036,-2.5023,-2.4948,-2.4819,-2.5392,-2.6217,-2.6295,-2.7435,-2.7743,-2.7442,-2.8431,-2.9473,-2.9562,-2.9611,-2.9538,-2.9457,-2.9367,-2.9319,-2.9181,-2.9148,-2.8986,-2.9034,-2.8953,-2.8888,-2.8888,-2.8888,-2.8896,-2.8896,-2.8888,-2.888,-2.888,-2.8815,-2.8734,-2.858,-2.8393,-2.8336,-2.8417,-2.8442,-2.8442,-2.8612,-2.875,-2.8677,-2.8628,-2.8693,-2.871,-2.8791,-2.8856,-2.8872,-2.8872,-2.8831,-2.8791,-0.4544,-0.4846,-0.4846,-0.4846,-0.485,-0.4874,-0.487,-0.4855,-0.4878,-0.4875,-0.4855,-0.485,-0.4849,-0.4848,-0.4831,-0.4827,-0.484,-0.4808,-0.4804,-0.4822,-0.4855,-0.4879,-0.4875,-0.4878,-0.4878,-0.4886,-0.4912,-0.4913,-0.489,-0.4915,-0.4924,-0.4901,-0.4924,-0.4938,-0.4938,-0.4968,-0.497,-0.4953,-0.4999,-0.503,-0.5032,-0.5054,-0.5078,-0.542,-0.5426,-0.7034,-0.9601,-1.0905,-1.413,-1.9927,-2.4173,-2.5823,-2.5864,-2.5884,-2.5701,-2.5477,-2.545,-2.5315,-2.5145,-2.5159,-2.5165,-2.5077,-2.5165,-2.5179,-2.5057,-2.5036,-2.4996,-2.4847,-2.5413,-2.5954,-2.613,-2.7307,-2.8223,-2.8533,-2.886,-2.9595,-2.9879,-2.992,-2.9774,-2.957,-2.9562,-2.9514,-2.9108,-2.9132,-2.9083,-2.9018,-2.8978,-2.8994,-2.8978,-2.8994,-2.8929,-2.8937,-2.897,-2.8937,-2.8945,-2.8872,-2.8783,-2.862,-2.8458,-2.8433,-2.8401,-2.8401,-2.8474,-2.8628,-2.8669,-2.858,-2.8588,-2.8693,-2.8734,-2.8758,-2.8815,-2.8864,-2.8856,-2.8815,-2.8693,-0.2726,-0.4846,-0.4846,-0.4846,-0.4848,-0.4856,-0.4856,-0.4852,-0.488,-0.4889,-0.4879,-0.488,-0.4879,-0.4875,-0.4834,-0.4825,-0.484,-0.4818,-0.483,-0.4867,-0.4882,-0.4878,-0.4863,-0.486,-0.4861,-0.4868,-0.49,-0.49,-0.4895,-0.4928,-0.4935,-0.4927,-0.4955,-0.496,-0.4949,-0.4991,-0.4999,-0.4984,-0.5029,-0.5059,-0.5062,-0.5069,-0.5074,-0.5082,-0.5108,-0.543,-0.6693,-0.8976,-1.3532,-2.0022,-2.3841,-2.5749,-2.5762,-2.5681,-2.5599,-2.5518,-2.5376,-2.5335,-2.5335,-2.5287,-2.5226,-2.5199,-2.5308,-2.5287,-2.505,-2.5118,-2.5091,-2.4975,-2.5482,-2.631,-2.6878,-2.7785,-2.8746,-2.946,-2.9684,-2.9692,-2.9879,-2.9944,-2.9895,-2.9814,-2.9709,-2.9562,-2.9424,-2.9327,-2.9286,-2.9238,-2.9221,-2.9205,-2.9132,-2.9099,-2.9034,-2.9108,-2.9132,-2.9059,-2.9002,-2.8929,-2.8823,-2.8669,-2.858,-2.8563,-2.8539,-2.8515,-2.8637,-2.8799,-2.8701,-2.8612,-2.8718,-2.884,-2.8815,-2.8758,-2.8791,-2.884,-2.8815,-2.8766,-2.858,-0.1828,-0.4867,-0.4879,-0.4885,-0.4886,-0.4886,-0.4878,-0.4874,-0.4898,-0.4895,-0.4883,-0.4902,-0.4904,-0.489,-0.487,-0.4868,-0.488,-0.4853,-0.486,-0.4882,-0.4878,-0.4871,-0.4868,-0.4876,-0.4886,-0.4891,-0.4928,-0.4942,-0.494,-0.4961,-0.4968,-0.4965,-0.4987,-0.4991,-0.4983,-0.5006,-0.5021,-0.501,-0.5039,-0.5067,-0.5104,-0.5108,-0.5129,-0.5141,-0.5165,-0.5159,-0.578,-0.8378,-1.292,-1.8406,-2.2955,-2.5905,-2.5871,-2.547,-2.5423,-2.5735,-2.5599,-2.5566,-2.5613,-2.5559,-2.5491,-2.5437,-2.5471,-2.5342,-2.5165,-2.5145,-2.5091,-2.5016,-2.586,-2.674,-2.7339,-2.8259,-2.9226,-2.9588,-2.9855,-2.9839,-2.9944,-2.9879,-2.9798,-2.9725,-2.9635,-2.9489,-2.9392,-2.9319,-2.927,-2.9213,-2.9205,-2.9189,-2.9148,-2.9156,-2.9156,-2.9197,-2.9189,-2.9099,-2.9051,-2.8994,-2.8945,-2.8791,-2.8669,-2.8661,-2.8628,-2.8596,-2.8645,-2.8726,-2.8685,-2.8693,-2.8766,-2.8823,-2.8807,-2.8775,-2.8799,-2.8726,-2.8669,-2.8661,-2.8474,-0.1845,-0.49,-0.4927,-0.4938,-0.4935,-0.494,-0.4927,-0.491,-0.4931,-0.4916,-0.4889,-0.4917,-0.4921,-0.4898,-0.4908,-0.493,-0.4932,-0.489,-0.4882,-0.4878,-0.4865,-0.4861,-0.4889,-0.4906,-0.492,-0.4935,-0.4995,-0.4996,-0.4985,-0.5007,-0.5011,-0.4999,-0.5015,-0.5025,-0.5024,-0.5035,-0.5039,-0.5044,-0.5063,-0.5103,-0.5149,-0.5161,-0.5179,-0.5212,-0.5221,-0.5216,-0.5851,-0.8124,-1.1344,-1.4786,-2.1785,-2.5442,-2.6088,-2.5752,-2.5725,-2.5993,-2.5857,-2.581,-2.5857,-2.5803,-2.5789,-2.5667,-2.5566,-2.543,-2.5294,-2.5192,-2.5125,-2.507,-2.6562,-2.7436,-2.8082,-2.9014,-2.9653,-2.9985,-2.9968,-2.9936,-2.9895,-2.979,-2.9644,-2.9473,-2.9457,-2.9278,-2.9108,-2.9051,-2.9132,-2.9173,-2.9213,-2.9335,-2.9319,-2.9319,-2.9262,-2.9189,-2.9164,-2.9099,-2.9083,-2.9067,-2.9018,-2.8929,-2.8783,-2.8718,-2.8669,-2.8637,-2.8604,-2.862,-2.8685,-2.8693,-2.8685,-2.8726,-2.8734,-2.8661,-2.8596,-2.849,-2.8409,-2.845,-2.836,-0.1849,-0.4928,-0.4935,-0.4938,-0.4942,-0.4962,-0.4968,-0.4964,-0.4969,-0.496,-0.4951,-0.4943,-0.4932,-0.4923,-0.4909,-0.4915,-0.4927,-0.4889,-0.4857,-0.4856,-0.4852,-0.4864,-0.4889,-0.4906,-0.4919,-0.4943,-0.4975,-0.499,-0.4992,-0.5014,-0.5026,-0.5024,-0.5029,-0.5029,-0.5039,-0.5077,-0.5097,-0.5105,-0.5138,-0.5167,-0.5186,-0.5197,-0.5205,-0.5224,-0.5223,-0.5216,-0.5216,-0.5883,-0.8139,-1.2608,-1.9436,-2.4428,-2.5349,-2.6308,-2.628,-2.5878,-2.5803,-2.5749,-2.5749,-2.5769,-2.5735,-2.5728,-2.5735,-2.5701,-2.5443,-2.5369,-2.5287,-2.549,-2.6526,-2.7706,-2.9045,-2.9653,-3.0017,-3.009,-3.0025,-2.9887,-2.9782,-2.9814,-2.9765,-2.9644,-2.9275,-2.9211,-2.9319,-2.927,-2.9254,-2.9164,-2.927,-2.9481,-2.9497,-2.9465,-2.94,-2.9294,-2.9221,-2.9189,-2.9213,-2.9189,-2.9116,-2.9051,-2.8913,-2.8799,-2.875,-2.8726,-2.8718,-2.8726,-2.875,-2.8726,-2.8637,-2.8596,-2.8604,-2.849,-2.8385,-2.832,-2.8279,-2.8287,-2.8247,-0.1864,-0.496,-0.4958,-0.4968,-0.4975,-0.4953,-0.4957,-0.498,-0.4983,-0.4966,-0.4949,-0.4949,-0.4935,-0.4895,-0.488,-0.4887,-0.4909,-0.4901,-0.4882,-0.4878,-0.4883,-0.4906,-0.493,-0.4935,-0.4946,-0.4964,-0.4991,-0.5003,-0.5013,-0.5032,-0.505,-0.5051,-0.506,-0.5082,-0.5089,-0.5122,-0.5134,-0.5139,-0.5167,-0.5197,-0.5223,-0.5228,-0.5238,-0.5242,-0.5236,-0.5223,-0.521,-0.522,-0.717,-1.0406,-1.4336,-1.8915,-2.3422,-2.5369,-2.6328,-2.6006,-2.585,-2.5891,-2.5945,-2.5878,-2.583,-2.5884,-2.5857,-2.5722,-2.5559,-2.5457,-2.5641,-2.585,-2.6656,-2.7827,-2.9854,-3.0107,-3.0155,-3.0155,-3.0058,-2.9847,-2.9652,-2.9709,-2.9749,-2.9603,-2.953,-2.9432,-2.9359,-2.9343,-2.9278,-2.914,-2.9278,-2.9473,-2.9514,-2.9489,-2.9522,-2.9441,-2.9343,-2.9311,-2.9351,-2.9319,-2.9229,-2.9148,-2.9034,-2.8929,-2.8856,-2.8848,-2.8848,-2.8791,-2.871,-2.8628,-2.8547,-2.8515,-2.8425,-2.8295,-2.8206,-2.8165,-2.8117,-2.806,-2.8011,-0.1879,-0.4984,-0.4983,-0.4996,-0.5002,-0.494,-0.494,-0.4979,-0.4983,-0.4955,-0.4916,-0.4957,-0.4928,-0.4871,-0.486,-0.4871,-0.4894,-0.492,-0.4916,-0.4904,-0.4919,-0.4945,-0.4968,-0.4975,-0.4985,-0.4998,-0.5022,-0.5036,-0.505,-0.5065,-0.5078,-0.5082,-0.51,-0.5114,-0.5144,-0.5165,-0.5168,-0.5171,-0.5191,-0.5216,-0.5251,-0.5261,-0.5274,-0.5302,-0.5302,-0.5284,-0.527,-0.5598,-0.657,-0.9186,-0.6922,-1.0849,-1.8323,-2.4268,-2.6244,-2.6352,-2.6108,-2.6054,-2.6088,-2.602,-2.5939,-2.6081,-2.5891,-2.5749,-2.5667,-2.5518,-2.571,-2.6581,-2.7155,-2.8395,-3.0127,-3.0293,-3.022,-3.0188,-3.0058,-2.9806,-2.9587,-2.9291,-2.9331,-2.9481,-2.9514,-2.9489,-2.9327,-2.9229,-2.9181,-2.9164,-2.9311,-2.9441,-2.9489,-2.9538,-2.9579,-2.9514,-2.94,-2.9278,-2.9294,-2.9392,-2.9311,-2.9164,-2.9075,-2.8978,-2.8864,-2.8734,-2.8677,-2.8677,-2.8604,-2.8523,-2.8417,-2.832,-2.8214,-2.8084,-2.8027,-2.8003,-2.7922,-2.7816,-2.7816,-0.1879,-0.4983,-0.4983,-0.4973,-0.4957,-0.4961,-0.4968,-0.4981,-0.4981,-0.4964,-0.5242,-0.494,-0.4927,-0.4891,-0.4885,-0.4889,-0.4904,-0.493,-0.494,-0.4932,-0.4943,-0.4962,-0.4984,-0.4995,-0.5013,-0.5047,-0.5066,-0.5078,-0.5092,-0.5107,-0.5108,-0.5109,-0.5118,-0.5129,-0.5149,-0.5169,-0.5199,-0.5206,-0.5234,-0.5266,-0.5276,-0.5291,-0.5307,-0.5352,-0.5363,-0.5371,-0.5384,-0.5401,-0.5724,-0.5967,-0.5663,-0.961,-1.6151,-2.257,-2.5938,-2.64,-2.6312,-2.623,-2.6095,-2.5986,-2.5925,-2.5925,-2.5898,-2.5871,-2.5823,-2.5708,-2.6212,-2.7124,-2.8317,-2.9204,-3.0472,-3.0358,-3.0253,-3.0188,-3.0058,-2.9863,-2.9709,-2.942,-2.9428,-2.9514,-2.9546,-2.9882,-2.9424,-2.9286,-2.9254,-2.9238,-2.9294,-2.9465,-2.9587,-2.9635,-2.9676,-2.957,-2.9424,-2.9294,-2.9197,-2.9327,-2.9343,-2.914,-2.9018,-2.8913,-2.8766,-2.8547,-2.8466,-2.8555,-2.8523,-2.8417,-2.8295,-2.8174,-2.8052,-2.7954,-2.7897,-2.7849,-2.7824,-2.78,-2.78,-0.1873,-0.4669,-0.495,-0.4938,-0.4935,-0.4919,-0.4931,-0.4957,-0.4958,-0.4942,-0.4931,-0.4943,-0.4935,-0.4906,-0.491,-0.4916,-0.4927,-0.4966,-0.4975,-0.4968,-0.4977,-0.4991,-0.5009,-0.502,-0.5054,-0.5088,-0.5108,-0.5112,-0.5118,-0.5133,-0.5138,-0.5144,-0.5153,-0.5169,-0.5187,-0.5216,-0.5228,-0.5238,-0.5258,-0.5274,-0.528,-0.5299,-0.5334,-0.5345,-0.5381,-0.5389,-0.5373,-0.5408,-0.5401,-0.5362,-0.5379,-0.8386,-1.4065,-2.0812,-2.6596,-2.618,-2.6434,-2.638,-2.6183,-2.6142,-2.6156,-2.6135,-2.6074,-2.602,-2.5959,-2.6157,-2.6676,-2.8558,-2.9461,-3.0352,-3.0748,-3.0504,-3.0383,-3.031,-3.0115,-2.9879,-2.9774,-2.9548,-2.9749,-2.9611,-2.97,-2.9709,-2.9579,-2.9457,-2.9376,-2.9335,-2.9319,-2.9449,-2.9627,-2.9644,-2.9644,-2.953,-2.9367,-2.927,-2.9181,-2.9262,-2.9302,-2.9116,-2.8994,-2.8888,-2.8791,-2.8628,-2.8547,-2.8555,-2.8474,-2.8377,-2.8279,-2.8198,-2.8019,-2.7865,-2.7865,-2.7865,-2.7824,-2.78,-2.7816,-0.1867,-0.4969,-0.4915,-0.4904,-0.4909,-0.487,-0.4875,-0.4915,-0.4927,-0.4916,-0.4904,-0.495,-0.4955,-0.4928,-0.4934,-0.4947,-0.4951,-0.4999,-0.5,-0.5,-0.5011,-0.5026,-0.5036,-0.5058,-0.5084,-0.5109,-0.5139,-0.5152,-0.5149,-0.516,-0.5168,-0.5175,-0.5197,-0.5217,-0.5234,-0.5229,-0.5243,-0.5243,-0.5243,-0.5244,-0.5265,-0.5307,-0.5336,-0.5321,-0.5366,-0.5378,-0.5367,-0.5405,-0.5416,-0.5409,-0.5762,-0.7136,-1.1536,-1.9792,-2.4767,-2.5312,-2.6254,-2.6515,-2.6393,-2.6339,-2.6312,-2.6305,-2.6237,-2.6176,-2.639,-2.6552,-2.7673,-3.0252,-3.0854,-3.0813,-3.0837,-3.0651,-3.048,-3.035,-3.0131,-2.9903,-2.9839,-2.9847,-2.9879,-2.983,-2.9903,-2.9822,-2.9676,-2.9506,-2.9392,-2.9335,-2.9319,-2.9343,-2.9489,-2.9497,-2.9473,-2.94,-2.9294,-2.9221,-2.9181,-2.9205,-2.9189,-2.9051,-2.8986,-2.8921,-2.8864,-2.8799,-2.8718,-2.8628,-2.8531,-2.8433,-2.8328,-2.8247,-2.8149,-2.8044,-2.7954,-2.7914,-2.7922,-2.7897,-2.7889,-0.1862,-0.494,-0.4906,-0.4879,-0.486,-0.485,-0.4849,-0.4861,-0.4889,-0.4897,-0.4893,-0.4953,-0.4976,-0.4973,-0.4973,-0.4977,-0.4983,-0.499,-0.5007,-0.5017,-0.5025,-0.5028,-0.5032,-0.5058,-0.5086,-0.5116,-0.5146,-0.5175,-0.5183,-0.5194,-0.5199,-0.5201,-0.5201,-0.521,-0.5217,-0.5219,-0.5212,-0.5213,-0.5216,-0.5229,-0.5258,-0.5311,-0.5347,-0.5371,-0.54,-0.5422,-0.5426,-0.5456,-0.5467,-0.5431,-0.5478,-0.7186,-1.088,-1.5036,-1.909,-2.1951,-2.4476,-2.6658,-2.6454,-2.6413,-2.6413,-2.642,-2.6352,-2.6264,-2.6445,-2.7264,-2.8746,-3.0754,-3.1,-3.0902,-3.0805,-3.0602,-3.0431,-3.0269,-3.009,-2.9968,-2.9912,-2.9879,-2.9903,-2.996,-3.0001,-2.9895,-2.9749,-2.957,-2.9408,-2.9359,-2.9327,-2.9343,-2.9384,-2.9416,-2.9302,-2.9221,-2.9173,-2.9099,-2.9083,-2.9124,-2.9091,-2.897,-2.8953,-2.8937,-2.8896,-2.8848,-2.8815,-2.8718,-2.862,-2.8547,-2.8474,-2.8393,-2.8312,-2.823,-2.8141,-2.8092,-2.8068,-2.8027,-2.7995,-0.3723,-0.4935,-0.4905,-0.4875,-0.4848,-0.4846,-0.4846,-0.4849,-0.4861,-0.4867,-0.4879,-0.4931,-0.4975,-0.5002,-0.5009,-0.5009,-0.5009,-0.5007,-0.5014,-0.5026,-0.5029,-0.5029,-0.5035,-0.5058,-0.5086,-0.5119,-0.5146,-0.5178,-0.5198,-0.5208,-0.5208,-0.5208,-0.5208,-0.5208,-0.5208,-0.5208,-0.5219,-0.5234,-0.5249,-0.5255,-0.5269,-0.5309,-0.5349,-0.5363,-0.5407,-0.5426,-0.5437,-0.5471,-0.5473,-0.5448,-0.5488,-0.6186,-0.7527,-0.9943,-1.2348,-1.8278,-2.205,-2.4631,-2.6355,-2.6617,-2.6597,-2.6569,-2.6515,-2.638,-2.6493,-2.7599,-2.9126,-3.0786,-3.0951,-3.0837,-3.0724,-3.0496,-3.035,-3.0196,-3.0042,-2.9993,-2.9952,-2.9952,-2.996,-3.0033,-3.0082,-2.9985,-2.9871,-2.9709,-2.9595,-2.957,-2.9432,-2.9311,-2.9384,-2.9465,-2.9278,-2.9026,-2.8994,-2.897,-2.8961,-2.897,-2.8994,-2.8921,-2.8921,-2.8905,-2.8888,-2.8856,-2.8856,-2.8848,-2.8791,-2.871,-2.8628,-2.8555,-2.8474,-2.8401,-2.8328,-2.8287,-2.8247,-2.8214,-2.8165,-0.4043,-0.4946,-0.4908,-0.4879,-0.4857,-0.485,-0.4846,-0.4846,-0.4848,-0.4856,-0.4885,-0.4936,-0.499,-0.5018,-0.5026,-0.5025,-0.5026,-0.5028,-0.5028,-0.5029,-0.5036,-0.504,-0.5055,-0.5074,-0.5108,-0.5127,-0.5163,-0.5186,-0.5199,-0.5208,-0.5208,-0.5208,-0.5208,-0.5208,-0.5209,-0.5219,-0.5235,-0.5264,-0.5291,-0.5295,-0.5294,-0.5328,-0.5349,-0.5369,-0.539,-0.5408,-0.5397,-0.5434,-0.5448,-0.5448,-0.5487,-0.5852,-0.6182,-0.6536,-0.9281,-1.4651,-1.9109,-2.3107,-2.4921,-2.5831,-2.6502,-2.6759,-2.6617,-2.64,-2.623,-2.7635,-2.9126,-3.0786,-3.0976,-3.0829,-3.0659,-3.0431,-3.0285,-3.0163,-3.0025,-2.9977,-2.9952,-2.9952,-2.996,-2.9993,-3.0058,-3.0139,-3.0017,-2.9871,-2.979,-2.9774,-2.9603,-2.9343,-2.9335,-2.9416,-2.9229,-2.8961,-2.8945,-2.8929,-2.8905,-2.8896,-2.8888,-2.8888,-2.8888,-2.8929,-2.8953,-2.8961,-2.8978,-2.8961,-2.8937,-2.8872,-2.8783,-2.871,-2.8645,-2.8612,-2.8572,-2.8482,-2.8433,-2.8393,-2.832,-0.219,-0.4975,-0.4917,-0.4893,-0.4886,-0.4859,-0.4848,-0.4848,-0.4848,-0.488,-0.4932,-0.4988,-0.5014,-0.5028,-0.5028,-0.5028,-0.5028,-0.5028,-0.5028,-0.5037,-0.5052,-0.506,-0.5077,-0.5108,-0.5146,-0.5157,-0.5178,-0.5193,-0.5206,-0.5208,-0.5208,-0.5208,-0.5208,-0.5208,-0.5217,-0.5235,-0.5255,-0.5287,-0.5318,-0.5336,-0.5337,-0.5359,-0.5377,-0.5379,-0.5385,-0.5388,-0.5386,-0.5416,-0.5437,-0.5431,-0.5483,-0.5518,-0.5512,-0.5512,-0.7904,-1.1318,-1.7432,-2.1102,-2.2997,-2.5293,-2.6589,-2.6773,-2.6583,-2.642,-2.6339,-2.7671,-2.9164,-3.0794,-3.1024,-3.0813,-3.0634,-3.0448,-3.0301,-3.0139,-3.0033,-3.0009,-2.9977,-2.9952,-2.996,-2.996,-3.0033,-3.0147,-3.0188,-3.0042,-2.9871,-2.9839,-2.9619,-2.9359,-2.9213,-2.9221,-2.9116,-2.8961,-2.8953,-2.8929,-2.8896,-2.8896,-2.8937,-2.8913,-2.8888,-2.8986,-2.9075,-2.9083,-2.9067,-2.9075,-2.9043,-2.8994,-2.8937,-2.884,-2.8791,-2.884,-2.8807,-2.8685,-2.8596,-2.8539,-2.8458,-0.3766,-0.5007,-0.4965,-0.4927,-0.4891,-0.488,-0.4864,-0.4852,-0.4868,-0.4909,-0.4966,-0.4991,-0.5011,-0.5024,-0.5028,-0.5028,-0.5028,-0.5028,-0.5028,-0.5037,-0.5054,-0.5069,-0.5088,-0.5112,-0.5141,-0.5161,-0.5178,-0.5193,-0.5205,-0.5206,-0.5208,-0.5208,-0.5208,-0.5208,-0.522,-0.525,-0.5274,-0.5289,-0.533,-0.5362,-0.5349,-0.5369,-0.5385,-0.5385,-0.5385,-0.5385,-0.5386,-0.5394,-0.5412,-0.5437,-0.5473,-0.5499,-0.5518,-0.5514,-0.62,-0.8603,-1.5077,-1.9118,-2.1729,-2.4705,-2.6956,-2.6807,-2.6624,-2.6488,-2.6461,-2.7823,-2.9317,-3.0249,-3.1114,-3.0886,-3.0569,-3.048,-3.0383,-3.0171,-3.0066,-3.0042,-3.0001,-2.9977,-2.9985,-3.0009,-3.0107,-3.0228,-3.0236,-3.0228,-3.005,-2.9879,-2.9627,-2.9408,-2.9262,-2.9181,-2.9132,-2.9091,-2.9091,-2.9026,-2.8986,-2.8994,-2.9002,-2.8953,-2.8913,-2.9043,-2.9156,-2.9132,-2.9124,-2.914,-2.9148,-2.9099,-2.9034,-2.8945,-2.8921,-2.8929,-2.8905,-2.8848,-2.8766,-2.8685,-2.8612,-0.5028,-0.5025,-0.5006,-0.4968,-0.4921,-0.4909,-0.4894,-0.488,-0.4897,-0.4934,-0.4984,-0.4991,-0.5007,-0.5025,-0.5028,-0.5028,-0.5028,-0.5028,-0.5028,-0.5043,-0.5065,-0.508,-0.5097,-0.5124,-0.5164,-0.5172,-0.5176,-0.519,-0.5206,-0.5208,-0.5208,-0.5208,-0.5208,-0.5208,-0.5221,-0.5262,-0.5289,-0.5302,-0.5337,-0.5377,-0.536,-0.5374,-0.5385,-0.5385,-0.5385,-0.5385,-0.5389,-0.5399,-0.5412,-0.5438,-0.5468,-0.5499,-0.5513,-0.5521,-0.5521,-0.7927,-1.2033,-1.7484,-2.0481,-2.4412,-2.6676,-2.6956,-2.6685,-2.6597,-2.6829,-2.7931,-2.9355,-3.0602,-3.1138,-3.0967,-3.0659,-3.0667,-3.0553,-3.0366,-3.0155,-3.0098,-3.0025,-2.9993,-3.0025,-3.0058,-3.0131,-3.0147,-3.018,-3.0155,-3.005,-2.9879,-2.9692,-2.9506,-2.9384,-2.9335,-2.9351,-2.9319,-2.9294,-2.9205,-2.9108,-2.9164,-2.9189,-2.9091,-2.9075,-2.9148,-2.9221,-2.9221,-2.9238,-2.9262,-2.9254,-2.9205,-2.9132,-2.9051,-2.901,-2.8986,-2.8945,-2.8896,-2.8864,-2.8783,-2.8775,-0.5028,-0.5028,-0.5026,-0.5009,-0.4976,-0.4949,-0.4935,-0.4927,-0.4935,-0.4955,-0.499,-0.5013,-0.5024,-0.5028,-0.5028,-0.5028,-0.5028,-0.5028,-0.5028,-0.504,-0.5082,-0.5107,-0.5131,-0.5159,-0.5189,-0.5202,-0.5206,-0.5208,-0.5208,-0.5214,-0.5212,-0.5208,-0.5208,-0.521,-0.5213,-0.5268,-0.531,-0.534,-0.5369,-0.5375,-0.5381,-0.5382,-0.5385,-0.5385,-0.5385,-0.5385,-0.5389,-0.5401,-0.5419,-0.5443,-0.548,-0.551,-0.5525,-0.5523,-0.5532,-0.6248,-1.2409,-1.6153,-1.7514,-2.345,-2.6421,-2.7078,-2.678,-2.6664,-2.6878,-2.7967,-2.9378,-3.0673,-3.1252,-3.1162,-3.1049,-3.0976,-3.0797,-3.0561,-3.035,-3.022,-3.0163,-3.005,-3.009,-3.0042,-2.9985,-2.9977,-3.0033,-3.005,-2.9985,-2.9863,-2.9725,-2.9619,-2.9546,-2.9473,-2.9497,-2.9514,-2.9481,-2.94,-2.9327,-2.9376,-2.9367,-2.9262,-2.9229,-2.9294,-2.9392,-2.9465,-2.9457,-2.9424,-2.94,-2.9384,-2.9278,-2.9156,-2.9164,-2.9156,-2.8994,-2.8929,-2.8905,-2.8905,-2.8905,-0.3142,-0.5028,-0.5028,-0.5022,-0.5009,-0.4981,-0.4958,-0.4943,-0.496,-0.4985,-0.501,-0.5026,-0.5028,-0.5028,-0.5028,-0.5028,-0.5028,-0.5028,-0.5028,-0.5037,-0.5089,-0.5109,-0.5134,-0.5172,-0.5206,-0.5213,-0.5221,-0.522,-0.5208,-0.522,-0.5219,-0.5213,-0.5212,-0.5219,-0.524,-0.528,-0.5313,-0.5339,-0.5354,-0.5364,-0.5382,-0.5384,-0.5384,-0.5384,-0.5382,-0.5384,-0.5386,-0.5403,-0.5426,-0.5453,-0.5493,-0.5513,-0.5535,-0.5538,-0.5538,-0.6246,-1.1052,-1.5499,-1.9261,-2.4614,-2.6756,-2.699,-2.6888,-2.6766,-2.7049,-2.8082,-2.9561,-3.0793,-3.1414,-3.126,-3.0943,-3.1227,-3.1138,-3.0781,-3.0578,-3.0488,-3.0399,-3.0236,-3.0155,-3.0033,-2.9952,-2.9968,-3.0009,-3.0107,-3.0066,-3.0001,-2.9895,-2.992,-2.9887,-2.9692,-2.9619,-2.9668,-2.966,-2.9587,-2.9546,-2.957,-2.9514,-2.9392,-2.9376,-2.9424,-2.9538,-2.9644,-2.9627,-2.9562,-2.957,-2.9562,-2.9473,-2.94,-2.9392,-2.9343,-2.9221,-2.9059,-2.8986,-2.9018,-2.9067,-0.1885,-0.5028,-0.5028,-0.5028,-0.5025,-0.5007,-0.4987,-0.4975,-0.4991,-0.5011,-0.5025,-0.5028,-0.5028,-0.5028,-0.5028,-0.5028,-0.5028,-0.5028,-0.504,-0.5047,-0.5092,-0.5119,-0.5146,-0.5179,-0.5202,-0.5213,-0.5221,-0.5223,-0.5208,-0.5225,-0.5223,-0.5213,-0.5219,-0.5242,-0.5266,-0.5292,-0.5313,-0.5339,-0.5355,-0.5363,-0.5369,-0.5369,-0.5369,-0.5369,-0.537,-0.5373,-0.5388,-0.5408,-0.5433,-0.5468,-0.5498,-0.5521,-0.5548,-0.5554,-0.5547,-0.6591,-0.9355,-1.4841,-2.0645,-2.3407,-2.5198,-2.6861,-2.6875,-2.6848,-2.7063,-2.8082,-2.9584,-3.0517,-3.1212,-3.1373,-3.1162,-3.1487,-3.1406,-3.1049,-3.0927,-3.0846,-3.0602,-3.0439,-3.0293,-3.0155,-3.0042,-3.0042,-3.0033,-3.0123,-3.0188,-3.0139,-3.0082,-3.0115,-3.0131,-2.992,-2.9741,-2.9782,-2.9814,-2.9765,-2.9733,-2.9749,-2.9668,-2.953,-2.9554,-2.9603,-2.9627,-2.9717,-2.9709,-2.9692,-2.966,-2.9644,-2.9676,-2.9652,-2.9627,-2.9587,-2.953,-2.9343,-2.9116,-2.9164,-2.9278,-0.1885,-0.4714,-0.5028,-0.5028,-0.5028,-0.5025,-0.5025,-0.5026,-0.5026,-0.5028,-0.5028,-0.5028,-0.5028,-0.5028,-0.5028,-0.5028,-0.5028,-0.5028,-0.5044,-0.5069,-0.51,-0.5127,-0.5159,-0.5189,-0.5204,-0.5208,-0.5214,-0.5223,-0.5209,-0.5223,-0.522,-0.522,-0.5242,-0.5269,-0.5291,-0.5306,-0.5324,-0.5348,-0.5359,-0.5364,-0.5363,-0.5356,-0.5359,-0.536,-0.536,-0.537,-0.5392,-0.5426,-0.5456,-0.549,-0.5524,-0.555,-0.5565,-0.5566,-0.5566,-0.6606,-0.9027,-1.4519,-1.9642,-2.1729,-2.4317,-2.6315,-2.6712,-2.6712,-2.7289,-2.8046,-2.9523,-3.0485,-3.1164,-3.1503,-3.1503,-3.1601,-3.1682,-3.1487,-3.1357,-3.1138,-3.0846,-3.0659,-3.0521,-3.0391,-3.0269,-3.0212,-3.0171,-3.022,-3.0245,-3.0204,-3.0131,-3.0042,-3.0042,-3.0009,-2.9871,-2.9879,-2.9912,-2.9928,-2.9912,-2.9871,-2.983,-2.9692,-2.9765,-2.9814,-2.9822,-2.9798,-2.9806,-2.9782,-2.9717,-2.9717,-2.9765,-2.9806,-2.983,-2.979,-2.9725,-2.9554,-2.9319,-2.9473,-2.9562,-0.1885,-0.5028,-0.5028,-0.5028,-0.5028,-0.5028,-0.5028,-0.5028,-0.5028,-0.5028,-0.5028,-0.5028,-0.5028,-0.5028,-0.5028,-0.5028,-0.5029,-0.5032,-0.5048,-0.5074,-0.5108,-0.5134,-0.5163,-0.5191,-0.5204,-0.5214,-0.5221,-0.5223,-0.5216,-0.5223,-0.5236,-0.5244,-0.5262,-0.5294,-0.5315,-0.5329,-0.5347,-0.536,-0.5366,-0.5363,-0.5366,-0.5366,-0.5366,-0.5362,-0.5363,-0.5373,-0.5394,-0.5426,-0.5454,-0.5484,-0.5514,-0.554,-0.5566,-0.5566,-0.5566,-0.5912,-0.9029,-1.3165,-1.7622,-2.0675,-2.3297,-2.5776,-2.6827,-2.6617,-2.6857,-2.8003,-2.9431,-3.0454,-3.1092,-3.1084,-3.1487,-3.1601,-3.1682,-3.1633,-3.1528,-3.139,-3.1114,-3.0911,-3.0764,-3.0521,-3.0399,-3.0301,-3.0269,-3.0261,-3.0277,-3.0245,-3.018,-3.0066,-2.9985,-2.996,-2.9944,-2.9944,-2.9944,-2.9944,-2.9944,-2.992,-2.9912,-2.9895,-2.9928,-2.9936,-2.9903,-2.9887,-2.9895,-2.9887,-2.9847,-2.9847,-2.9879,-2.992,-2.996,-2.9928,-2.9863,-2.97,-2.9595,-2.9709,-2.9822,-0.3142,-0.5028,-0.5028,-0.5028,-0.5028,-0.5028,-0.5028,-0.5028,-0.5028,-0.5028,-0.5028,-0.5028,-0.5028,-0.5028,-0.5029,-0.5035,-0.5047,-0.5051,-0.5069,-0.5112,-0.5123,-0.5153,-0.518,-0.5195,-0.5205,-0.5214,-0.522,-0.522,-0.5214,-0.5223,-0.5235,-0.5251,-0.5274,-0.5306,-0.5329,-0.5341,-0.5356,-0.5367,-0.5371,-0.5366,-0.5366,-0.5369,-0.5363,-0.5356,-0.536,-0.5373,-0.539,-0.542,-0.5461,-0.5493,-0.5523,-0.5546,-0.5566,-0.5566,-0.5555,-0.5897,-0.7253,-1.0339,-1.4083,-1.7737,-2.1113,-2.4418,-2.6209,-2.6664,-2.674,-2.7196,-2.9123,-3.0446,-3.0697,-3.0995,-3.1124,-3.156,-3.1625,-3.1674,-3.165,-3.1625,-3.1414,-3.1195,-3.0935,-3.0651,-3.0488,-3.0383,-3.0334,-3.0326,-3.0285,-3.0245,-3.018,-3.009,-3.0009,-2.9952,-2.9944,-2.9944,-2.9944,-2.9944,-2.9944,-2.9944,-2.9936,-2.9928,-2.9936,-2.9944,-2.9952,-2.9968,-2.9977,-2.9985,-2.9977,-3.0001,-3.0033,-3.005,-3.0066,-3.0033,-3.0017,-2.9944,-2.9847,-2.9839,-2.9944,-0.5026,-0.5028,-0.5028,-0.5028,-0.5028,-0.5028,-0.5028,-0.5028,-0.5028,-0.5028,-0.5028,-0.5028,-0.5028,-0.5028,-0.5029,-0.5044,-0.5056,-0.5066,-0.5094,-0.5159,-0.5153,-0.5171,-0.5193,-0.5208,-0.5208,-0.5208,-0.5209,-0.5213,-0.521,-0.522,-0.5238,-0.5251,-0.5269,-0.5299,-0.5337,-0.5351,-0.5364,-0.5378,-0.5378,-0.5371,-0.5351,-0.5341,-0.5329,-0.5313,-0.533,-0.5358,-0.5393,-0.5437,-0.549,-0.5518,-0.5546,-0.5563,-0.5565,-0.5543,-0.5529,-0.5514,-0.6171,-0.8548,-1.1582,-1.5231,-1.8549,-2.1857,-2.4789,-2.5971,-2.6754,-2.7203,-2.8823,-2.9738,-2.9983,-3.0618,-3.1035,-3.1536,-3.165,-3.1747,-3.1796,-3.1698,-3.1503,-3.126,-3.0984,-3.0748,-3.0651,-3.0537,-3.0415,-3.0407,-3.0383,-3.0285,-3.0196,-3.0115,-3.0066,-3.0001,-2.9968,-2.9968,-2.9952,-2.9952,-2.9944,-2.9944,-2.9944,-2.9944,-2.9968,-3.0001,-3.005,-3.0058,-3.0058,-3.009,-3.0123,-3.0163,-3.0196,-3.0188,-3.0147,-3.0082,-3.009,-3.0163,-3.0123,-3.0001,-3.0082,-0.5007,-0.5028,-0.5028,-0.5028,-0.5028,-0.5028,-0.5029,-0.5028,-0.5028,-0.5029,-0.5028,-0.5028,-0.5028,-0.5028,-0.5029,-0.5044,-0.5069,-0.5081,-0.5111,-0.5148,-0.5165,-0.5182,-0.5202,-0.5208,-0.5208,-0.5208,-0.5208,-0.5208,-0.521,-0.5225,-0.5243,-0.5258,-0.5283,-0.5324,-0.5345,-0.536,-0.5377,-0.5385,-0.5384,-0.5369,-0.5343,-0.5337,-0.533,-0.5315,-0.5325,-0.5356,-0.5394,-0.5441,-0.5484,-0.552,-0.555,-0.5563,-0.5566,-0.5501,-0.5478,-0.5472,-0.5435,-0.7452,-1.0137,-1.3455,-1.7106,-2.0844,-2.4174,-2.6004,-2.7157,-2.7316,-2.783,-2.8711,-2.9615,-3.0257,-3.0979,-3.1495,-3.1682,-3.1804,-3.1909,-3.1739,-3.1568,-3.1276,-3.1,-3.0886,-3.0789,-3.0667,-3.0529,-3.0472,-3.0456,-3.0383,-3.0269,-3.0188,-3.0163,-3.0107,-3.0033,-3.0017,-2.9968,-2.996,-2.9968,-2.9985,-3.0009,-3.0033,-3.0066,-3.0107,-3.0147,-3.0204,-3.0253,-3.0253,-3.0277,-3.0318,-3.0326,-3.0269,-3.0228,-3.0155,-3.0139,-3.0196,-3.0123,-3.0001,-3.0171,-0.5013,-0.5028,-0.5028,-0.5028,-0.503,-0.5041,-0.504,-0.5032,-0.5041,-0.504,-0.5029,-0.5028,-0.5028,-0.5028,-0.5029,-0.5054,-0.5082,-0.509,-0.5133,-0.5167,-0.518,-0.5191,-0.5202,-0.5208,-0.5208,-0.5208,-0.5208,-0.5209,-0.5213,-0.5221,-0.5236,-0.5268,-0.5311,-0.5334,-0.5352,-0.5377,-0.5384,-0.5385,-0.5384,-0.5363,-0.5337,-0.534,-0.5324,-0.531,-0.5317,-0.5352,-0.5389,-0.5435,-0.5484,-0.551,-0.5532,-0.5523,-0.5505,-0.5454,-0.5419,-0.5401,-0.5714,-0.636,-0.9042,-1.2029,-1.5349,-1.9085,-2.2451,-2.3917,-2.6905,-2.7067,-2.6865,-2.7743,-2.8562,-2.95,-3.0312,-3.1148,-3.165,-3.1796,-3.1812,-3.1731,-3.1438,-3.1114,-3.0927,-3.0821,-3.0716,-3.0594,-3.0488,-3.048,-3.0448,-3.0326,-3.0236,-3.018,-3.0163,-3.0204,-3.0131,-3.0107,-3.009,-3.0074,-3.0098,-3.0107,-3.0107,-3.0131,-3.018,-3.0245,-3.031,-3.0399,-3.0456,-3.0464,-3.0472,-3.0488,-3.0472,-3.0448,-3.0318,-3.0228,-3.0212,-3.022,-3.0123,-3.0074,-3.0228,-0.502,-0.5028,-0.5028,-0.503,-0.5037,-0.5059,-0.5056,-0.5041,-0.5059,-0.5054,-0.503,-0.5028,-0.5028,-0.5028,-0.5036,-0.5071,-0.5099,-0.5115,-0.5157,-0.5183,-0.5199,-0.5202,-0.5204,-0.5208,-0.5208,-0.5208,-0.5208,-0.5213,-0.522,-0.5221,-0.5236,-0.5281,-0.5302,-0.5315,-0.5355,-0.5377,-0.5375,-0.5377,-0.5371,-0.5354,-0.5348,-0.5348,-0.5315,-0.53,-0.5306,-0.5351,-0.5382,-0.5419,-0.5475,-0.5491,-0.5495,-0.5479,-0.5446,-0.5403,-0.5369,-0.534,-0.531,-0.5642,-0.6643,-0.9226,-1.2249,-1.5294,-1.8935,-2.257,-2.5537,-2.6747,-2.6224,-2.6726,-2.7877,-2.8837,-2.996,-3.0785,-3.1293,-3.1747,-3.1731,-3.169,-3.1349,-3.1024,-3.0911,-3.0797,-3.0659,-3.0537,-3.0448,-3.0439,-3.0407,-3.0285,-3.0212,-3.0147,-3.0123,-3.0204,-3.022,-3.0261,-3.0293,-3.0285,-3.0269,-3.0253,-3.0253,-3.0293,-3.035,-3.0407,-3.048,-3.0602,-3.0675,-3.0675,-3.0683,-3.0699,-3.0699,-3.0683,-3.0529,-3.035,-3.0318,-3.0326,-3.0301,-3.0269,-3.0318,-0.4984,-0.5028,-0.5028,-0.5041,-0.506,-0.5069,-0.5067,-0.5063,-0.5066,-0.5055,-0.5036,-0.5029,-0.5028,-0.503,-0.5055,-0.5081,-0.51,-0.5127,-0.5148,-0.5169,-0.5198,-0.5205,-0.5208,-0.5208,-0.5208,-0.5208,-0.521,-0.522,-0.5221,-0.5213,-0.5224,-0.5262,-0.5264,-0.5272,-0.5283,-0.5313,-0.5352,-0.5358,-0.5369,-0.5359,-0.5343,-0.5333,-0.5307,-0.5294,-0.5287,-0.5334,-0.537,-0.5388,-0.5433,-0.5453,-0.5442,-0.5426,-0.5392,-0.5345,-0.5304,-0.5292,-0.5259,-0.5269,-0.6252,-0.8194,-1.0877,-1.2615,-1.6902,-2.2104,-2.4702,-2.6285,-2.6122,-2.6342,-2.7207,-2.848,-2.9577,-3.0753,-3.1577,-3.1658,-3.169,-3.1577,-3.1349,-3.1162,-3.1016,-3.0854,-3.0675,-3.0488,-3.0277,-3.0318,-3.0407,-3.0326,-3.0342,-3.0285,-3.0269,-3.0293,-3.0318,-3.0399,-3.048,-3.0488,-3.0472,-3.0439,-3.0439,-3.048,-3.0529,-3.0594,-3.0691,-3.0846,-3.0894,-3.0837,-3.087,-3.0911,-3.0911,-3.0854,-3.0748,-3.0586,-3.0488,-3.0448,-3.0439,-3.0439,-3.048]}]]